Wetterdaten: Mittwoch, 04.05.2022
Datum Zeit Temp. 2m Temp +5 cm Feuchte A. Luftdruck Regen Wind Richtung Richtung Sonnenschein UV Solar Taupunkt Windchill Windben
04.05.2022 00:00 4,9 C 2,8 C 83 % 1019,1 hPa 0,0 l/m 0,0 km/h (0 Bft) N 0 0 min 0,0 UV-I 0 W/m 2,3 C 4,9 C 0,0 km/h (0 Bft)
04.05.2022 00:01 4,9 C 2,8 C 83 % 1019,1 hPa 0,0 l/m 0,0 km/h (0 Bft) N 0 0 min 0,0 UV-I 0 W/m 2,3 C 4,9 C 0,0 km/h (0 Bft)
04.05.2022 00:02 5,0 C 2,8 C 83 % 1019,1 hPa 0,0 l/m 0,0 km/h (0 Bft) N 0 0 min 0,0 UV-I 0 W/m 2,4 C 5,0 C 0,0 km/h (0 Bft)
04.05.2022 00:03 5,0 C 2,8 C 83 % 1019,0 hPa 0,0 l/m 0,0 km/h (0 Bft) N 0 0 min 0,0 UV-I 0 W/m 2,4 C 5,0 C 0,0 km/h (0 Bft)
04.05.2022 00:04 5,1 C 2,8 C 83 % 1019,1 hPa 0,0 l/m 0,0 km/h (0 Bft) N 360 0 min 0,0 UV-I 0 W/m 2,5 C 5,1 C 1,6 km/h (1 Bft)
04.05.2022 00:05 5,1 C 2,8 C 83 % 1019,0 hPa 0,0 l/m 0,0 km/h (0 Bft) N 0 0 min 0,0 UV-I 0 W/m 2,5 C 5,1 C 0,0 km/h (0 Bft)
04.05.2022 00:06 5,1 C 2,8 C 83 % 1019,0 hPa 0,0 l/m 0,0 km/h (0 Bft) N 0 0 min 0,0 UV-I 0 W/m 2,5 C 5,1 C 0,0 km/h (0 Bft)
04.05.2022 00:07 5,1 C 2,8 C 83 % 1019,0 hPa 0,0 l/m 0,0 km/h (0 Bft) N 0 0 min 0,0 UV-I 0 W/m 2,5 C 5,1 C 0,0 km/h (0 Bft)
04.05.2022 00:08 5,1 C 2,8 C 83 % 1018,9 hPa 0,0 l/m 0,0 km/h (0 Bft) N 360 0 min 0,0 UV-I 0 W/m 2,5 C 5,1 C 1,6 km/h (1 Bft)
04.05.2022 00:09 5,1 C 2,8 C 82 % 1019,0 hPa 0,0 l/m 0,0 km/h (0 Bft) N 360 0 min 0,0 UV-I 0 W/m 2,3 C 5,1 C 1,6 km/h (1 Bft)
04.05.2022 00:10 5,0 C 2,8 C 83 % 1019,0 hPa 0,0 l/m 0,0 km/h (0 Bft) N 0 0 min 0,0 UV-I 0 W/m 2,4 C 5,0 C 0,0 km/h (0 Bft)
04.05.2022 00:11 4,9 C 2,2 C 83 % 1019,0 hPa 0,0 l/m 0,0 km/h (0 Bft) N 0 0 min 0,0 UV-I 0 W/m 2,3 C 4,9 C 0,0 km/h (0 Bft)
04.05.2022 00:12 4,8 C 2,2 C 82 % 1019,0 hPa 0,0 l/m 0,0 km/h (0 Bft) N 0 0 min 0,0 UV-I 0 W/m 2,0 C 4,8 C 0,0 km/h (0 Bft)
04.05.2022 00:13 4,8 C 2,2 C 83 % 1019,0 hPa 0,0 l/m 0,0 km/h (0 Bft) N 360 0 min 0,0 UV-I 0 W/m 2,2 C 4,8 C 1,6 km/h (1 Bft)
04.05.2022 00:14 4,7 C 2,2 C 83 % 1019,1 hPa 0,0 l/m 1,6 km/h (1 Bft) N 360 0 min 0,0 UV-I 0 W/m 2,1 C 4,7 C 3,2 km/h (1 Bft)
04.05.2022 00:15 4,6 C 2,2 C 83 % 1019,0 hPa 0,0 l/m 3,2 km/h (1 Bft) N 360 0 min 0,0 UV-I 0 W/m 2,0 C 4,6 C 3,2 km/h (1 Bft)
04.05.2022 00:16 4,7 C 2,2 C 83 % 1019,2 hPa 0,0 l/m 1,6 km/h (1 Bft) N 360 0 min 0,0 UV-I 0 W/m 2,1 C 4,7 C 1,6 km/h (1 Bft)
04.05.2022 00:17 4,6 C 2,2 C 83 % 1019,1 hPa 0,0 l/m 1,6 km/h (1 Bft) N 360 0 min 0,0 UV-I 0 W/m 2,0 C 4,6 C 3,2 km/h (1 Bft)
04.05.2022 00:18 4,6 C 2,2 C 83 % 1019,1 hPa 0,0 l/m 1,6 km/h (1 Bft) N 360 0 min 0,0 UV-I 0 W/m 2,0 C 4,6 C 3,2 km/h (1 Bft)
04.05.2022 00:19 4,6 C 2,2 C 83 % 1019,1 hPa 0,0 l/m 0,0 km/h (0 Bft) N 360 0 min 0,0 UV-I 0 W/m 2,0 C 4,6 C 1,6 km/h (1 Bft)
04.05.2022 00:20 4,6 C 2,2 C 84 % 1019,1 hPa 0,0 l/m 0,0 km/h (0 Bft) N 0 0 min 0,0 UV-I 0 W/m 2,1 C 4,6 C 0,0 km/h (0 Bft)
04.05.2022 00:21 4,7 C 2,2 C 84 % 1019,2 hPa 0,0 l/m 0,0 km/h (0 Bft) N 0 0 min 0,0 UV-I 0 W/m 2,2 C 4,7 C 0,0 km/h (0 Bft)
04.05.2022 00:22 4,8 C 2,8 C 84 % 1019,1 hPa 0,0 l/m 0,0 km/h (0 Bft) N 0 0 min 0,0 UV-I 0 W/m 2,3 C 4,8 C 0,0 km/h (0 Bft)
04.05.2022 00:23 4,9 C 2,8 C 84 % 1019,2 hPa 0,0 l/m 0,0 km/h (0 Bft) N 360 0 min 0,0 UV-I 0 W/m 2,4 C 4,9 C 1,6 km/h (1 Bft)
04.05.2022 00:24 5,1 C 2,8 C 84 % 1019,2 hPa 0,0 l/m 0,0 km/h (0 Bft) N 360 0 min 0,0 UV-I 0 W/m 2,6 C 5,1 C 1,6 km/h (1 Bft)
04.05.2022 00:25 5,2 C 2,8 C 85 % 1019,2 hPa 0,0 l/m 1,6 km/h (1 Bft) N 360 0 min 0,0 UV-I 0 W/m 2,9 C 5,2 C 1,6 km/h (1 Bft)
04.05.2022 00:26 5,3 C 2,8 C 84 % 1019,3 hPa 0,0 l/m 0,0 km/h (0 Bft) N 360 0 min 0,0 UV-I 0 W/m 2,8 C 5,3 C 1,6 km/h (1 Bft)
04.05.2022 00:27 5,3 C 2,8 C 83 % 1019,2 hPa 0,0 l/m 1,6 km/h (1 Bft) N 360 0 min 0,0 UV-I 0 W/m 2,7 C 5,3 C 1,6 km/h (1 Bft)
04.05.2022 00:28 5,2 C 2,8 C 82 % 1019,2 hPa 0,0 l/m 0,0 km/h (0 Bft) N 360 0 min 0,0 UV-I 0 W/m 2,4 C 5,2 C 1,6 km/h (1 Bft)
04.05.2022 00:29 5,1 C 2,8 C 82 % 1019,3 hPa 0,0 l/m 0,0 km/h (0 Bft) N 0 0 min 0,0 UV-I 0 W/m 2,3 C 5,1 C 0,0 km/h (0 Bft)
04.05.2022 00:30 4,9 C 2,2 C 83 % 1019,3 hPa 0,0 l/m 0,0 km/h (0 Bft) N 0 0 min 0,0 UV-I 0 W/m 2,3 C 4,9 C 0,0 km/h (0 Bft)
04.05.2022 00:31 4,9 C 2,2 C 83 % 1019,4 hPa 0,0 l/m 0,0 km/h (0 Bft) N 0 0 min 0,0 UV-I 0 W/m 2,3 C 4,9 C 0,0 km/h (0 Bft)
04.05.2022 00:32 4,8 C 2,2 C 83 % 1019,4 hPa 0,0 l/m 0,0 km/h (0 Bft) N 0 0 min 0,0 UV-I 0 W/m 2,2 C 4,8 C 0,0 km/h (0 Bft)
04.05.2022 00:33 4,8 C 2,2 C 83 % 1019,3 hPa 0,0 l/m 0,0 km/h (0 Bft) N 360 0 min 0,0 UV-I 0 W/m 2,2 C 4,8 C 1,6 km/h (1 Bft)
04.05.2022 00:34 4,9 C 2,2 C 84 % 1019,3 hPa 0,0 l/m 0,0 km/h (0 Bft) N 360 0 min 0,0 UV-I 0 W/m 2,4 C 4,9 C 1,6 km/h (1 Bft)
04.05.2022 00:35 5,0 C 2,8 C 84 % 1019,3 hPa 0,0 l/m 0,0 km/h (0 Bft) N 0 0 min 0,0 UV-I 0 W/m 2,5 C 5,0 C 0,0 km/h (0 Bft)
04.05.2022 00:36 5,2 C 2,8 C 84 % 1019,3 hPa 0,0 l/m 0,0 km/h (0 Bft) N 0 0 min 0,0 UV-I 0 W/m 2,7 C 5,2 C 0,0 km/h (0 Bft)
04.05.2022 00:37 5,3 C 2,8 C 84 % 1019,2 hPa 0,0 l/m 0,0 km/h (0 Bft) N 0 0 min 0,0 UV-I 0 W/m 2,8 C 5,3 C 0,0 km/h (0 Bft)
04.05.2022 00:38 5,6 C 2,8 C 84 % 1019,3 hPa 0,0 l/m 0,0 km/h (0 Bft) N 0 0 min 0,0 UV-I 0 W/m 3,1 C 5,6 C 0,0 km/h (0 Bft)
04.05.2022 00:39 5,7 C 2,8 C 84 % 1019,2 hPa 0,0 l/m 0,0 km/h (0 Bft) N 360 0 min 0,0 UV-I 0 W/m 3,2 C 5,7 C 1,6 km/h (1 Bft)
04.05.2022 00:40 5,8 C 2,8 C 84 % 1019,2 hPa 0,0 l/m 1,6 km/h (1 Bft) N 360 0 min 0,0 UV-I 0 W/m 3,3 C 5,8 C 1,6 km/h (1 Bft)
04.05.2022 00:41 5,9 C 2,8 C 83 % 1019,2 hPa 0,0 l/m 1,6 km/h (1 Bft) N 360 0 min 0,0 UV-I 0 W/m 3,2 C 5,9 C 3,2 km/h (1 Bft)
04.05.2022 00:42 5,9 C 2,8 C 83 % 1019,2 hPa 0,0 l/m 1,6 km/h (1 Bft) N 360 0 min 0,0 UV-I 0 W/m 3,2 C 5,9 C 3,2 km/h (1 Bft)
04.05.2022 00:43 5,9 C 3,3 C 83 % 1019,3 hPa 0,0 l/m 1,6 km/h (1 Bft) N 360 0 min 0,0 UV-I 0 W/m 3,2 C 5,9 C 1,6 km/h (1 Bft)
04.05.2022 00:44 6,0 C 3,3 C 83 % 1019,2 hPa 0,0 l/m 1,6 km/h (1 Bft) N 360 0 min 0,0 UV-I 0 W/m 3,3 C 6,0 C 1,6 km/h (1 Bft)
04.05.2022 00:45 5,8 C 2,8 C 82 % 1019,3 hPa 0,0 l/m 0,0 km/h (0 Bft) N 360 0 min 0,0 UV-I 0 W/m 3,0 C 5,8 C 1,6 km/h (1 Bft)
04.05.2022 00:46 5,6 C 2,8 C 81 % 1019,2 hPa 0,0 l/m 1,6 km/h (1 Bft) N 360 0 min 0,0 UV-I 0 W/m 2,6 C 5,6 C 1,6 km/h (1 Bft)
04.05.2022 00:47 5,4 C 2,8 C 81 % 1019,2 hPa 0,0 l/m 1,6 km/h (1 Bft) N 360 0 min 0,0 UV-I 0 W/m 2,4 C 5,4 C 1,6 km/h (1 Bft)
04.05.2022 00:48 5,2 C 2,8 C 81 % 1019,2 hPa 0,0 l/m 0,0 km/h (0 Bft) N 360 0 min 0,0 UV-I 0 W/m 2,2 C 5,2 C 1,6 km/h (1 Bft)
04.05.2022 00:49 5,1 C 2,8 C 82 % 1019,3 hPa 0,0 l/m 0,0 km/h (0 Bft) N 360 0 min 0,0 UV-I 0 W/m 2,3 C 5,1 C 1,6 km/h (1 Bft)
04.05.2022 00:50 5,1 C 2,8 C 83 % 1019,2 hPa 0,0 l/m 1,6 km/h (1 Bft) N 360 0 min 0,0 UV-I 0 W/m 2,5 C 5,1 C 1,6 km/h (1 Bft)
04.05.2022 00:51 5,1 C 2,8 C 83 % 1019,3 hPa 0,0 l/m 1,6 km/h (1 Bft) N 360 0 min 0,0 UV-I 0 W/m 2,5 C 5,1 C 3,2 km/h (1 Bft)
04.05.2022 00:52 5,1 C 2,8 C 84 % 1019,2 hPa 0,0 l/m 1,6 km/h (1 Bft) N 360 0 min 0,0 UV-I 0 W/m 2,6 C 5,1 C 1,6 km/h (1 Bft)
04.05.2022 00:53 5,2 C 2,8 C 84 % 1019,3 hPa 0,0 l/m 1,6 km/h (1 Bft) N 360 0 min 0,0 UV-I 0 W/m 2,7 C 5,2 C 1,6 km/h (1 Bft)
04.05.2022 00:54 5,2 C 2,8 C 85 % 1019,2 hPa 0,0 l/m 1,6 km/h (1 Bft) N 360 0 min 0,0 UV-I 0 W/m 2,9 C 5,2 C 1,6 km/h (1 Bft)
04.05.2022 00:55 5,3 C 2,8 C 85 % 1019,3 hPa 0,0 l/m 1,6 km/h (1 Bft) N 360 0 min 0,0 UV-I 0 W/m 3,0 C 5,3 C 3,2 km/h (1 Bft)
04.05.2022 00:56 5,4 C 2,8 C 85 % 1019,2 hPa 0,0 l/m 1,6 km/h (1 Bft) N 360 0 min 0,0 UV-I 0 W/m 3,1 C 5,4 C 3,2 km/h (1 Bft)
04.05.2022 00:57 5,4 C 2,8 C 85 % 1019,4 hPa 0,0 l/m 1,6 km/h (1 Bft) N 360 0 min 0,0 UV-I 0 W/m 3,1 C 5,4 C 3,2 km/h (1 Bft)
04.05.2022 00:58 5,6 C 2,8 C 85 % 1019,4 hPa 0,0 l/m 1,6 km/h (1 Bft) N 360 0 min 0,0 UV-I 0 W/m 3,3 C 5,6 C 3,2 km/h (1 Bft)
04.05.2022 00:59 5,7 C 2,8 C 85 % 1019,2 hPa 0,0 l/m 1,6 km/h (1 Bft) N 360 0 min 0,0 UV-I 0 W/m 3,4 C 5,7 C 3,2 km/h (1 Bft)
04.05.2022 01:00 5,7 C 2,8 C 85 % 1019,2 hPa 0,0 l/m 1,6 km/h (1 Bft) N 360 0 min 0,0 UV-I 0 W/m 3,4 C 5,7 C 3,2 km/h (1 Bft)
04.05.2022 01:01 5,7 C 2,8 C 84 % 1019,3 hPa 0,0 l/m 0,0 km/h (0 Bft) N 360 0 min 0,0 UV-I 0 W/m 3,2 C 5,7 C 1,6 km/h (1 Bft)
04.05.2022 01:02 5,6 C 2,8 C 84 % 1019,2 hPa 0,0 l/m 0,0 km/h (0 Bft) N 0 0 min 0,0 UV-I 0 W/m 3,1 C 5,6 C 0,0 km/h (0 Bft)
04.05.2022 01:03 5,4 C 2,8 C 83 % 1019,2 hPa 0,0 l/m 0,0 km/h (0 Bft) N 0 0 min 0,0 UV-I 0 W/m 2,7 C 5,4 C 0,0 km/h (0 Bft)
04.05.2022 01:04 5,4 C 2,8 C 83 % 1019,2 hPa 0,0 l/m 0,0 km/h (0 Bft) N 0 0 min 0,0 UV-I 0 W/m 2,7 C 5,4 C 0,0 km/h (0 Bft)
04.05.2022 01:05 5,3 C 2,8 C 83 % 1019,2 hPa 0,0 l/m 0,0 km/h (0 Bft) N 0 0 min 0,0 UV-I 0 W/m 2,7 C 5,3 C 0,0 km/h (0 Bft)
04.05.2022 01:06 5,4 C 2,8 C 84 % 1019,2 hPa 0,0 l/m 0,0 km/h (0 Bft) N 0 0 min 0,0 UV-I 0 W/m 2,9 C 5,4 C 0,0 km/h (0 Bft)
04.05.2022 01:07 5,6 C 2,8 C 85 % 1019,2 hPa 0,0 l/m 1,6 km/h (1 Bft) N 360 0 min 0,0 UV-I 0 W/m 3,3 C 5,6 C 1,6 km/h (1 Bft)
04.05.2022 01:08 5,7 C 2,8 C 86 % 1019,3 hPa 0,0 l/m 1,6 km/h (1 Bft) N 360 0 min 0,0 UV-I 0 W/m 3,5 C 5,7 C 3,2 km/h (1 Bft)
04.05.2022 01:09 5,9 C 2,8 C 86 % 1019,3 hPa 0,0 l/m 1,6 km/h (1 Bft) N 360 0 min 0,0 UV-I 0 W/m 3,7 C 5,9 C 3,2 km/h (1 Bft)
04.05.2022 01:10 6,1 C 3,3 C 86 % 1019,3 hPa 0,0 l/m 3,2 km/h (1 Bft) N 360 0 min 0,0 UV-I 0 W/m 3,9 C 6,1 C 6,4 km/h (2 Bft)
04.05.2022 01:11 6,2 C 3,3 C 86 % 1019,3 hPa 0,0 l/m 4,8 km/h (1 Bft) N 360 0 min 0,0 UV-I 0 W/m 4,0 C 6,2 C 8,0 km/h (2 Bft)
04.05.2022 01:12 6,3 C 3,3 C 85 % 1019,3 hPa 0,0 l/m 3,2 km/h (1 Bft) N 360 0 min 0,0 UV-I 0 W/m 4,0 C 6,3 C 4,8 km/h (1 Bft)
04.05.2022 01:13 6,4 C 3,3 C 85 % 1019,3 hPa 0,0 l/m 3,2 km/h (1 Bft) N 360 0 min 0,0 UV-I 0 W/m 4,1 C 6,4 C 8,0 km/h (2 Bft)
04.05.2022 01:14 6,3 C 3,3 C 82 % 1019,3 hPa 0,0 l/m 0,0 km/h (0 Bft) N 360 0 min 0,0 UV-I 0 W/m 3,5 C 6,3 C 1,6 km/h (1 Bft)
04.05.2022 01:15 5,9 C 3,3 C 81 % 1019,3 hPa 0,0 l/m 1,6 km/h (1 Bft) N 360 0 min 0,0 UV-I 0 W/m 2,9 C 5,9 C 3,2 km/h (1 Bft)
04.05.2022 01:16 5,6 C 2,8 C 81 % 1019,2 hPa 0,0 l/m 1,6 km/h (1 Bft) N 360 0 min 0,0 UV-I 0 W/m 2,6 C 5,6 C 3,2 km/h (1 Bft)
04.05.2022 01:17 5,4 C 2,8 C 82 % 1019,1 hPa 0,0 l/m 1,6 km/h (1 Bft) N 360 0 min 0,0 UV-I 0 W/m 2,6 C 5,4 C 4,8 km/h (1 Bft)
04.05.2022 01:18 5,4 C 2,8 C 83 % 1019,1 hPa 0,0 l/m 3,2 km/h (1 Bft) N 360 0 min 0,0 UV-I 0 W/m 2,7 C 5,4 C 4,8 km/h (1 Bft)
04.05.2022 01:19 5,6 C 2,8 C 84 % 1019,1 hPa 0,0 l/m 4,8 km/h (1 Bft) N 360 0 min 0,0 UV-I 0 W/m 3,1 C 5,6 C 4,8 km/h (1 Bft)
04.05.2022 01:20 5,8 C 2,8 C 86 % 1019,2 hPa 0,0 l/m 4,8 km/h (1 Bft) N 360 0 min 0,0 UV-I 0 W/m 3,6 C 5,8 C 6,4 km/h (2 Bft)
04.05.2022 01:21 5,9 C 2,8 C 86 % 1019,3 hPa 0,0 l/m 4,8 km/h (1 Bft) N-NW 337 0 min 0,0 UV-I 0 W/m 3,7 C 5,9 C 4,8 km/h (1 Bft)
04.05.2022 01:22 6,2 C 2,8 C 86 % 1019,2 hPa 0,0 l/m 4,8 km/h (1 Bft) N-NW 337 0 min 0,0 UV-I 0 W/m 4,0 C 6,2 C 6,4 km/h (2 Bft)
04.05.2022 01:23 6,3 C 2,8 C 86 % 1019,2 hPa 0,0 l/m 3,2 km/h (1 Bft) N-NW 337 0 min 0,0 UV-I 0 W/m 4,1 C 6,3 C 4,8 km/h (1 Bft)
04.05.2022 01:24 6,3 C 2,8 C 85 % 1019,2 hPa 0,0 l/m 3,2 km/h (1 Bft) N-NW 337 0 min 0,0 UV-I 0 W/m 4,0 C 6,3 C 3,2 km/h (1 Bft)
04.05.2022 01:25 5,9 C 2,8 C 83 % 1019,3 hPa 0,0 l/m 1,6 km/h (1 Bft) N-NW 337 0 min 0,0 UV-I 0 W/m 3,2 C 5,9 C 1,6 km/h (1 Bft)
04.05.2022 01:26 5,7 C 2,8 C 82 % 1019,2 hPa 0,0 l/m 1,6 km/h (1 Bft) N-NW 337 0 min 0,0 UV-I 0 W/m 2,9 C 5,7 C 3,2 km/h (1 Bft)
04.05.2022 01:27 5,5 C 2,8 C 83 % 1019,2 hPa 0,0 l/m 1,6 km/h (1 Bft) N-NW 337 0 min 0,0 UV-I 0 W/m 2,8 C 5,5 C 1,6 km/h (1 Bft)
04.05.2022 01:28 5,4 C 2,2 C 83 % 1019,3 hPa 0,0 l/m 1,6 km/h (1 Bft) N-NW 337 0 min 0,0 UV-I 0 W/m 2,7 C 5,4 C 3,2 km/h (1 Bft)
04.05.2022 01:29 5,3 C 2,2 C 84 % 1019,2 hPa 0,0 l/m 1,6 km/h (1 Bft) N-NW 337 0 min 0,0 UV-I 0 W/m 2,8 C 5,3 C 3,2 km/h (1 Bft)
04.05.2022 01:30 5,3 C 2,8 C 84 % 1019,2 hPa 0,0 l/m 0,0 km/h (0 Bft) N-NW 337 0 min 0,0 UV-I 0 W/m 2,8 C 5,3 C 3,2 km/h (1 Bft)
04.05.2022 01:31 5,3 C 2,8 C 85 % 1019,2 hPa 0,0 l/m 0,0 km/h (0 Bft) N-NW 337 0 min 0,0 UV-I 0 W/m 3,0 C 5,3 C 1,6 km/h (1 Bft)
04.05.2022 01:32 5,2 C 2,2 C 85 % 1019,3 hPa 0,0 l/m 0,0 km/h (0 Bft) N 0 0 min 0,0 UV-I 0 W/m 2,9 C 5,2 C 0,0 km/h (0 Bft)
04.05.2022 01:33 5,2 C 2,2 C 85 % 1019,3 hPa 0,0 l/m 0,0 km/h (0 Bft) N 0 0 min 0,0 UV-I 0 W/m 2,9 C 5,2 C 0,0 km/h (0 Bft)
04.05.2022 01:34 5,0 C 2,2 C 85 % 1019,3 hPa 0,0 l/m 0,0 km/h (0 Bft) N 0 0 min 0,0 UV-I 0 W/m 2,7 C 5,0 C 0,0 km/h (0 Bft)
04.05.2022 01:35 4,9 C 2,2 C 85 % 1019,3 hPa 0,0 l/m 0,0 km/h (0 Bft) N 0 0 min 0,0 UV-I 0 W/m 2,6 C 4,9 C 0,0 km/h (0 Bft)
04.05.2022 01:36 4,7 C 1,7 C 85 % 1019,3 hPa 0,0 l/m 0,0 km/h (0 Bft) N 0 0 min 0,0 UV-I 0 W/m 2,4 C 4,7 C 0,0 km/h (0 Bft)
04.05.2022 01:37 4,6 C 1,7 C 85 % 1019,2 hPa 0,0 l/m 0,0 km/h (0 Bft) N 0 0 min 0,0 UV-I 0 W/m 2,3 C 4,6 C 0,0 km/h (0 Bft)
04.05.2022 01:38 4,5 C 2,2 C 86 % 1019,3 hPa 0,0 l/m 0,0 km/h (0 Bft) N 0 0 min 0,0 UV-I 0 W/m 2,4 C 4,5 C 0,0 km/h (0 Bft)
04.05.2022 01:39 4,4 C 2,2 C 86 % 1019,2 hPa 0,0 l/m 0,0 km/h (0 Bft) N 0 0 min 0,0 UV-I 0 W/m 2,3 C 4,4 C 0,0 km/h (0 Bft)
04.05.2022 01:40 4,4 C 2,2 C 86 % 1019,2 hPa 0,0 l/m 0,0 km/h (0 Bft) N-NW 337 0 min 0,0 UV-I 0 W/m 2,3 C 4,4 C 1,6 km/h (1 Bft)
04.05.2022 01:41 4,4 C 2,2 C 86 % 1019,3 hPa 0,0 l/m 0,0 km/h (0 Bft) N-NW 337 0 min 0,0 UV-I 0 W/m 2,3 C 4,4 C 1,6 km/h (1 Bft)
04.05.2022 01:42 4,6 C 2,2 C 87 % 1019,2 hPa 0,0 l/m 0,0 km/h (0 Bft) N 0 0 min 0,0 UV-I 0 W/m 2,6 C 4,6 C 0,0 km/h (0 Bft)
04.05.2022 01:43 4,6 C 2,2 C 87 % 1019,3 hPa 0,0 l/m 0,0 km/h (0 Bft) N-NW 337 0 min 0,0 UV-I 0 W/m 2,6 C 4,6 C 1,6 km/h (1 Bft)
04.05.2022 01:44 4,5 C 1,7 C 87 % 1019,2 hPa 0,0 l/m 0,0 km/h (0 Bft) N 0 0 min 0,0 UV-I 0 W/m 2,5 C 4,5 C 0,0 km/h (0 Bft)
04.05.2022 01:45 4,4 C 1,7 C 87 % 1019,2 hPa 0,0 l/m 0,0 km/h (0 Bft) N 0 0 min 0,0 UV-I 0 W/m 2,4 C 4,4 C 0,0 km/h (0 Bft)
04.05.2022 01:46 4,3 C 1,7 C 87 % 1019,2 hPa 0,0 l/m 0,0 km/h (0 Bft) N 0 0 min 0,0 UV-I 0 W/m 2,3 C 4,3 C 0,0 km/h (0 Bft)
04.05.2022 01:47 4,3 C 1,7 C 86 % 1019,2 hPa 0,0 l/m 0,0 km/h (0 Bft) N-NW 337 0 min 0,0 UV-I 0 W/m 2,2 C 4,3 C 1,6 km/h (1 Bft)
04.05.2022 01:48 4,2 C 1,7 C 86 % 1019,2 hPa 0,0 l/m 0,0 km/h (0 Bft) N-NW 337 0 min 0,0 UV-I 0 W/m 2,1 C 4,2 C 1,6 km/h (1 Bft)
04.05.2022 01:49 4,2 C 2,2 C 87 % 1019,2 hPa 0,0 l/m 0,0 km/h (0 Bft) N-NW 337 0 min 0,0 UV-I 0 W/m 2,2 C 4,2 C 1,6 km/h (1 Bft)
04.05.2022 01:50 4,3 C 2,2 C 88 % 1019,2 hPa 0,0 l/m 0,0 km/h (0 Bft) N-NW 337 0 min 0,0 UV-I 0 W/m 2,5 C 4,3 C 1,6 km/h (1 Bft)
04.05.2022 01:51 4,4 C 2,2 C 88 % 1019,1 hPa 0,0 l/m 0,0 km/h (0 Bft) N 0 0 min 0,0 UV-I 0 W/m 2,6 C 4,4 C 0,0 km/h (0 Bft)
04.05.2022 01:52 4,6 C 2,2 C 88 % 1019,2 hPa 0,0 l/m 0,0 km/h (0 Bft) N 0 0 min 0,0 UV-I 0 W/m 2,8 C 4,6 C 0,0 km/h (0 Bft)
04.05.2022 01:53 4,5 C 2,2 C 88 % 1019,2 hPa 0,0 l/m 0,0 km/h (0 Bft) N 0 0 min 0,0 UV-I 0 W/m 2,7 C 4,5 C 0,0 km/h (0 Bft)
04.05.2022 01:54 4,6 C 2,2 C 88 % 1019,2 hPa 0,0 l/m 0,0 km/h (0 Bft) N 0 0 min 0,0 UV-I 0 W/m 2,8 C 4,6 C 0,0 km/h (0 Bft)
04.05.2022 01:55 4,7 C 2,2 C 88 % 1019,2 hPa 0,0 l/m 0,0 km/h (0 Bft) N 0 0 min 0,0 UV-I 0 W/m 2,9 C 4,7 C 0,0 km/h (0 Bft)
04.05.2022 01:56 4,8 C 2,2 C 89 % 1019,2 hPa 0,0 l/m 0,0 km/h (0 Bft) N 0 0 min 0,0 UV-I 0 W/m 3,1 C 4,8 C 0,0 km/h (0 Bft)
04.05.2022 01:57 4,9 C 2,2 C 89 % 1019,1 hPa 0,0 l/m 0,0 km/h (0 Bft) N 0 0 min 0,0 UV-I 0 W/m 3,2 C 4,9 C 0,0 km/h (0 Bft)
04.05.2022 01:58 5,1 C 2,2 C 89 % 1019,2 hPa 0,0 l/m 0,0 km/h (0 Bft) N 0 0 min 0,0 UV-I 0 W/m 3,4 C 5,1 C 0,0 km/h (0 Bft)
04.05.2022 01:59 5,1 C 2,2 C 88 % 1019,1 hPa 0,0 l/m 0,0 km/h (0 Bft) N 0 0 min 0,0 UV-I 0 W/m 3,3 C 5,1 C 0,0 km/h (0 Bft)
04.05.2022 02:00 5,2 C 2,2 C 88 % 1019,1 hPa 0,0 l/m 0,0 km/h (0 Bft) N 0 0 min 0,0 UV-I 0 W/m 3,4 C 5,2 C 0,0 km/h (0 Bft)
04.05.2022 02:01 5,1 C 2,8 C 88 % 1019,1 hPa 0,0 l/m 0,0 km/h (0 Bft) N 0 0 min 0,0 UV-I 0 W/m 3,3 C 5,1 C 0,0 km/h (0 Bft)
04.05.2022 02:02 5,1 C 2,2 C 88 % 1019,2 hPa 0,0 l/m 0,0 km/h (0 Bft) N 0 0 min 0,0 UV-I 0 W/m 3,3 C 5,1 C 0,0 km/h (0 Bft)
04.05.2022 02:03 5,0 C 2,2 C 88 % 1019,1 hPa 0,0 l/m 0,0 km/h (0 Bft) N 0 0 min 0,0 UV-I 0 W/m 3,2 C 5,0 C 0,0 km/h (0 Bft)
04.05.2022 02:04 4,9 C 2,2 C 87 % 1019,1 hPa 0,0 l/m 0,0 km/h (0 Bft) N 0 0 min 0,0 UV-I 0 W/m 2,9 C 4,9 C 0,0 km/h (0 Bft)
04.05.2022 02:05 4,8 C 2,2 C 87 % 1019,1 hPa 0,0 l/m 0,0 km/h (0 Bft) N 0 0 min 0,0 UV-I 0 W/m 2,8 C 4,8 C 0,0 km/h (0 Bft)
04.05.2022 02:06 4,8 C 2,2 C 88 % 1019,2 hPa 0,0 l/m 0,0 km/h (0 Bft) N 0 0 min 0,0 UV-I 0 W/m 3,0 C 4,8 C 0,0 km/h (0 Bft)
04.05.2022 02:07 4,8 C 2,2 C 88 % 1019,2 hPa 0,0 l/m 0,0 km/h (0 Bft) N 0 0 min 0,0 UV-I 0 W/m 3,0 C 4,8 C 0,0 km/h (0 Bft)
04.05.2022 02:08 4,7 C 2,2 C 88 % 1019,1 hPa 0,0 l/m 0,0 km/h (0 Bft) N 0 0 min 0,0 UV-I 0 W/m 2,9 C 4,7 C 0,0 km/h (0 Bft)
04.05.2022 02:09 4,6 C 2,2 C 88 % 1019,1 hPa 0,0 l/m 0,0 km/h (0 Bft) N 0 0 min 0,0 UV-I 0 W/m 2,8 C 4,6 C 0,0 km/h (0 Bft)
04.05.2022 02:10 4,6 C 2,2 C 87 % 1019,1 hPa 0,0 l/m 0,0 km/h (0 Bft) N 0 0 min 0,0 UV-I 0 W/m 2,6 C 4,6 C 0,0 km/h (0 Bft)
04.05.2022 02:11 4,6 C 2,2 C 87 % 1019,1 hPa 0,0 l/m 0,0 km/h (0 Bft) N 0 0 min 0,0 UV-I 0 W/m 2,6 C 4,6 C 0,0 km/h (0 Bft)
04.05.2022 02:12 4,5 C 1,7 C 88 % 1019,1 hPa 0,0 l/m 0,0 km/h (0 Bft) N 0 0 min 0,0 UV-I 0 W/m 2,7 C 4,5 C 0,0 km/h (0 Bft)
04.05.2022 02:13 4,5 C 1,7 C 88 % 1019,1 hPa 0,0 l/m 0,0 km/h (0 Bft) N 0 0 min 0,0 UV-I 0 W/m 2,7 C 4,5 C 0,0 km/h (0 Bft)
04.05.2022 02:14 4,6 C 2,2 C 88 % 1019,1 hPa 0,0 l/m 0,0 km/h (0 Bft) N 0 0 min 0,0 UV-I 0 W/m 2,8 C 4,6 C 0,0 km/h (0 Bft)
04.05.2022 02:15 4,5 C 2,2 C 88 % 1019,1 hPa 0,0 l/m 0,0 km/h (0 Bft) N 0 0 min 0,0 UV-I 0 W/m 2,7 C 4,5 C 0,0 km/h (0 Bft)
04.05.2022 02:16 4,6 C 2,2 C 88 % 1019,1 hPa 0,0 l/m 0,0 km/h (0 Bft) N 0 0 min 0,0 UV-I 0 W/m 2,8 C 4,6 C 0,0 km/h (0 Bft)
04.05.2022 02:17 4,6 C 2,2 C 88 % 1019,0 hPa 0,0 l/m 0,0 km/h (0 Bft) N 0 0 min 0,0 UV-I 0 W/m 2,8 C 4,6 C 0,0 km/h (0 Bft)
04.05.2022 02:18 4,7 C 2,2 C 89 % 1018,9 hPa 0,0 l/m 0,0 km/h (0 Bft) N 0 0 min 0,0 UV-I 0 W/m 3,0 C 4,7 C 0,0 km/h (0 Bft)
04.05.2022 02:19 4,8 C 2,2 C 89 % 1018,9 hPa 0,0 l/m 0,0 km/h (0 Bft) N 0 0 min 0,0 UV-I 0 W/m 3,1 C 4,8 C 0,0 km/h (0 Bft)
04.05.2022 02:20 4,8 C 2,2 C 89 % 1019,0 hPa 0,0 l/m 0,0 km/h (0 Bft) N 0 0 min 0,0 UV-I 0 W/m 3,1 C 4,8 C 0,0 km/h (0 Bft)
04.05.2022 02:21 4,8 C 2,2 C 89 % 1018,9 hPa 0,0 l/m 0,0 km/h (0 Bft) N 0 0 min 0,0 UV-I 0 W/m 3,1 C 4,8 C 0,0 km/h (0 Bft)
04.05.2022 02:22 4,7 C 2,2 C 88 % 1018,9 hPa 0,0 l/m 0,0 km/h (0 Bft) N 0 0 min 0,0 UV-I 0 W/m 2,9 C 4,7 C 0,0 km/h (0 Bft)
04.05.2022 02:23 4,5 C 2,2 C 87 % 1018,9 hPa 0,0 l/m 0,0 km/h (0 Bft) N 0 0 min 0,0 UV-I 0 W/m 2,5 C 4,5 C 0,0 km/h (0 Bft)
04.05.2022 02:24 4,3 C 1,7 C 87 % 1019,0 hPa 0,0 l/m 0,0 km/h (0 Bft) N 0 0 min 0,0 UV-I 0 W/m 2,3 C 4,3 C 0,0 km/h (0 Bft)
04.05.2022 02:25 4,2 C 2,2 C 87 % 1019,0 hPa 0,0 l/m 0,0 km/h (0 Bft) N 0 0 min 0,0 UV-I 0 W/m 2,2 C 4,2 C 0,0 km/h (0 Bft)
04.05.2022 02:26 4,2 C 2,2 C 88 % 1019,0 hPa 0,0 l/m 0,0 km/h (0 Bft) N 0 0 min 0,0 UV-I 0 W/m 2,4 C 4,2 C 0,0 km/h (0 Bft)
04.05.2022 02:27 4,2 C 2,2 C 88 % 1019,0 hPa 0,0 l/m 0,0 km/h (0 Bft) N 0 0 min 0,0 UV-I 0 W/m 2,4 C 4,2 C 0,0 km/h (0 Bft)
04.05.2022 02:28 4,1 C 2,2 C 88 % 1019,0 hPa 0,0 l/m 0,0 km/h (0 Bft) N 0 0 min 0,0 UV-I 0 W/m 2,3 C 4,1 C 0,0 km/h (0 Bft)
04.05.2022 02:29 4,2 C 1,7 C 88 % 1019,0 hPa 0,0 l/m 0,0 km/h (0 Bft) N 0 0 min 0,0 UV-I 0 W/m 2,4 C 4,2 C 0,0 km/h (0 Bft)
04.05.2022 02:30 4,2 C 1,7 C 88 % 1019,0 hPa 0,0 l/m 0,0 km/h (0 Bft) N 0 0 min 0,0 UV-I 0 W/m 2,4 C 4,2 C 0,0 km/h (0 Bft)
04.05.2022 02:31 4,2 C 1,7 C 89 % 1019,0 hPa 0,0 l/m 0,0 km/h (0 Bft) N 0 0 min 0,0 UV-I 0 W/m 2,6 C 4,2 C 0,0 km/h (0 Bft)
04.05.2022 02:32 4,3 C 1,7 C 89 % 1018,9 hPa 0,0 l/m 0,0 km/h (0 Bft) N 0 0 min 0,0 UV-I 0 W/m 2,7 C 4,3 C 0,0 km/h (0 Bft)
04.05.2022 02:33 4,3 C 2,2 C 89 % 1018,9 hPa 0,0 l/m 0,0 km/h (0 Bft) N 0 0 min 0,0 UV-I 0 W/m 2,7 C 4,3 C 0,0 km/h (0 Bft)
04.05.2022 02:34 4,3 C 2,2 C 89 % 1018,9 hPa 0,0 l/m 0,0 km/h (0 Bft) N 0 0 min 0,0 UV-I 0 W/m 2,7 C 4,3 C 0,0 km/h (0 Bft)
04.05.2022 02:35 4,2 C 2,2 C 88 % 1018,8 hPa 0,0 l/m 0,0 km/h (0 Bft) N 0 0 min 0,0 UV-I 0 W/m 2,4 C 4,2 C 0,0 km/h (0 Bft)
04.05.2022 02:36 4,2 C 2,2 C 88 % 1019,0 hPa 0,0 l/m 0,0 km/h (0 Bft) N 0 0 min 0,0 UV-I 0 W/m 2,4 C 4,2 C 0,0 km/h (0 Bft)
04.05.2022 02:37 4,2 C 2,2 C 88 % 1019,0 hPa 0,0 l/m 0,0 km/h (0 Bft) N 0 0 min 0,0 UV-I 0 W/m 2,4 C 4,2 C 0,0 km/h (0 Bft)
04.05.2022 02:38 4,2 C 1,7 C 88 % 1018,9 hPa 0,0 l/m 0,0 km/h (0 Bft) N 0 0 min 0,0 UV-I 0 W/m 2,4 C 4,2 C 0,0 km/h (0 Bft)
04.05.2022 02:39 4,2 C 1,7 C 88 % 1018,9 hPa 0,0 l/m 0,0 km/h (0 Bft) N 0 0 min 0,0 UV-I 0 W/m 2,4 C 4,2 C 0,0 km/h (0 Bft)
04.05.2022 02:40 4,2 C 1,7 C 88 % 1019,0 hPa 0,0 l/m 0,0 km/h (0 Bft) N 0 0 min 0,0 UV-I 0 W/m 2,4 C 4,2 C 0,0 km/h (0 Bft)
04.05.2022 02:41 4,2 C 1,7 C 89 % 1019,0 hPa 0,0 l/m 0,0 km/h (0 Bft) N 0 0 min 0,0 UV-I 0 W/m 2,6 C 4,2 C 0,0 km/h (0 Bft)
04.05.2022 02:42 4,1 C 1,7 C 88 % 1018,9 hPa 0,0 l/m 0,0 km/h (0 Bft) N 0 0 min 0,0 UV-I 0 W/m 2,3 C 4,1 C 0,0 km/h (0 Bft)
04.05.2022 02:43 4,0 C 2,2 C 88 % 1019,1 hPa 0,0 l/m 0,0 km/h (0 Bft) N 0 0 min 0,0 UV-I 0 W/m 2,2 C 4,0 C 0,0 km/h (0 Bft)
04.05.2022 02:44 3,9 C 2,2 C 88 % 1019,0 hPa 0,0 l/m 0,0 km/h (0 Bft) N 0 0 min 0,0 UV-I 0 W/m 2,1 C 3,9 C 0,0 km/h (0 Bft)
04.05.2022 02:45 4,0 C 2,2 C 89 % 1019,0 hPa 0,0 l/m 0,0 km/h (0 Bft) N 0 0 min 0,0 UV-I 0 W/m 2,4 C 4,0 C 0,0 km/h (0 Bft)
04.05.2022 02:46 4,1 C 2,2 C 89 % 1019,1 hPa 0,0 l/m 0,0 km/h (0 Bft) N 0 0 min 0,0 UV-I 0 W/m 2,5 C 4,1 C 0,0 km/h (0 Bft)
04.05.2022 02:47 4,2 C 2,2 C 89 % 1019,0 hPa 0,0 l/m 0,0 km/h (0 Bft) N 0 0 min 0,0 UV-I 0 W/m 2,6 C 4,2 C 0,0 km/h (0 Bft)
04.05.2022 02:48 4,1 C 2,2 C 88 % 1019,0 hPa 0,0 l/m 0,0 km/h (0 Bft) N 0 0 min 0,0 UV-I 0 W/m 2,3 C 4,1 C 0,0 km/h (0 Bft)
04.05.2022 02:49 4,0 C 1,7 C 88 % 1019,1 hPa 0,0 l/m 0,0 km/h (0 Bft) N 0 0 min 0,0 UV-I 0 W/m 2,2 C 4,0 C 0,0 km/h (0 Bft)
04.05.2022 02:50 3,9 C 1,7 C 88 % 1019,1 hPa 0,0 l/m 0,0 km/h (0 Bft) N 0 0 min 0,0 UV-I 0 W/m 2,1 C 3,9 C 0,0 km/h (0 Bft)
04.05.2022 02:51 3,9 C 1,7 C 88 % 1019,0 hPa 0,0 l/m 0,0 km/h (0 Bft) N 0 0 min 0,0 UV-I 0 W/m 2,1 C 3,9 C 0,0 km/h (0 Bft)
04.05.2022 02:52 3,8 C 1,7 C 89 % 1019,1 hPa 0,0 l/m 0,0 km/h (0 Bft) N 0 0 min 0,0 UV-I 0 W/m 2,2 C 3,8 C 0,0 km/h (0 Bft)
04.05.2022 02:53 3,8 C 1,7 C 89 % 1019,0 hPa 0,0 l/m 0,0 km/h (0 Bft) N-NW 337 0 min 0,0 UV-I 0 W/m 2,2 C 3,8 C 1,6 km/h (1 Bft)
04.05.2022 02:54 3,7 C 1,7 C 88 % 1019,1 hPa 0,0 l/m 0,0 km/h (0 Bft) N-NW 337 0 min 0,0 UV-I 0 W/m 1,9 C 3,7 C 1,6 km/h (1 Bft)
04.05.2022 02:55 3,7 C 1,7 C 89 % 1019,0 hPa 0,0 l/m 1,6 km/h (1 Bft) N-NW 337 0 min 0,0 UV-I 0 W/m 2,1 C 3,7 C 3,2 km/h (1 Bft)
04.05.2022 02:56 3,7 C 1,7 C 89 % 1019,1 hPa 0,0 l/m 1,6 km/h (1 Bft) N-NW 337 0 min 0,0 UV-I 0 W/m 2,1 C 3,7 C 3,2 km/h (1 Bft)
04.05.2022 02:57 3,7 C 1,1 C 89 % 1019,1 hPa 0,0 l/m 1,6 km/h (1 Bft) N-NW 337 0 min 0,0 UV-I 0 W/m 2,1 C 3,7 C 1,6 km/h (1 Bft)
04.05.2022 02:58 3,7 C 1,1 C 89 % 1019,1 hPa 0,0 l/m 0,0 km/h (0 Bft) N-NW 337 0 min 0,0 UV-I 0 W/m 2,1 C 3,7 C 1,6 km/h (1 Bft)
04.05.2022 02:59 3,7 C 1,1 C 89 % 1019,1 hPa 0,0 l/m 1,6 km/h (1 Bft) N-NW 337 0 min 0,0 UV-I 0 W/m 2,1 C 3,7 C 1,6 km/h (1 Bft)
04.05.2022 03:00 3,7 C 1,1 C 89 % 1019,0 hPa 0,0 l/m 0,0 km/h (0 Bft) N 0 0 min 0,0 UV-I 0 W/m 2,1 C 3,7 C 0,0 km/h (0 Bft)
04.05.2022 03:01 3,7 C 1,1 C 89 % 1019,0 hPa 0,0 l/m 0,0 km/h (0 Bft) N 0 0 min 0,0 UV-I 0 W/m 2,1 C 3,7 C 0,0 km/h (0 Bft)
04.05.2022 03:02 3,7 C 1,1 C 89 % 1019,1 hPa 0,0 l/m 0,0 km/h (0 Bft) N 0 0 min 0,0 UV-I 0 W/m 2,1 C 3,7 C 0,0 km/h (0 Bft)
04.05.2022 03:03 3,7 C 1,1 C 89 % 1019,1 hPa 0,0 l/m 0,0 km/h (0 Bft) N 0 0 min 0,0 UV-I 0 W/m 2,1 C 3,7 C 0,0 km/h (0 Bft)
04.05.2022 03:04 3,6 C 1,1 C 89 % 1019,0 hPa 0,0 l/m 0,0 km/h (0 Bft) N 0 0 min 0,0 UV-I 0 W/m 2,0 C 3,6 C 0,0 km/h (0 Bft)
04.05.2022 03:05 3,6 C 1,1 C 89 % 1019,0 hPa 0,0 l/m 0,0 km/h (0 Bft) N 0 0 min 0,0 UV-I 0 W/m 2,0 C 3,6 C 0,0 km/h (0 Bft)
04.05.2022 03:06 3,6 C 1,1 C 89 % 1018,9 hPa 0,0 l/m 0,0 km/h (0 Bft) N 0 0 min 0,0 UV-I 0 W/m 2,0 C 3,6 C 0,0 km/h (0 Bft)
04.05.2022 03:07 3,5 C 1,1 C 89 % 1019,0 hPa 0,0 l/m 0,0 km/h (0 Bft) N 0 0 min 0,0 UV-I 0 W/m 1,9 C 3,5 C 0,0 km/h (0 Bft)
04.05.2022 03:08 3,4 C 1,1 C 89 % 1019,0 hPa 0,0 l/m 0,0 km/h (0 Bft) N 0 0 min 0,0 UV-I 0 W/m 1,8 C 3,4 C 0,0 km/h (0 Bft)
04.05.2022 03:09 3,4 C 1,1 C 89 % 1019,1 hPa 0,0 l/m 0,0 km/h (0 Bft) N 0 0 min 0,0 UV-I 0 W/m 1,8 C 3,4 C 0,0 km/h (0 Bft)
04.05.2022 03:10 3,4 C 1,1 C 89 % 1019,1 hPa 0,0 l/m 0,0 km/h (0 Bft) N 0 0 min 0,0 UV-I 0 W/m 1,8 C 3,4 C 0,0 km/h (0 Bft)
04.05.2022 03:11 3,4 C 1,7 C 89 % 1019,1 hPa 0,0 l/m 0,0 km/h (0 Bft) N 0 0 min 0,0 UV-I 0 W/m 1,8 C 3,4 C 0,0 km/h (0 Bft)
04.05.2022 03:12 3,4 C 1,1 C 89 % 1019,0 hPa 0,0 l/m 0,0 km/h (0 Bft) N 0 0 min 0,0 UV-I 0 W/m 1,8 C 3,4 C 0,0 km/h (0 Bft)
04.05.2022 03:13 3,4 C 1,1 C 90 % 1019,0 hPa 0,0 l/m 0,0 km/h (0 Bft) N 0 0 min 0,0 UV-I 0 W/m 1,9 C 3,4 C 0,0 km/h (0 Bft)
04.05.2022 03:14 3,4 C 1,1 C 90 % 1019,0 hPa 0,0 l/m 0,0 km/h (0 Bft) N 0 0 min 0,0 UV-I 0 W/m 1,9 C 3,4 C 0,0 km/h (0 Bft)
04.05.2022 03:15 3,4 C 1,1 C 90 % 1019,0 hPa 0,0 l/m 0,0 km/h (0 Bft) N 0 0 min 0,0 UV-I 0 W/m 1,9 C 3,4 C 0,0 km/h (0 Bft)
04.05.2022 03:16 3,4 C 1,1 C 90 % 1018,9 hPa 0,0 l/m 0,0 km/h (0 Bft) N 0 0 min 0,0 UV-I 0 W/m 1,9 C 3,4 C 0,0 km/h (0 Bft)
04.05.2022 03:17 3,4 C 1,7 C 89 % 1019,0 hPa 0,0 l/m 0,0 km/h (0 Bft) N 0 0 min 0,0 UV-I 0 W/m 1,8 C 3,4 C 0,0 km/h (0 Bft)
04.05.2022 03:18 3,4 C 1,7 C 89 % 1018,9 hPa 0,0 l/m 0,0 km/h (0 Bft) N 0 0 min 0,0 UV-I 0 W/m 1,8 C 3,4 C 0,0 km/h (0 Bft)
04.05.2022 03:19 3,4 C 1,7 C 90 % 1018,9 hPa 0,0 l/m 0,0 km/h (0 Bft) N 0 0 min 0,0 UV-I 0 W/m 1,9 C 3,4 C 0,0 km/h (0 Bft)
04.05.2022 03:20 3,4 C 1,7 C 89 % 1019,0 hPa 0,0 l/m 0,0 km/h (0 Bft) N 0 0 min 0,0 UV-I 0 W/m 1,8 C 3,4 C 0,0 km/h (0 Bft)
04.05.2022 03:21 3,4 C 1,7 C 89 % 1018,9 hPa 0,0 l/m 0,0 km/h (0 Bft) N 0 0 min 0,0 UV-I 0 W/m 1,8 C 3,4 C 0,0 km/h (0 Bft)
04.05.2022 03:22 3,5 C 1,7 C 90 % 1018,9 hPa 0,0 l/m 0,0 km/h (0 Bft) N 0 0 min 0,0 UV-I 0 W/m 2,0 C 3,5 C 0,0 km/h (0 Bft)
04.05.2022 03:23 3,5 C 1,7 C 90 % 1018,9 hPa 0,0 l/m 0,0 km/h (0 Bft) N 0 0 min 0,0 UV-I 0 W/m 2,0 C 3,5 C 0,0 km/h (0 Bft)
04.05.2022 03:24 3,4 C 1,7 C 90 % 1019,0 hPa 0,0 l/m 0,0 km/h (0 Bft) N 0 0 min 0,0 UV-I 0 W/m 1,9 C 3,4 C 0,0 km/h (0 Bft)
04.05.2022 03:25 3,4 C 1,7 C 89 % 1018,9 hPa 0,0 l/m 0,0 km/h (0 Bft) N 0 0 min 0,0 UV-I 0 W/m 1,8 C 3,4 C 0,0 km/h (0 Bft)
04.05.2022 03:26 3,4 C 1,7 C 89 % 1018,9 hPa 0,0 l/m 0,0 km/h (0 Bft) N 0 0 min 0,0 UV-I 0 W/m 1,8 C 3,4 C 0,0 km/h (0 Bft)
04.05.2022 03:27 3,4 C 1,7 C 90 % 1018,9 hPa 0,0 l/m 0,0 km/h (0 Bft) N 0 0 min 0,0 UV-I 0 W/m 1,9 C 3,4 C 0,0 km/h (0 Bft)
04.05.2022 03:28 3,4 C 1,7 C 90 % 1018,9 hPa 0,0 l/m 0,0 km/h (0 Bft) N 0 0 min 0,0 UV-I 0 W/m 1,9 C 3,4 C 0,0 km/h (0 Bft)
04.05.2022 03:29 3,6 C 1,7 C 90 % 1019,0 hPa 0,0 l/m 0,0 km/h (0 Bft) N-NW 337 0 min 0,0 UV-I 0 W/m 2,1 C 3,6 C 1,6 km/h (1 Bft)
04.05.2022 03:30 3,7 C 1,7 C 90 % 1019,0 hPa 0,0 l/m 1,6 km/h (1 Bft) N-NW 337 0 min 0,0 UV-I 0 W/m 2,2 C 3,7 C 3,2 km/h (1 Bft)
04.05.2022 03:31 3,7 C 1,7 C 90 % 1019,0 hPa 0,0 l/m 3,2 km/h (1 Bft) N-NW 337 0 min 0,0 UV-I 0 W/m 2,2 C 3,7 C 3,2 km/h (1 Bft)
04.05.2022 03:32 3,8 C 1,7 C 90 % 1019,1 hPa 0,0 l/m 1,6 km/h (1 Bft) N-NW 337 0 min 0,0 UV-I 0 W/m 2,3 C 3,8 C 3,2 km/h (1 Bft)
04.05.2022 03:33 3,8 C 1,7 C 90 % 1019,0 hPa 0,0 l/m 1,6 km/h (1 Bft) N-NW 337 0 min 0,0 UV-I 0 W/m 2,3 C 3,8 C 1,6 km/h (1 Bft)
04.05.2022 03:34 3,9 C 2,2 C 90 % 1019,0 hPa 0,0 l/m 1,6 km/h (1 Bft) N-NW 337 0 min 0,0 UV-I 0 W/m 2,4 C 3,9 C 1,6 km/h (1 Bft)
04.05.2022 03:35 4,1 C 2,2 C 90 % 1019,0 hPa 0,0 l/m 0,0 km/h (0 Bft) N-NW 337 0 min 0,0 UV-I 0 W/m 2,6 C 4,1 C 1,6 km/h (1 Bft)
04.05.2022 03:36 4,1 C 2,2 C 90 % 1019,1 hPa 0,0 l/m 0,0 km/h (0 Bft) N-NW 337 0 min 0,0 UV-I 0 W/m 2,6 C 4,1 C 1,6 km/h (1 Bft)
04.05.2022 03:37 4,1 C 2,2 C 90 % 1019,1 hPa 0,0 l/m 0,0 km/h (0 Bft) N 0 0 min 0,0 UV-I 0 W/m 2,6 C 4,1 C 0,0 km/h (0 Bft)
04.05.2022 03:38 3,9 C 1,7 C 90 % 1019,0 hPa 0,0 l/m 0,0 km/h (0 Bft) N 0 0 min 0,0 UV-I 0 W/m 2,4 C 3,9 C 0,0 km/h (0 Bft)
04.05.2022 03:39 3,8 C 1,7 C 90 % 1019,0 hPa 0,0 l/m 0,0 km/h (0 Bft) N 0 0 min 0,0 UV-I 0 W/m 2,3 C 3,8 C 0,0 km/h (0 Bft)
04.05.2022 03:40 3,7 C 1,7 C 90 % 1019,1 hPa 0,0 l/m 0,0 km/h (0 Bft) N 0 0 min 0,0 UV-I 0 W/m 2,2 C 3,7 C 0,0 km/h (0 Bft)
04.05.2022 03:41 3,6 C 1,7 C 89 % 1019,1 hPa 0,0 l/m 1,6 km/h (1 Bft) N-NW 337 0 min 0,0 UV-I 0 W/m 2,0 C 3,6 C 3,2 km/h (1 Bft)
04.05.2022 03:42 3,4 C 1,7 C 89 % 1019,1 hPa 0,0 l/m 1,6 km/h (1 Bft) N-NW 337 0 min 0,0 UV-I 0 W/m 1,8 C 3,4 C 3,2 km/h (1 Bft)
04.05.2022 03:43 3,3 C 1,7 C 89 % 1019,0 hPa 0,0 l/m 1,6 km/h (1 Bft) N-NW 337 0 min 0,0 UV-I 0 W/m 1,7 C 3,3 C 1,6 km/h (1 Bft)
04.05.2022 03:44 3,2 C 1,7 C 89 % 1019,0 hPa 0,0 l/m 0,0 km/h (0 Bft) N-NW 337 0 min 0,0 UV-I 0 W/m 1,6 C 3,2 C 1,6 km/h (1 Bft)
04.05.2022 03:45 3,1 C 1,7 C 89 % 1019,0 hPa 0,0 l/m 0,0 km/h (0 Bft) N-NW 337 0 min 0,0 UV-I 0 W/m 1,5 C 3,1 C 1,6 km/h (1 Bft)
04.05.2022 03:46 2,9 C 1,7 C 89 % 1018,9 hPa 0,0 l/m 1,6 km/h (1 Bft) N-NW 337 0 min 0,0 UV-I 0 W/m 1,3 C 2,9 C 3,2 km/h (1 Bft)
04.05.2022 03:47 2,9 C 1,7 C 89 % 1019,0 hPa 0,0 l/m 1,6 km/h (1 Bft) N-NW 337 0 min 0,0 UV-I 0 W/m 1,3 C 2,9 C 3,2 km/h (1 Bft)
04.05.2022 03:48 2,8 C 1,7 C 89 % 1018,9 hPa 0,0 l/m 1,6 km/h (1 Bft) N-NW 337 0 min 0,0 UV-I 0 W/m 1,2 C 2,8 C 3,2 km/h (1 Bft)
04.05.2022 03:49 2,8 C 1,7 C 90 % 1018,9 hPa 0,0 l/m 1,6 km/h (1 Bft) N-NW 337 0 min 0,0 UV-I 0 W/m 1,3 C 2,8 C 1,6 km/h (1 Bft)
04.05.2022 03:50 2,8 C 1,7 C 90 % 1018,9 hPa 0,0 l/m 0,0 km/h (0 Bft) N-NW 337 0 min 0,0 UV-I 0 W/m 1,3 C 2,8 C 1,6 km/h (1 Bft)
04.05.2022 03:51 2,9 C 1,7 C 90 % 1018,9 hPa 0,0 l/m 0,0 km/h (0 Bft) N 0 0 min 0,0 UV-I 0 W/m 1,4 C 2,9 C 0,0 km/h (0 Bft)
04.05.2022 03:52 2,9 C 1,7 C 90 % 1018,9 hPa 0,0 l/m 0,0 km/h (0 Bft) N 0 0 min 0,0 UV-I 0 W/m 1,4 C 2,9 C 0,0 km/h (0 Bft)
04.05.2022 03:53 3,1 C 1,7 C 90 % 1019,0 hPa 0,0 l/m 0,0 km/h (0 Bft) N 0 0 min 0,0 UV-I 0 W/m 1,6 C 3,1 C 0,0 km/h (0 Bft)
04.05.2022 03:54 3,2 C 1,7 C 91 % 1018,9 hPa 0,0 l/m 0,0 km/h (0 Bft) N 0 0 min 0,0 UV-I 0 W/m 1,9 C 3,2 C 0,0 km/h (0 Bft)
04.05.2022 03:55 3,3 C 1,7 C 91 % 1018,9 hPa 0,0 l/m 0,0 km/h (0 Bft) N 0 0 min 0,0 UV-I 0 W/m 2,0 C 3,3 C 0,0 km/h (0 Bft)
04.05.2022 03:56 3,4 C 1,7 C 91 % 1018,9 hPa 0,0 l/m 0,0 km/h (0 Bft) N 0 0 min 0,0 UV-I 0 W/m 2,1 C 3,4 C 0,0 km/h (0 Bft)
04.05.2022 03:57 3,4 C 1,7 C 91 % 1018,9 hPa 0,0 l/m 0,0 km/h (0 Bft) N 0 0 min 0,0 UV-I 0 W/m 2,1 C 3,4 C 0,0 km/h (0 Bft)
04.05.2022 03:58 3,4 C 1,7 C 90 % 1018,9 hPa 0,0 l/m 0,0 km/h (0 Bft) N 0 0 min 0,0 UV-I 0 W/m 1,9 C 3,4 C 0,0 km/h (0 Bft)
04.05.2022 03:59 3,5 C 1,7 C 91 % 1018,9 hPa 0,0 l/m 0,0 km/h (0 Bft) N 0 0 min 0,0 UV-I 0 W/m 2,2 C 3,5 C 0,0 km/h (0 Bft)
04.05.2022 04:00 3,6 C 1,7 C 91 % 1018,9 hPa 0,0 l/m 0,0 km/h (0 Bft) N-NW 337 0 min 0,0 UV-I 0 W/m 2,3 C 3,6 C 1,6 km/h (1 Bft)
04.05.2022 04:01 3,7 C 1,7 C 91 % 1018,9 hPa 0,0 l/m 0,0 km/h (0 Bft) N-NW 337 0 min 0,0 UV-I 0 W/m 2,4 C 3,7 C 1,6 km/h (1 Bft)
04.05.2022 04:02 3,7 C 1,7 C 91 % 1018,9 hPa 0,0 l/m 1,6 km/h (1 Bft) N-NW 337 0 min 0,0 UV-I 0 W/m 2,4 C 3,7 C 1,6 km/h (1 Bft)
04.05.2022 04:03 3,8 C 2,2 C 91 % 1019,0 hPa 0,0 l/m 1,6 km/h (1 Bft) N-NW 337 0 min 0,0 UV-I 0 W/m 2,5 C 3,8 C 1,6 km/h (1 Bft)
04.05.2022 04:04 3,8 C 2,2 C 90 % 1018,9 hPa 0,0 l/m 1,6 km/h (1 Bft) N-NW 337 0 min 0,0 UV-I 0 W/m 2,3 C 3,8 C 3,2 km/h (1 Bft)
04.05.2022 04:05 3,8 C 2,2 C 91 % 1018,9 hPa 0,0 l/m 1,6 km/h (1 Bft) N-NW 337 0 min 0,0 UV-I 0 W/m 2,5 C 3,8 C 3,2 km/h (1 Bft)
04.05.2022 04:06 3,8 C 2,2 C 91 % 1018,9 hPa 0,0 l/m 0,0 km/h (0 Bft) N-NW 337 0 min 0,0 UV-I 0 W/m 2,5 C 3,8 C 1,6 km/h (1 Bft)
04.05.2022 04:07 3,8 C 2,2 C 91 % 1018,9 hPa 0,0 l/m 1,6 km/h (1 Bft) N-NW 337 0 min 0,0 UV-I 0 W/m 2,5 C 3,8 C 1,6 km/h (1 Bft)
04.05.2022 04:08 3,8 C 2,2 C 91 % 1018,9 hPa 0,0 l/m 1,6 km/h (1 Bft) N-NW 337 0 min 0,0 UV-I 0 W/m 2,5 C 3,8 C 3,2 km/h (1 Bft)
04.05.2022 04:09 3,9 C 2,2 C 91 % 1018,9 hPa 0,0 l/m 1,6 km/h (1 Bft) N-NW 337 0 min 0,0 UV-I 0 W/m 2,6 C 3,9 C 1,6 km/h (1 Bft)
04.05.2022 04:10 3,9 C 2,2 C 91 % 1018,9 hPa 0,0 l/m 0,0 km/h (0 Bft) N-NW 337 0 min 0,0 UV-I 0 W/m 2,6 C 3,9 C 1,6 km/h (1 Bft)
04.05.2022 04:11 3,8 C 2,2 C 90 % 1018,9 hPa 0,0 l/m 0,0 km/h (0 Bft) N 0 0 min 0,0 UV-I 0 W/m 2,3 C 3,8 C 0,0 km/h (0 Bft)
04.05.2022 04:12 3,7 C 2,2 C 90 % 1019,0 hPa 0,0 l/m 0,0 km/h (0 Bft) N 0 0 min 0,0 UV-I 0 W/m 2,2 C 3,7 C 0,0 km/h (0 Bft)
04.05.2022 04:13 3,5 C 2,2 C 90 % 1019,0 hPa 0,0 l/m 0,0 km/h (0 Bft) N 0 0 min 0,0 UV-I 0 W/m 2,0 C 3,5 C 0,0 km/h (0 Bft)
04.05.2022 04:14 3,3 C 2,2 C 90 % 1019,0 hPa 0,0 l/m 0,0 km/h (0 Bft) N 0 0 min 0,0 UV-I 0 W/m 1,8 C 3,3 C 0,0 km/h (0 Bft)
04.05.2022 04:15 3,3 C 2,2 C 90 % 1019,0 hPa 0,0 l/m 0,0 km/h (0 Bft) N 0 0 min 0,0 UV-I 0 W/m 1,8 C 3,3 C 0,0 km/h (0 Bft)
04.05.2022 04:16 3,2 C 2,2 C 90 % 1018,9 hPa 0,0 l/m 0,0 km/h (0 Bft) N-NW 337 0 min 0,0 UV-I 0 W/m 1,7 C 3,2 C 1,6 km/h (1 Bft)
04.05.2022 04:17 3,2 C 2,2 C 90 % 1019,0 hPa 0,0 l/m 0,0 km/h (0 Bft) N 0 0 min 0,0 UV-I 0 W/m 1,7 C 3,2 C 0,0 km/h (0 Bft)
04.05.2022 04:18 3,2 C 2,2 C 90 % 1019,0 hPa 0,0 l/m 0,0 km/h (0 Bft) N 0 0 min 0,0 UV-I 0 W/m 1,7 C 3,2 C 0,0 km/h (0 Bft)
04.05.2022 04:19 3,2 C 2,2 C 90 % 1019,0 hPa 0,0 l/m 0,0 km/h (0 Bft) N 0 0 min 0,0 UV-I 0 W/m 1,7 C 3,2 C 0,0 km/h (0 Bft)
04.05.2022 04:20 3,2 C 2,2 C 90 % 1019,0 hPa 0,0 l/m 0,0 km/h (0 Bft) N 0 0 min 0,0 UV-I 0 W/m 1,7 C 3,2 C 0,0 km/h (0 Bft)
04.05.2022 04:21 3,2 C 2,2 C 90 % 1019,0 hPa 0,0 l/m 0,0 km/h (0 Bft) N 0 0 min 0,0 UV-I 0 W/m 1,7 C 3,2 C 0,0 km/h (0 Bft)
04.05.2022 04:22 3,2 C 2,2 C 90 % 1019,1 hPa 0,0 l/m 0,0 km/h (0 Bft) N 0 0 min 0,0 UV-I 0 W/m 1,7 C 3,2 C 0,0 km/h (0 Bft)
04.05.2022 04:23 3,1 C 2,2 C 90 % 1019,0 hPa 0,0 l/m 0,0 km/h (0 Bft) N 0 0 min 0,0 UV-I 0 W/m 1,6 C 3,1 C 0,0 km/h (0 Bft)
04.05.2022 04:24 3,1 C 2,2 C 90 % 1019,1 hPa 0,0 l/m 0,0 km/h (0 Bft) N 0 0 min 0,0 UV-I 0 W/m 1,6 C 3,1 C 0,0 km/h (0 Bft)
04.05.2022 04:25 3,1 C 2,2 C 90 % 1019,0 hPa 0,0 l/m 0,0 km/h (0 Bft) N 0 0 min 0,0 UV-I 0 W/m 1,6 C 3,1 C 0,0 km/h (0 Bft)
04.05.2022 04:26 3,2 C 2,2 C 91 % 1019,0 hPa 0,0 l/m 0,0 km/h (0 Bft) N 0 0 min 0,0 UV-I 0 W/m 1,9 C 3,2 C 0,0 km/h (0 Bft)
04.05.2022 04:27 3,1 C 2,2 C 91 % 1019,1 hPa 0,0 l/m 0,0 km/h (0 Bft) N 0 0 min 0,0 UV-I 0 W/m 1,8 C 3,1 C 0,0 km/h (0 Bft)
04.05.2022 04:28 3,1 C 2,8 C 91 % 1019,1 hPa 0,0 l/m 0,0 km/h (0 Bft) N 0 0 min 0,0 UV-I 0 W/m 1,8 C 3,1 C 0,0 km/h (0 Bft)
04.05.2022 04:29 3,2 C 2,8 C 90 % 1019,0 hPa 0,0 l/m 0,0 km/h (0 Bft) N 0 0 min 0,0 UV-I 0 W/m 1,7 C 3,2 C 0,0 km/h (0 Bft)
04.05.2022 04:30 3,2 C 2,8 C 90 % 1019,0 hPa 0,0 l/m 0,0 km/h (0 Bft) N 0 0 min 0,0 UV-I 0 W/m 1,7 C 3,2 C 0,0 km/h (0 Bft)
04.05.2022 04:31 3,2 C 2,8 C 90 % 1019,0 hPa 0,0 l/m 0,0 km/h (0 Bft) N 0 0 min 0,0 UV-I 0 W/m 1,7 C 3,2 C 0,0 km/h (0 Bft)
04.05.2022 04:32 3,2 C 2,8 C 91 % 1018,9 hPa 0,0 l/m 0,0 km/h (0 Bft) N 0 0 min 0,0 UV-I 0 W/m 1,9 C 3,2 C 0,0 km/h (0 Bft)
04.05.2022 04:33 3,2 C 2,8 C 91 % 1019,0 hPa 0,0 l/m 0,0 km/h (0 Bft) N 0 0 min 0,0 UV-I 0 W/m 1,9 C 3,2 C 0,0 km/h (0 Bft)
04.05.2022 04:34 3,3 C 2,8 C 91 % 1019,0 hPa 0,0 l/m 0,0 km/h (0 Bft) N 0 0 min 0,0 UV-I 0 W/m 2,0 C 3,3 C 0,0 km/h (0 Bft)
04.05.2022 04:35 3,4 C 2,8 C 91 % 1019,0 hPa 0,0 l/m 0,0 km/h (0 Bft) N 0 0 min 0,0 UV-I 0 W/m 2,1 C 3,4 C 0,0 km/h (0 Bft)
04.05.2022 04:36 3,4 C 2,8 C 91 % 1018,9 hPa 0,0 l/m 0,0 km/h (0 Bft) N 0 0 min 0,0 UV-I 0 W/m 2,1 C 3,4 C 0,0 km/h (0 Bft)
04.05.2022 04:37 3,7 C 2,8 C 91 % 1019,0 hPa 0,0 l/m 0,0 km/h (0 Bft) N 0 0 min 0,0 UV-I 0 W/m 2,4 C 3,7 C 0,0 km/h (0 Bft)
04.05.2022 04:38 3,8 C 2,8 C 91 % 1019,0 hPa 0,0 l/m 0,0 km/h (0 Bft) N 0 0 min 0,0 UV-I 0 W/m 2,5 C 3,8 C 0,0 km/h (0 Bft)
04.05.2022 04:39 3,8 C 2,8 C 91 % 1019,0 hPa 0,0 l/m 0,0 km/h (0 Bft) N 0 0 min 0,0 UV-I 0 W/m 2,5 C 3,8 C 0,0 km/h (0 Bft)
04.05.2022 04:40 4,0 C 3,3 C 91 % 1018,9 hPa 0,0 l/m 0,0 km/h (0 Bft) N-NW 337 0 min 0,0 UV-I 0 W/m 2,7 C 4,0 C 1,6 km/h (1 Bft)
04.05.2022 04:41 4,1 C 3,3 C 91 % 1019,0 hPa 0,0 l/m 0,0 km/h (0 Bft) N 0 0 min 0,0 UV-I 0 W/m 2,8 C 4,1 C 0,0 km/h (0 Bft)
04.05.2022 04:42 4,2 C 3,3 C 91 % 1019,0 hPa 0,0 l/m 0,0 km/h (0 Bft) N 0 0 min 0,0 UV-I 0 W/m 2,9 C 4,2 C 0,0 km/h (0 Bft)
04.05.2022 04:43 4,2 C 3,3 C 91 % 1018,9 hPa 0,0 l/m 0,0 km/h (0 Bft) N 0 0 min 0,0 UV-I 0 W/m 2,9 C 4,2 C 0,0 km/h (0 Bft)
04.05.2022 04:44 4,3 C 3,3 C 91 % 1019,0 hPa 0,0 l/m 0,0 km/h (0 Bft) N 0 0 min 0,0 UV-I 0 W/m 3,0 C 4,3 C 0,0 km/h (0 Bft)
04.05.2022 04:45 4,4 C 3,3 C 91 % 1018,9 hPa 0,0 l/m 0,0 km/h (0 Bft) N 0 0 min 0,0 UV-I 0 W/m 3,1 C 4,4 C 0,0 km/h (0 Bft)
04.05.2022 04:46 4,4 C 3,3 C 91 % 1019,0 hPa 0,0 l/m 0,0 km/h (0 Bft) N 0 0 min 0,0 UV-I 0 W/m 3,1 C 4,4 C 0,0 km/h (0 Bft)
04.05.2022 04:47 4,5 C 3,3 C 91 % 1018,9 hPa 0,0 l/m 0,0 km/h (0 Bft) N 0 0 min 0,0 UV-I 0 W/m 3,2 C 4,5 C 0,0 km/h (0 Bft)
04.05.2022 04:48 4,4 C 3,3 C 91 % 1018,8 hPa 0,0 l/m 0,0 km/h (0 Bft) N 0 0 min 0,0 UV-I 0 W/m 3,1 C 4,4 C 0,0 km/h (0 Bft)
04.05.2022 04:49 4,3 C 3,3 C 91 % 1018,9 hPa 0,0 l/m 0,0 km/h (0 Bft) N 0 0 min 0,0 UV-I 0 W/m 3,0 C 4,3 C 0,0 km/h (0 Bft)
04.05.2022 04:50 4,2 C 3,3 C 90 % 1018,8 hPa 0,0 l/m 0,0 km/h (0 Bft) N 0 0 min 0,0 UV-I 0 W/m 2,7 C 4,2 C 0,0 km/h (0 Bft)
04.05.2022 04:51 4,1 C 3,3 C 90 % 1018,8 hPa 0,0 l/m 0,0 km/h (0 Bft) N 0 0 min 0,0 UV-I 0 W/m 2,6 C 4,1 C 0,0 km/h (0 Bft)
04.05.2022 04:52 4,1 C 3,3 C 91 % 1018,8 hPa 0,0 l/m 0,0 km/h (0 Bft) N 0 0 min 0,0 UV-I 0 W/m 2,8 C 4,1 C 0,0 km/h (0 Bft)
04.05.2022 04:53 4,1 C 3,3 C 91 % 1018,9 hPa 0,0 l/m 0,0 km/h (0 Bft) N 0 0 min 0,0 UV-I 0 W/m 2,8 C 4,1 C 0,0 km/h (0 Bft)
04.05.2022 04:54 4,0 C 3,3 C 90 % 1018,8 hPa 0,0 l/m 0,0 km/h (0 Bft) N 0 0 min 0,0 UV-I 0 W/m 2,5 C 4,0 C 0,0 km/h (0 Bft)
04.05.2022 04:55 3,9 C 2,8 C 90 % 1018,8 hPa 0,0 l/m 0,0 km/h (0 Bft) N 0 0 min 0,0 UV-I 0 W/m 2,4 C 3,9 C 0,0 km/h (0 Bft)
04.05.2022 04:56 3,9 C 3,3 C 90 % 1018,8 hPa 0,0 l/m 0,0 km/h (0 Bft) N 0 0 min 0,0 UV-I 0 W/m 2,4 C 3,9 C 0,0 km/h (0 Bft)
04.05.2022 04:57 3,9 C 3,3 C 91 % 1018,8 hPa 0,0 l/m 0,0 km/h (0 Bft) N 0 0 min 0,0 UV-I 0 W/m 2,6 C 3,9 C 0,0 km/h (0 Bft)
04.05.2022 04:58 3,9 C 3,3 C 91 % 1018,9 hPa 0,0 l/m 0,0 km/h (0 Bft) N 0 0 min 0,0 UV-I 0 W/m 2,6 C 3,9 C 0,0 km/h (0 Bft)
04.05.2022 04:59 4,1 C 3,3 C 91 % 1018,7 hPa 0,0 l/m 0,0 km/h (0 Bft) N 0 0 min 0,0 UV-I 0 W/m 2,8 C 4,1 C 0,0 km/h (0 Bft)
04.05.2022 05:00 4,1 C 3,3 C 91 % 1018,8 hPa 0,0 l/m 0,0 km/h (0 Bft) N-NW 337 0 min 0,0 UV-I 0 W/m 2,8 C 4,1 C 1,6 km/h (1 Bft)
04.05.2022 05:01 4,2 C 3,3 C 91 % 1018,9 hPa 0,0 l/m 1,6 km/h (1 Bft) N-NW 337 0 min 0,0 UV-I 0 W/m 2,9 C 4,2 C 3,2 km/h (1 Bft)
04.05.2022 05:02 4,2 C 3,3 C 91 % 1018,9 hPa 0,0 l/m 3,2 km/h (1 Bft) N-NW 337 0 min 0,0 UV-I 0 W/m 2,9 C 4,2 C 3,2 km/h (1 Bft)
04.05.2022 05:03 4,3 C 3,3 C 91 % 1018,9 hPa 0,0 l/m 1,6 km/h (1 Bft) N-NW 337 0 min 0,0 UV-I 0 W/m 3,0 C 4,3 C 3,2 km/h (1 Bft)
04.05.2022 05:04 4,3 C 3,3 C 91 % 1018,9 hPa 0,0 l/m 1,6 km/h (1 Bft) N-NW 337 0 min 0,0 UV-I 0 W/m 3,0 C 4,3 C 3,2 km/h (1 Bft)
04.05.2022 05:05 4,4 C 3,9 C 91 % 1018,8 hPa 0,0 l/m 1,6 km/h (1 Bft) N-NW 337 0 min 0,0 UV-I 0 W/m 3,1 C 4,4 C 3,2 km/h (1 Bft)
04.05.2022 05:06 4,5 C 3,9 C 91 % 1018,8 hPa 0,0 l/m 1,6 km/h (1 Bft) N-NW 337 0 min 0,0 UV-I 0 W/m 3,2 C 4,5 C 3,2 km/h (1 Bft)
04.05.2022 05:07 4,6 C 3,9 C 91 % 1018,8 hPa 0,0 l/m 1,6 km/h (1 Bft) N-NW 337 0 min 0,0 UV-I 0 W/m 3,3 C 4,6 C 1,6 km/h (1 Bft)
04.05.2022 05:08 4,7 C 3,9 C 91 % 1018,8 hPa 0,0 l/m 0,0 km/h (0 Bft) N-NW 337 0 min 0,0 UV-I 0 W/m 3,4 C 4,7 C 1,6 km/h (1 Bft)
04.05.2022 05:09 4,7 C 3,9 C 91 % 1018,8 hPa 0,0 l/m 0,0 km/h (0 Bft) N 0 0 min 0,0 UV-I 0 W/m 3,4 C 4,7 C 0,0 km/h (0 Bft)
04.05.2022 05:10 4,6 C 3,9 C 91 % 1018,8 hPa 0,0 l/m 0,0 km/h (0 Bft) N 0 0 min 0,0 UV-I 0 W/m 3,3 C 4,6 C 0,0 km/h (0 Bft)
04.05.2022 05:11 4,6 C 4,4 C 91 % 1018,8 hPa 0,0 l/m 0,0 km/h (0 Bft) N 0 0 min 0,0 UV-I 0 W/m 3,3 C 4,6 C 0,0 km/h (0 Bft)
04.05.2022 05:12 4,5 C 4,4 C 91 % 1018,8 hPa 0,0 l/m 0,0 km/h (0 Bft) N 0 0 min 0,0 UV-I 0 W/m 3,2 C 4,5 C 0,0 km/h (0 Bft)
04.05.2022 05:13 4,4 C 3,9 C 91 % 1018,8 hPa 0,0 l/m 0,0 km/h (0 Bft) N 0 0 min 0,0 UV-I 0 W/m 3,1 C 4,4 C 0,0 km/h (0 Bft)
04.05.2022 05:14 4,3 C 3,9 C 90 % 1018,8 hPa 0,0 l/m 0,0 km/h (0 Bft) N-NW 337 0 min 0,0 UV-I 0 W/m 2,8 C 4,3 C 1,6 km/h (1 Bft)
04.05.2022 05:15 4,2 C 3,9 C 90 % 1018,9 hPa 0,0 l/m 1,6 km/h (1 Bft) N-NW 337 0 min 0,0 UV-I 0 W/m 2,7 C 4,2 C 1,6 km/h (1 Bft)
04.05.2022 05:16 4,2 C 3,9 C 90 % 1018,8 hPa 0,0 l/m 1,6 km/h (1 Bft) N-NW 337 0 min 0,0 UV-I 0 W/m 2,7 C 4,2 C 3,2 km/h (1 Bft)
04.05.2022 05:17 4,1 C 3,9 C 90 % 1018,9 hPa 0,0 l/m 0,0 km/h (0 Bft) N-NW 337 0 min 0,0 UV-I 0 W/m 2,6 C 4,1 C 1,6 km/h (1 Bft)
04.05.2022 05:18 4,0 C 3,9 C 90 % 1018,8 hPa 0,0 l/m 0,0 km/h (0 Bft) N-NW 337 0 min 0,0 UV-I 0 W/m 2,5 C 4,0 C 1,6 km/h (1 Bft)
04.05.2022 05:19 4,0 C 3,9 C 90 % 1018,8 hPa 0,0 l/m 0,0 km/h (0 Bft) N 0 0 min 0,0 UV-I 0 W/m 2,5 C 4,0 C 0,0 km/h (0 Bft)
04.05.2022 05:20 3,9 C 3,9 C 90 % 1018,7 hPa 0,0 l/m 0,0 km/h (0 Bft) N 0 0 min 0,0 UV-I 0 W/m 2,4 C 3,9 C 0,0 km/h (0 Bft)
04.05.2022 05:21 3,9 C 3,9 C 90 % 1018,8 hPa 0,0 l/m 0,0 km/h (0 Bft) N 0 0 min 0,0 UV-I 0 W/m 2,4 C 3,9 C 0,0 km/h (0 Bft)
04.05.2022 05:22 4,0 C 3,9 C 91 % 1018,7 hPa 0,0 l/m 0,0 km/h (0 Bft) N 0 0 min 0,0 UV-I 0 W/m 2,7 C 4,0 C 0,0 km/h (0 Bft)
04.05.2022 05:23 4,1 C 3,9 C 91 % 1018,7 hPa 0,0 l/m 0,0 km/h (0 Bft) N 0 0 min 0,0 UV-I 0 W/m 2,8 C 4,1 C 0,0 km/h (0 Bft)
04.05.2022 05:24 4,1 C 3,9 C 91 % 1018,8 hPa 0,0 l/m 0,0 km/h (0 Bft) N 0 0 min 0,0 UV-I 0 W/m 2,8 C 4,1 C 0,0 km/h (0 Bft)
04.05.2022 05:25 4,1 C 4,4 C 91 % 1018,7 hPa 0,0 l/m 0,0 km/h (0 Bft) N 0 0 min 0,0 UV-I 0 W/m 2,8 C 4,1 C 0,0 km/h (0 Bft)
04.05.2022 05:26 4,1 C 4,4 C 91 % 1018,8 hPa 0,0 l/m 0,0 km/h (0 Bft) N 0 0 min 0,0 UV-I 0 W/m 2,8 C 4,1 C 0,0 km/h (0 Bft)
04.05.2022 05:27 4,2 C 4,4 C 91 % 1018,7 hPa 0,0 l/m 0,0 km/h (0 Bft) N 0 0 min 0,0 UV-I 0 W/m 2,9 C 4,2 C 0,0 km/h (0 Bft)
04.05.2022 05:28 4,2 C 4,4 C 91 % 1018,7 hPa 0,0 l/m 1,6 km/h (1 Bft) N-NW 337 0 min 0,0 UV-I 0 W/m 2,9 C 4,2 C 1,6 km/h (1 Bft)
04.05.2022 05:29 4,3 C 4,4 C 91 % 1018,7 hPa 0,0 l/m 1,6 km/h (1 Bft) N-NW 337 0 min 0,0 UV-I 0 W/m 3,0 C 4,3 C 3,2 km/h (1 Bft)
04.05.2022 05:30 4,3 C 4,4 C 91 % 1018,8 hPa 0,0 l/m 1,6 km/h (1 Bft) N-NW 337 0 min 0,0 UV-I 0 W/m 3,0 C 4,3 C 1,6 km/h (1 Bft)
04.05.2022 05:31 4,4 C 4,4 C 91 % 1018,7 hPa 0,0 l/m 1,6 km/h (1 Bft) N-NW 337 0 min 0,0 UV-I 0 W/m 3,1 C 4,4 C 1,6 km/h (1 Bft)
04.05.2022 05:32 4,5 C 4,4 C 91 % 1018,7 hPa 0,0 l/m 1,6 km/h (1 Bft) N-NW 337 0 min 0,0 UV-I 0 W/m 3,2 C 4,5 C 1,6 km/h (1 Bft)
04.05.2022 05:33 4,6 C 4,4 C 91 % 1018,7 hPa 0,0 l/m 0,0 km/h (0 Bft) N-NW 337 0 min 0,0 UV-I 0 W/m 3,3 C 4,6 C 1,6 km/h (1 Bft)
04.05.2022 05:34 4,7 C 4,4 C 91 % 1018,8 hPa 0,0 l/m 0,0 km/h (0 Bft) N-NW 337 0 min 0,0 UV-I 0 W/m 3,4 C 4,7 C 1,6 km/h (1 Bft)
04.05.2022 05:35 4,8 C 4,4 C 91 % 1018,7 hPa 0,0 l/m 1,6 km/h (1 Bft) N-NW 337 0 min 0,0 UV-I 0 W/m 3,5 C 4,8 C 1,6 km/h (1 Bft)
04.05.2022 05:36 4,9 C 4,4 C 91 % 1018,7 hPa 0,0 l/m 0,0 km/h (0 Bft) N-NW 337 0 min 0,0 UV-I 0 W/m 3,6 C 4,9 C 1,6 km/h (1 Bft)
04.05.2022 05:37 4,9 C 4,4 C 91 % 1018,7 hPa 0,0 l/m 0,0 km/h (0 Bft) N-NW 337 0 min 0,0 UV-I 0 W/m 3,6 C 4,9 C 1,6 km/h (1 Bft)
04.05.2022 05:38 5,0 C 4,4 C 91 % 1018,8 hPa 0,0 l/m 0,0 km/h (0 Bft) N 0 0 min 0,0 UV-I 0 W/m 3,7 C 5,0 C 0,0 km/h (0 Bft)
04.05.2022 05:39 5,1 C 4,4 C 91 % 1018,7 hPa 0,0 l/m 0,0 km/h (0 Bft) N 0 0 min 0,0 UV-I 0 W/m 3,8 C 5,1 C 0,0 km/h (0 Bft)
04.05.2022 05:40 5,2 C 4,4 C 91 % 1018,7 hPa 0,0 l/m 0,0 km/h (0 Bft) N 0 0 min 0,0 UV-I 0 W/m 3,9 C 5,2 C 0,0 km/h (0 Bft)
04.05.2022 05:41 5,2 C 4,4 C 91 % 1018,7 hPa 0,0 l/m 0,0 km/h (0 Bft) N 0 0 min 0,0 UV-I 0 W/m 3,9 C 5,2 C 0,0 km/h (0 Bft)
04.05.2022 05:42 5,2 C 4,4 C 91 % 1018,6 hPa 0,0 l/m 0,0 km/h (0 Bft) N 0 0 min 0,0 UV-I 0 W/m 3,9 C 5,2 C 0,0 km/h (0 Bft)
04.05.2022 05:43 5,3 C 4,4 C 91 % 1018,7 hPa 0,0 l/m 0,0 km/h (0 Bft) N 0 0 min 0,0 UV-I 0 W/m 4,0 C 5,3 C 0,0 km/h (0 Bft)
04.05.2022 05:44 5,3 C 4,4 C 91 % 1018,7 hPa 0,0 l/m 0,0 km/h (0 Bft) N 0 0 min 0,0 UV-I 0 W/m 4,0 C 5,3 C 0,0 km/h (0 Bft)
04.05.2022 05:45 5,4 C 5,0 C 91 % 1018,7 hPa 0,0 l/m 0,0 km/h (0 Bft) N 0 0 min 0,0 UV-I 0 W/m 4,1 C 5,4 C 0,0 km/h (0 Bft)
04.05.2022 05:46 5,4 C 5,0 C 91 % 1018,7 hPa 0,0 l/m 0,0 km/h (0 Bft) N 0 0 min 0,0 UV-I 0 W/m 4,1 C 5,4 C 0,0 km/h (0 Bft)
04.05.2022 05:47 5,4 C 5,0 C 91 % 1018,7 hPa 0,0 l/m 0,0 km/h (0 Bft) N 0 0 min 0,0 UV-I 0 W/m 4,1 C 5,4 C 0,0 km/h (0 Bft)
04.05.2022 05:48 5,5 C 5,0 C 91 % 1018,6 hPa 0,0 l/m 0,0 km/h (0 Bft) N 0 0 min 0,0 UV-I 0 W/m 4,2 C 5,5 C 0,0 km/h (0 Bft)
04.05.2022 05:49 5,6 C 5,0 C 91 % 1018,7 hPa 0,0 l/m 0,0 km/h (0 Bft) N 0 0 min 0,0 UV-I 0 W/m 4,2 C 5,6 C 0,0 km/h (0 Bft)
04.05.2022 05:50 5,4 C 5,0 C 91 % 1018,7 hPa 0,0 l/m 0,0 km/h (0 Bft) N 0 0 min 0,0 UV-I 0 W/m 4,1 C 5,4 C 0,0 km/h (0 Bft)
04.05.2022 05:51 5,3 C 5,0 C 90 % 1018,6 hPa 0,0 l/m 0,0 km/h (0 Bft) N 0 0 min 0,0 UV-I 0 W/m 3,8 C 5,3 C 0,0 km/h (0 Bft)
04.05.2022 05:52 5,2 C 5,0 C 90 % 1018,7 hPa 0,0 l/m 0,0 km/h (0 Bft) N 0 0 min 0,0 UV-I 0 W/m 3,7 C 5,2 C 0,0 km/h (0 Bft)
04.05.2022 05:53 5,2 C 5,0 C 90 % 1018,7 hPa 0,0 l/m 0,0 km/h (0 Bft) N 0 0 min 0,0 UV-I 0 W/m 3,7 C 5,2 C 0,0 km/h (0 Bft)
04.05.2022 05:54 5,2 C 5,0 C 91 % 1018,6 hPa 0,0 l/m 0,0 km/h (0 Bft) N 0 0 min 0,0 UV-I 0 W/m 3,9 C 5,2 C 0,0 km/h (0 Bft)
04.05.2022 05:55 5,1 C 5,0 C 91 % 1018,7 hPa 0,0 l/m 0,0 km/h (0 Bft) N 0 0 min 0,0 UV-I 0 W/m 3,8 C 5,1 C 0,0 km/h (0 Bft)
04.05.2022 05:56 5,1 C 5,0 C 90 % 1018,7 hPa 0,0 l/m 0,0 km/h (0 Bft) N 0 0 min 0,0 UV-I 0 W/m 3,6 C 5,1 C 0,0 km/h (0 Bft)
04.05.2022 05:57 5,1 C 5,0 C 90 % 1018,7 hPa 0,0 l/m 0,0 km/h (0 Bft) N 0 0 min 0,0 UV-I 0 W/m 3,6 C 5,1 C 0,0 km/h (0 Bft)
04.05.2022 05:58 5,1 C 4,4 C 91 % 1018,6 hPa 0,0 l/m 0,0 km/h (0 Bft) N 0 0 min 0,0 UV-I 0 W/m 3,8 C 5,1 C 0,0 km/h (0 Bft)
04.05.2022 05:59 5,1 C 4,4 C 91 % 1018,7 hPa 0,0 l/m 0,0 km/h (0 Bft) N 0 0 min 0,0 UV-I 0 W/m 3,8 C 5,1 C 0,0 km/h (0 Bft)
04.05.2022 06:00 5,1 C 4,4 C 91 % 1018,7 hPa 0,0 l/m 0,0 km/h (0 Bft) N 0 0 min 0,0 UV-I 0 W/m 3,8 C 5,1 C 0,0 km/h (0 Bft)
04.05.2022 06:01 5,1 C 4,4 C 91 % 1018,7 hPa 0,0 l/m 0,0 km/h (0 Bft) N 0 0 min 0,0 UV-I 0 W/m 3,8 C 5,1 C 0,0 km/h (0 Bft)
04.05.2022 06:02 5,2 C 4,4 C 91 % 1018,7 hPa 0,0 l/m 0,0 km/h (0 Bft) N-NW 337 0 min 0,0 UV-I 0 W/m 3,9 C 5,2 C 1,6 km/h (1 Bft)
04.05.2022 06:03 5,2 C 4,4 C 91 % 1018,6 hPa 0,0 l/m 1,6 km/h (1 Bft) N-NW 337 0 min 0,0 UV-I 0 W/m 3,9 C 5,2 C 3,2 km/h (1 Bft)
04.05.2022 06:04 5,2 C 4,4 C 91 % 1018,8 hPa 0,0 l/m 3,2 km/h (1 Bft) N-NW 337 0 min 0,0 UV-I 0 W/m 3,9 C 5,2 C 3,2 km/h (1 Bft)
04.05.2022 06:05 5,3 C 4,4 C 91 % 1018,7 hPa 0,0 l/m 1,6 km/h (1 Bft) N-NW 337 0 min 0,0 UV-I 0 W/m 4,0 C 5,3 C 3,2 km/h (1 Bft)
04.05.2022 06:06 5,3 C 4,4 C 91 % 1018,7 hPa 0,0 l/m 1,6 km/h (1 Bft) N-NW 337 0 min 0,0 UV-I 0 W/m 4,0 C 5,3 C 3,2 km/h (1 Bft)
04.05.2022 06:07 5,2 C 4,4 C 91 % 1018,8 hPa 0,0 l/m 1,6 km/h (1 Bft) N-NW 337 0 min 0,0 UV-I 0 W/m 3,9 C 5,2 C 1,6 km/h (1 Bft)
04.05.2022 06:08 5,2 C 4,4 C 91 % 1018,7 hPa 0,0 l/m 0,0 km/h (0 Bft) N 0 0 min 0,0 UV-I 0 W/m 3,9 C 5,2 C 0,0 km/h (0 Bft)
04.05.2022 06:09 5,2 C 4,4 C 91 % 1018,7 hPa 0,0 l/m 0,0 km/h (0 Bft) N 0 0 min 0,0 UV-I 0 W/m 3,9 C 5,2 C 0,0 km/h (0 Bft)
04.05.2022 06:10 5,1 C 4,4 C 91 % 1018,7 hPa 0,0 l/m 0,0 km/h (0 Bft) N 0 0 min 0,0 UV-I 0 W/m 3,8 C 5,1 C 0,0 km/h (0 Bft)
04.05.2022 06:11 5,2 C 4,4 C 91 % 1018,7 hPa 0,0 l/m 0,0 km/h (0 Bft) N-NW 337 0 min 0,0 UV-I 0 W/m 3,9 C 5,2 C 1,6 km/h (1 Bft)
04.05.2022 06:12 5,2 C 4,4 C 91 % 1018,7 hPa 0,0 l/m 0,0 km/h (0 Bft) N-NW 337 0 min 0,0 UV-I 0 W/m 3,9 C 5,2 C 1,6 km/h (1 Bft)
04.05.2022 06:13 5,2 C 4,4 C 91 % 1018,7 hPa 0,0 l/m 0,0 km/h (0 Bft) N 0 0 min 0,0 UV-I 0 W/m 3,9 C 5,2 C 0,0 km/h (0 Bft)
04.05.2022 06:14 5,2 C 4,4 C 91 % 1018,8 hPa 0,0 l/m 0,0 km/h (0 Bft) N 0 0 min 0,0 UV-I 0 W/m 3,9 C 5,2 C 0,0 km/h (0 Bft)
04.05.2022 06:15 5,1 C 4,4 C 91 % 1018,8 hPa 0,0 l/m 0,0 km/h (0 Bft) N 0 0 min 0,0 UV-I 5 W/m 3,8 C 5,1 C 0,0 km/h (0 Bft)
04.05.2022 06:16 5,1 C 4,4 C 91 % 1018,7 hPa 0,0 l/m 0,0 km/h (0 Bft) N 0 0 min 0,0 UV-I 5 W/m 3,8 C 5,1 C 0,0 km/h (0 Bft)
04.05.2022 06:17 5,0 C 4,4 C 91 % 1018,7 hPa 0,0 l/m 0,0 km/h (0 Bft) N 0 0 min 0,0 UV-I 5 W/m 3,7 C 5,0 C 0,0 km/h (0 Bft)
04.05.2022 06:18 5,0 C 4,4 C 91 % 1018,8 hPa 0,0 l/m 1,6 km/h (1 Bft) N-NW 337 0 min 0,0 UV-I 5 W/m 3,7 C 5,0 C 1,6 km/h (1 Bft)
04.05.2022 06:19 5,0 C 4,4 C 91 % 1018,8 hPa 0,0 l/m 1,6 km/h (1 Bft) N-NW 337 0 min 0,0 UV-I 5 W/m 3,7 C 5,0 C 3,2 km/h (1 Bft)
04.05.2022 06:20 5,0 C 4,4 C 91 % 1018,8 hPa 0,0 l/m 1,6 km/h (1 Bft) N-NW 337 0 min 0,0 UV-I 5 W/m 3,7 C 5,0 C 3,2 km/h (1 Bft)
04.05.2022 06:21 5,0 C 4,4 C 91 % 1018,7 hPa 0,0 l/m 1,6 km/h (1 Bft) N-NW 337 0 min 0,0 UV-I 6 W/m 3,7 C 5,0 C 1,6 km/h (1 Bft)
04.05.2022 06:22 5,1 C 4,4 C 91 % 1018,7 hPa 0,0 l/m 1,6 km/h (1 Bft) N-NW 337 0 min 0,0 UV-I 7 W/m 3,8 C 5,1 C 1,6 km/h (1 Bft)
04.05.2022 06:23 5,1 C 4,4 C 91 % 1018,8 hPa 0,0 l/m 1,6 km/h (1 Bft) N-NW 337 0 min 0,0 UV-I 7 W/m 3,8 C 5,1 C 3,2 km/h (1 Bft)
04.05.2022 06:24 5,1 C 4,4 C 91 % 1018,8 hPa 0,0 l/m 1,6 km/h (1 Bft) N-NW 337 0 min 0,0 UV-I 7 W/m 3,8 C 5,1 C 3,2 km/h (1 Bft)
04.05.2022 06:25 5,1 C 4,4 C 91 % 1018,8 hPa 0,0 l/m 1,6 km/h (1 Bft) N-NW 337 0 min 0,0 UV-I 7 W/m 3,8 C 5,1 C 1,6 km/h (1 Bft)
04.05.2022 06:26 5,1 C 4,4 C 91 % 1018,8 hPa 0,0 l/m 1,6 km/h (1 Bft) N-NW 337 0 min 0,0 UV-I 7 W/m 3,8 C 5,1 C 1,6 km/h (1 Bft)
04.05.2022 06:27 5,1 C 4,4 C 91 % 1018,8 hPa 0,0 l/m 1,6 km/h (1 Bft) N-NW 337 0 min 0,0 UV-I 7 W/m 3,8 C 5,1 C 1,6 km/h (1 Bft)
04.05.2022 06:28 5,1 C 4,4 C 91 % 1018,8 hPa 0,0 l/m 0,0 km/h (0 Bft) N 0 0 min 0,0 UV-I 7 W/m 3,8 C 5,1 C 0,0 km/h (0 Bft)
04.05.2022 06:29 5,1 C 4,4 C 91 % 1018,9 hPa 0,0 l/m 0,0 km/h (0 Bft) N 0 0 min 0,0 UV-I 7 W/m 3,8 C 5,1 C 0,0 km/h (0 Bft)
04.05.2022 06:30 5,1 C 4,4 C 91 % 1018,8 hPa 0,0 l/m 0,0 km/h (0 Bft) N 0 0 min 0,0 UV-I 7 W/m 3,8 C 5,1 C 0,0 km/h (0 Bft)
04.05.2022 06:31 5,2 C 4,4 C 91 % 1018,9 hPa 0,0 l/m 0,0 km/h (0 Bft) N 0 0 min 0,0 UV-I 7 W/m 3,9 C 5,2 C 0,0 km/h (0 Bft)
04.05.2022 06:32 5,2 C 5,0 C 91 % 1018,9 hPa 0,0 l/m 0,0 km/h (0 Bft) N 0 0 min 0,0 UV-I 7 W/m 3,9 C 5,2 C 0,0 km/h (0 Bft)
04.05.2022 06:33 5,2 C 5,0 C 91 % 1018,8 hPa 0,0 l/m 0,0 km/h (0 Bft) N 0 0 min 0,0 UV-I 7 W/m 3,9 C 5,2 C 0,0 km/h (0 Bft)
04.05.2022 06:34 5,2 C 5,0 C 91 % 1018,8 hPa 0,0 l/m 0,0 km/h (0 Bft) N 0 0 min 0,0 UV-I 7 W/m 3,9 C 5,2 C 0,0 km/h (0 Bft)
04.05.2022 06:35 5,1 C 5,0 C 91 % 1018,9 hPa 0,0 l/m 0,0 km/h (0 Bft) N 0 0 min 0,0 UV-I 7 W/m 3,8 C 5,1 C 0,0 km/h (0 Bft)
04.05.2022 06:36 5,1 C 5,0 C 91 % 1018,8 hPa 0,0 l/m 0,0 km/h (0 Bft) N 0 0 min 0,0 UV-I 9 W/m 3,8 C 5,1 C 0,0 km/h (0 Bft)
04.05.2022 06:37 5,1 C 5,0 C 91 % 1018,9 hPa 0,0 l/m 0,0 km/h (0 Bft) N 0 0 min 0,0 UV-I 9 W/m 3,8 C 5,1 C 0,0 km/h (0 Bft)
04.05.2022 06:38 5,1 C 5,0 C 91 % 1019,0 hPa 0,0 l/m 0,0 km/h (0 Bft) N 0 0 min 0,0 UV-I 9 W/m 3,8 C 5,1 C 0,0 km/h (0 Bft)
04.05.2022 06:39 5,1 C 5,0 C 91 % 1019,0 hPa 0,0 l/m 0,0 km/h (0 Bft) N 0 0 min 0,0 UV-I 11 W/m 3,8 C 5,1 C 0,0 km/h (0 Bft)
04.05.2022 06:40 5,2 C 5,0 C 91 % 1018,9 hPa 0,0 l/m 0,0 km/h (0 Bft) N 0 0 min 0,0 UV-I 12 W/m 3,9 C 5,2 C 0,0 km/h (0 Bft)
04.05.2022 06:41 5,2 C 5,0 C 91 % 1018,9 hPa 0,0 l/m 0,0 km/h (0 Bft) N-NW 337 0 min 0,0 UV-I 12 W/m 3,9 C 5,2 C 1,6 km/h (1 Bft)
04.05.2022 06:42 5,2 C 5,0 C 91 % 1018,9 hPa 0,0 l/m 1,6 km/h (1 Bft) N-NW 337 0 min 0,0 UV-I 14 W/m 3,9 C 5,2 C 1,6 km/h (1 Bft)
04.05.2022 06:43 5,3 C 5,0 C 91 % 1018,9 hPa 0,0 l/m 1,6 km/h (1 Bft) N-NW 337 0 min 0,0 UV-I 14 W/m 4,0 C 5,3 C 1,6 km/h (1 Bft)
04.05.2022 06:44 5,3 C 5,0 C 91 % 1019,0 hPa 0,0 l/m 1,6 km/h (1 Bft) N-NW 337 0 min 0,0 UV-I 14 W/m 4,0 C 5,3 C 3,2 km/h (1 Bft)
04.05.2022 06:45 5,3 C 5,0 C 91 % 1019,0 hPa 0,0 l/m 1,6 km/h (1 Bft) N-NW 337 0 min 0,0 UV-I 16 W/m 4,0 C 5,3 C 3,2 km/h (1 Bft)
04.05.2022 06:46 5,4 C 5,0 C 91 % 1018,9 hPa 0,0 l/m 1,6 km/h (1 Bft) N-NW 337 0 min 0,0 UV-I 18 W/m 4,1 C 5,4 C 3,2 km/h (1 Bft)
04.05.2022 06:47 5,5 C 5,0 C 91 % 1019,0 hPa 0,0 l/m 0,0 km/h (0 Bft) N-NW 337 0 min 0,0 UV-I 18 W/m 4,2 C 5,5 C 1,6 km/h (1 Bft)
04.05.2022 06:48 5,6 C 5,0 C 91 % 1018,9 hPa 0,0 l/m 0,0 km/h (0 Bft) N 0 0 min 0,0 UV-I 19 W/m 4,2 C 5,6 C 0,0 km/h (0 Bft)
04.05.2022 06:49 5,6 C 5,6 C 91 % 1019,0 hPa 0,0 l/m 0,0 km/h (0 Bft) N 0 0 min 0,0 UV-I 19 W/m 4,2 C 5,6 C 0,0 km/h (0 Bft)
04.05.2022 06:50 5,7 C 5,6 C 91 % 1019,0 hPa 0,0 l/m 0,0 km/h (0 Bft) N-NW 337 0 min 0,0 UV-I 22 W/m 4,3 C 5,7 C 1,6 km/h (1 Bft)
04.05.2022 06:51 5,7 C 5,6 C 91 % 1019,0 hPa 0,0 l/m 0,0 km/h (0 Bft) N 0 0 min 0,0 UV-I 23 W/m 4,3 C 5,7 C 0,0 km/h (0 Bft)
04.05.2022 06:52 5,7 C 5,6 C 91 % 1018,9 hPa 0,0 l/m 0,0 km/h (0 Bft) N 0 0 min 0,0 UV-I 25 W/m 4,3 C 5,7 C 0,0 km/h (0 Bft)
04.05.2022 06:53 5,8 C 5,6 C 91 % 1018,9 hPa 0,0 l/m 0,0 km/h (0 Bft) N 0 0 min 0,0 UV-I 26 W/m 4,4 C 5,8 C 0,0 km/h (0 Bft)
04.05.2022 06:54 5,8 C 5,6 C 91 % 1018,9 hPa 0,0 l/m 0,0 km/h (0 Bft) N 0 0 min 0,0 UV-I 28 W/m 4,4 C 5,8 C 0,0 km/h (0 Bft)
04.05.2022 06:55 5,9 C 5,6 C 91 % 1018,9 hPa 0,0 l/m 0,0 km/h (0 Bft) N 0 0 min 0,0 UV-I 30 W/m 4,5 C 5,9 C 0,0 km/h (0 Bft)
04.05.2022 06:56 6,0 C 5,6 C 91 % 1018,9 hPa 0,0 l/m 0,0 km/h (0 Bft) N 0 0 min 0,0 UV-I 33 W/m 4,6 C 6,0 C 0,0 km/h (0 Bft)
04.05.2022 06:57 6,0 C 6,1 C 91 % 1018,9 hPa 0,0 l/m 0,0 km/h (0 Bft) N 0 0 min 0,0 UV-I 35 W/m 4,6 C 6,0 C 0,0 km/h (0 Bft)
04.05.2022 06:58 6,0 C 6,1 C 91 % 1018,9 hPa 0,0 l/m 0,0 km/h (0 Bft) N 0 0 min 0,0 UV-I 37 W/m 4,6 C 6,0 C 0,0 km/h (0 Bft)
04.05.2022 06:59 6,0 C 6,1 C 91 % 1019,0 hPa 0,0 l/m 0,0 km/h (0 Bft) N 0 0 min 0,0 UV-I 37 W/m 4,6 C 6,0 C 0,0 km/h (0 Bft)
04.05.2022 07:00 6,1 C 6,1 C 91 % 1018,9 hPa 0,0 l/m 0,0 km/h (0 Bft) N 0 0 min 0,0 UV-I 37 W/m 4,7 C 6,1 C 0,0 km/h (0 Bft)
04.05.2022 07:01 6,1 C 6,1 C 91 % 1018,9 hPa 0,0 l/m 0,0 km/h (0 Bft) N 0 0 min 0,0 UV-I 37 W/m 4,7 C 6,1 C 0,0 km/h (0 Bft)
04.05.2022 07:02 6,2 C 6,1 C 91 % 1019,0 hPa 0,0 l/m 0,0 km/h (0 Bft) N 0 0 min 0,0 UV-I 39 W/m 4,8 C 6,2 C 0,0 km/h (0 Bft)
04.05.2022 07:03 6,2 C 6,1 C 91 % 1019,0 hPa 0,0 l/m 0,0 km/h (0 Bft) N 0 0 min 0,0 UV-I 39 W/m 4,8 C 6,2 C 0,0 km/h (0 Bft)
04.05.2022 07:04 6,3 C 6,1 C 91 % 1018,9 hPa 0,0 l/m 0,0 km/h (0 Bft) N 0 0 min 0,0 UV-I 39 W/m 4,9 C 6,3 C 0,0 km/h (0 Bft)
04.05.2022 07:05 6,3 C 6,1 C 91 % 1019,0 hPa 0,0 l/m 0,0 km/h (0 Bft) N 0 0 min 0,0 UV-I 39 W/m 4,9 C 6,3 C 0,0 km/h (0 Bft)
04.05.2022 07:06 6,3 C 6,1 C 91 % 1018,9 hPa 0,0 l/m 0,0 km/h (0 Bft) N 0 0 min 0,0 UV-I 37 W/m 4,9 C 6,3 C 0,0 km/h (0 Bft)
04.05.2022 07:07 6,1 C 6,1 C 91 % 1018,9 hPa 0,0 l/m 0,0 km/h (0 Bft) N 0 0 min 0,0 UV-I 35 W/m 4,7 C 6,1 C 0,0 km/h (0 Bft)
04.05.2022 07:08 6,0 C 6,1 C 90 % 1019,0 hPa 0,0 l/m 0,0 km/h (0 Bft) N 0 0 min 0,0 UV-I 34 W/m 4,5 C 6,0 C 0,0 km/h (0 Bft)
04.05.2022 07:09 5,9 C 5,6 C 90 % 1019,0 hPa 0,0 l/m 0,0 km/h (0 Bft) N 0 0 min 0,0 UV-I 33 W/m 4,4 C 5,9 C 0,0 km/h (0 Bft)
04.05.2022 07:10 5,9 C 5,6 C 90 % 1019,0 hPa 0,0 l/m 0,0 km/h (0 Bft) N 0 0 min 0,0 UV-I 33 W/m 4,4 C 5,9 C 0,0 km/h (0 Bft)
04.05.2022 07:11 5,8 C 5,6 C 91 % 1018,9 hPa 0,0 l/m 0,0 km/h (0 Bft) N 0 0 min 0,0 UV-I 33 W/m 4,4 C 5,8 C 0,0 km/h (0 Bft)
04.05.2022 07:12 5,8 C 5,6 C 90 % 1018,9 hPa 0,0 l/m 0,0 km/h (0 Bft) N 0 0 min 0,0 UV-I 35 W/m 4,3 C 5,8 C 0,0 km/h (0 Bft)
04.05.2022 07:13 5,8 C 5,6 C 91 % 1018,9 hPa 0,0 l/m 0,0 km/h (0 Bft) N 0 0 min 0,0 UV-I 33 W/m 4,4 C 5,8 C 0,0 km/h (0 Bft)
04.05.2022 07:14 5,8 C 5,6 C 91 % 1018,9 hPa 0,0 l/m 0,0 km/h (0 Bft) N 0 0 min 0,0 UV-I 39 W/m 4,4 C 5,8 C 0,0 km/h (0 Bft)
04.05.2022 07:15 5,8 C 5,6 C 91 % 1018,9 hPa 0,0 l/m 0,0 km/h (0 Bft) N 0 0 min 0,0 UV-I 42 W/m 4,4 C 5,8 C 0,0 km/h (0 Bft)
04.05.2022 07:16 5,8 C 5,6 C 91 % 1018,9 hPa 0,0 l/m 0,0 km/h (0 Bft) N 0 0 min 0,0 UV-I 35 W/m 4,4 C 5,8 C 0,0 km/h (0 Bft)
04.05.2022 07:17 5,8 C 5,0 C 91 % 1018,9 hPa 0,0 l/m 0,0 km/h (0 Bft) N 0 0 min 0,0 UV-I 35 W/m 4,4 C 5,8 C 0,0 km/h (0 Bft)
04.05.2022 07:18 5,8 C 5,0 C 91 % 1018,9 hPa 0,0 l/m 0,0 km/h (0 Bft) N 0 0 min 0,0 UV-I 35 W/m 4,4 C 5,8 C 0,0 km/h (0 Bft)
04.05.2022 07:19 5,8 C 5,0 C 91 % 1018,9 hPa 0,0 l/m 0,0 km/h (0 Bft) N 0 0 min 0,0 UV-I 35 W/m 4,4 C 5,8 C 0,0 km/h (0 Bft)
04.05.2022 07:20 5,8 C 5,0 C 91 % 1018,9 hPa 0,0 l/m 0,0 km/h (0 Bft) N 0 0 min 0,0 UV-I 36 W/m 4,4 C 5,8 C 0,0 km/h (0 Bft)
04.05.2022 07:21 5,8 C 5,0 C 91 % 1018,9 hPa 0,0 l/m 0,0 km/h (0 Bft) N 0 0 min 0,0 UV-I 37 W/m 4,4 C 5,8 C 0,0 km/h (0 Bft)
04.05.2022 07:22 5,8 C 5,0 C 91 % 1018,9 hPa 0,0 l/m 0,0 km/h (0 Bft) N 0 0 min 0,0 UV-I 39 W/m 4,4 C 5,8 C 0,0 km/h (0 Bft)
04.05.2022 07:23 5,8 C 5,0 C 91 % 1018,8 hPa 0,0 l/m 0,0 km/h (0 Bft) N 0 0 min 0,0 UV-I 39 W/m 4,4 C 5,8 C 0,0 km/h (0 Bft)
04.05.2022 07:24 5,8 C 5,0 C 91 % 1018,8 hPa 0,0 l/m 0,0 km/h (0 Bft) N 0 0 min 0,0 UV-I 40 W/m 4,4 C 5,8 C 0,0 km/h (0 Bft)
04.05.2022 07:25 5,7 C 5,0 C 91 % 1018,9 hPa 0,0 l/m 0,0 km/h (0 Bft) N 0 0 min 0,0 UV-I 40 W/m 4,3 C 5,7 C 0,0 km/h (0 Bft)
04.05.2022 07:26 5,8 C 5,0 C 91 % 1018,9 hPa 0,0 l/m 0,0 km/h (0 Bft) N 0 0 min 0,0 UV-I 43 W/m 4,4 C 5,8 C 0,0 km/h (0 Bft)
04.05.2022 07:27 5,8 C 5,0 C 91 % 1018,9 hPa 0,0 l/m 0,0 km/h (0 Bft) N 0 0 min 0,0 UV-I 44 W/m 4,4 C 5,8 C 0,0 km/h (0 Bft)
04.05.2022 07:28 5,8 C 5,0 C 91 % 1018,9 hPa 0,0 l/m 0,0 km/h (0 Bft) N 0 0 min 0,0 UV-I 46 W/m 4,4 C 5,8 C 0,0 km/h (0 Bft)
04.05.2022 07:29 5,8 C 5,0 C 91 % 1018,9 hPa 0,0 l/m 0,0 km/h (0 Bft) N 0 0 min 0,0 UV-I 47 W/m 4,4 C 5,8 C 0,0 km/h (0 Bft)
04.05.2022 07:30 5,8 C 5,0 C 91 % 1018,9 hPa 0,0 l/m 0,0 km/h (0 Bft) N 0 0 min 0,0 UV-I 49 W/m 4,4 C 5,8 C 0,0 km/h (0 Bft)
04.05.2022 07:31 5,9 C 5,0 C 91 % 1018,9 hPa 0,0 l/m 0,0 km/h (0 Bft) N 0 0 min 0,0 UV-I 53 W/m 4,5 C 5,9 C 0,0 km/h (0 Bft)
04.05.2022 07:32 5,9 C 5,0 C 91 % 1018,8 hPa 0,0 l/m 0,0 km/h (0 Bft) N 0 0 min 0,0 UV-I 63 W/m 4,5 C 5,9 C 0,0 km/h (0 Bft)
04.05.2022 07:33 5,9 C 5,0 C 91 % 1018,9 hPa 0,0 l/m 0,0 km/h (0 Bft) N 0 0 min 0,0 UV-I 56 W/m 4,5 C 5,9 C 0,0 km/h (0 Bft)
04.05.2022 07:36 5,9 C 5,0 C 91 % 1018,9 hPa 0,0 l/m 0,0 km/h (0 Bft) N-NW 348 0 min 0,0 UV-I 85 W/m 4,5 C 5,9 C 0,0 km/h (0 Bft)
04.05.2022 07:38 5,9 C 5,0 C 91 % 1018,9 hPa 0,0 l/m 0,0 km/h (0 Bft) N-NW 348 0 min 0,2 UV-I 113 W/m 4,5 C 5,9 C 0,0 km/h (0 Bft)
04.05.2022 07:40 5,9 C 5,6 C 91 % 1018,9 hPa 0,0 l/m 0,0 km/h (0 Bft) N-NW 348 0 min 0,5 UV-I 124 W/m 4,5 C 5,9 C 0,0 km/h (0 Bft)
04.05.2022 07:42 6,0 C 5,6 C 91 % 1018,9 hPa 0,0 l/m 0,0 km/h (0 Bft) N-NW 348 0 min 0,5 UV-I 129 W/m 4,6 C 6,0 C 0,0 km/h (0 Bft)
04.05.2022 07:44 6,1 C 6,1 C 91 % 1018,8 hPa 0,0 l/m 0,0 km/h (0 Bft) N-NW 348 0 min 0,5 UV-I 128 W/m 4,7 C 6,1 C 0,0 km/h (0 Bft)
04.05.2022 07:46 6,2 C 6,1 C 91 % 1018,9 hPa 0,0 l/m 0,0 km/h (0 Bft) N-NW 348 0 min 0,5 UV-I 130 W/m 4,8 C 6,2 C 0,0 km/h (0 Bft)
04.05.2022 07:48 6,3 C 6,7 C 91 % 1018,7 hPa 0,0 l/m 0,0 km/h (0 Bft) N-NW 348 0 min 0,6 UV-I 134 W/m 4,9 C 6,3 C 0,0 km/h (0 Bft)
04.05.2022 07:50 6,6 C 7,2 C 91 % 1018,8 hPa 0,0 l/m 0,0 km/h (0 Bft) N-NW 348 0 min 0,6 UV-I 136 W/m 5,2 C 6,6 C 0,0 km/h (0 Bft)
04.05.2022 07:52 6,7 C 7,8 C 91 % 1018,8 hPa 0,0 l/m 0,0 km/h (0 Bft) N-NW 348 0 min 0,6 UV-I 143 W/m 5,3 C 6,7 C 0,0 km/h (0 Bft)
04.05.2022 07:54 6,9 C 8,3 C 91 % 1018,8 hPa 0,0 l/m 0,1 km/h (0 Bft) N-NW 348 0 min 0,6 UV-I 148 W/m 5,5 C 6,9 C 1,6 km/h (1 Bft)
04.05.2022 07:56 7,1 C 8,3 C 90 % 1018,8 hPa 0,0 l/m 1,0 km/h (0 Bft) N-NW 348 0 min 0,6 UV-I 154 W/m 5,6 C 7,1 C 1,6 km/h (1 Bft)
04.05.2022 07:58 7,2 C 8,9 C 90 % 1018,8 hPa 0,0 l/m 1,5 km/h (1 Bft) N-NW 348 0 min 0,7 UV-I 160 W/m 5,7 C 7,2 C 3,2 km/h (1 Bft)
04.05.2022 08:00 7,2 C 8,9 C 89 % 1018,8 hPa 0,0 l/m 0,7 km/h (0 Bft) N-NW 348 0 min 0,7 UV-I 167 W/m 5,5 C 7,2 C 1,6 km/h (1 Bft)
04.05.2022 08:02 7,3 C 8,9 C 89 % 1018,8 hPa 0,0 l/m 1,1 km/h (1 Bft) N-NW 348 0 min 0,7 UV-I 178 W/m 5,6 C 7,3 C 3,2 km/h (1 Bft)
04.05.2022 08:04 7,4 C 9,4 C 89 % 1018,8 hPa 0,0 l/m 1,0 km/h (0 Bft) N-NW 348 0 min 0,7 UV-I 183 W/m 5,7 C 7,4 C 3,2 km/h (1 Bft)
04.05.2022 08:06 7,7 C 10,0 C 89 % 1018,8 hPa 0,0 l/m 1,8 km/h (1 Bft) N-NW 348 0 min 0,7 UV-I 188 W/m 6,0 C 7,7 C 3,2 km/h (1 Bft)
04.05.2022 08:08 7,8 C 10,0 C 88 % 1018,9 hPa 0,0 l/m 1,7 km/h (1 Bft) N-NW 348 0 min 0,8 UV-I 189 W/m 5,9 C 7,8 C 3,2 km/h (1 Bft)
04.05.2022 08:10 7,9 C 10,6 C 88 % 1018,8 hPa 0,0 l/m 1,9 km/h (1 Bft) N-NW 348 0 min 0,8 UV-I 197 W/m 6,0 C 7,9 C 3,2 km/h (1 Bft)
04.05.2022 08:12 7,9 C 10,6 C 87 % 1018,8 hPa 0,0 l/m 2,5 km/h (1 Bft) N-NW 348 0 min 0,8 UV-I 204 W/m 5,9 C 7,9 C 3,2 km/h (1 Bft)
04.05.2022 08:14 8,1 C 10,0 C 87 % 1018,7 hPa 0,0 l/m 3,2 km/h (1 Bft) N-NW 348 0 min 0,9 UV-I 207 W/m 6,1 C 8,1 C 4,8 km/h (1 Bft)
04.05.2022 08:16 8,2 C 10,0 C 88 % 1018,7 hPa 0,0 l/m 2,0 km/h (1 Bft) N-NW 348 0 min 0,9 UV-I 212 W/m 6,3 C 8,2 C 4,8 km/h (1 Bft)
04.05.2022 08:18 8,4 C 10,6 C 88 % 1018,8 hPa 0,0 l/m 2,2 km/h (1 Bft) N-NW 348 0 min 0,9 UV-I 215 W/m 6,5 C 8,4 C 3,2 km/h (1 Bft)
04.05.2022 08:20 8,6 C 10,6 C 88 % 1018,8 hPa 0,0 l/m 1,5 km/h (1 Bft) N-NW 348 0 min 0,9 UV-I 225 W/m 6,7 C 8,6 C 3,2 km/h (1 Bft)
04.05.2022 08:22 8,6 C 10,6 C 87 % 1018,8 hPa 0,0 l/m 1,2 km/h (1 Bft) N-NW 348 0 min 1,0 UV-I 231 W/m 6,6 C 8,6 C 3,2 km/h (1 Bft)
04.05.2022 08:24 8,7 C 10,6 C 87 % 1018,8 hPa 0,0 l/m 0,1 km/h (0 Bft) N-NW 348 0 min 1,0 UV-I 235 W/m 6,7 C 8,7 C 1,6 km/h (1 Bft)
04.05.2022 08:26 8,9 C 10,6 C 87 % 1018,9 hPa 0,0 l/m 1,6 km/h (1 Bft) N-NW 348 0 min 1,0 UV-I 241 W/m 6,9 C 8,9 C 3,2 km/h (1 Bft)
04.05.2022 08:28 9,2 C 11,1 C 87 % 1018,8 hPa 0,0 l/m 1,2 km/h (1 Bft) N-NW 348 0 min 1,1 UV-I 247 W/m 7,2 C 9,2 C 3,2 km/h (1 Bft)
04.05.2022 08:30 9,2 C 11,1 C 87 % 1018,8 hPa 0,0 l/m 2,0 km/h (1 Bft) N-NW 348 0 min 1,1 UV-I 252 W/m 7,2 C 9,2 C 3,2 km/h (1 Bft)
04.05.2022 08:32 9,2 C 10,6 C 86 % 1018,8 hPa 0,0 l/m 2,9 km/h (1 Bft) N 350 0 min 1,1 UV-I 253 W/m 7,0 C 9,2 C 4,8 km/h (1 Bft)
04.05.2022 08:34 9,3 C 10,6 C 87 % 1018,9 hPa 0,0 l/m 1,9 km/h (1 Bft) N 350 0 min 1,1 UV-I 261 W/m 7,2 C 9,3 C 4,8 km/h (1 Bft)
04.05.2022 08:36 9,4 C 11,1 C 85 % 1018,8 hPa 0,0 l/m 2,5 km/h (1 Bft) N 350 0 min 1,2 UV-I 234 W/m 7,0 C 9,4 C 3,2 km/h (1 Bft)
04.05.2022 08:38 9,4 C 11,1 C 85 % 1018,9 hPa 0,0 l/m 2,8 km/h (1 Bft) N 350 0 min 1,2 UV-I 273 W/m 7,0 C 9,4 C 3,2 km/h (1 Bft)
04.05.2022 08:40 9,6 C 11,1 C 85 % 1018,9 hPa 0,0 l/m 1,5 km/h (1 Bft) N 350 0 min 1,2 UV-I 286 W/m 7,2 C 9,6 C 3,2 km/h (1 Bft)
04.05.2022 08:42 9,7 C 11,1 C 84 % 1018,8 hPa 0,0 l/m 2,1 km/h (1 Bft) N 350 0 min 1,3 UV-I 291 W/m 7,1 C 9,7 C 3,2 km/h (1 Bft)
04.05.2022 08:44 9,7 C 11,7 C 84 % 1018,8 hPa 0,0 l/m 1,8 km/h (1 Bft) N 350 0 min 1,3 UV-I 294 W/m 7,1 C 9,7 C 3,2 km/h (1 Bft)
04.05.2022 08:46 9,9 C 11,7 C 84 % 1018,9 hPa 0,0 l/m 1,3 km/h (1 Bft) N 350 0 min 1,3 UV-I 303 W/m 7,3 C 9,9 C 3,2 km/h (1 Bft)
04.05.2022 08:48 10,1 C 12,2 C 83 % 1018,8 hPa 0,0 l/m 2,3 km/h (1 Bft) N 350 0 min 1,3 UV-I 309 W/m 7,3 C 10,1 C 3,2 km/h (1 Bft)
04.05.2022 08:50 10,3 C 12,2 C 83 % 1018,7 hPa 0,0 l/m 2,5 km/h (1 Bft) N 5 0 min 1,4 UV-I 318 W/m 7,5 C 10,3 C 4,8 km/h (1 Bft)
04.05.2022 08:52 10,3 C 12,2 C 82 % 1018,8 hPa 0,0 l/m 1,7 km/h (1 Bft) N 5 0 min 1,4 UV-I 327 W/m 7,4 C 10,3 C 4,8 km/h (1 Bft)
04.05.2022 08:54 10,3 C 12,2 C 83 % 1018,9 hPa 0,0 l/m 2,4 km/h (1 Bft) N 5 0 min 1,4 UV-I 335 W/m 7,5 C 10,3 C 4,8 km/h (1 Bft)
04.05.2022 08:56 10,5 C 12,8 C 82 % 1018,8 hPa 0,0 l/m 1,4 km/h (1 Bft) N 5 0 min 1,5 UV-I 337 W/m 7,6 C 10,5 C 3,2 km/h (1 Bft)
04.05.2022 08:58 10,7 C 12,8 C 81 % 1018,8 hPa 0,0 l/m 1,8 km/h (1 Bft) N 5 2 min 1,5 UV-I 346 W/m 7,6 C 10,7 C 3,2 km/h (1 Bft)
04.05.2022 09:00 10,8 C 12,8 C 81 % 1018,9 hPa 0,0 l/m 0,7 km/h (0 Bft) N 5 2 min 1,5 UV-I 354 W/m 7,7 C 10,8 C 1,6 km/h (1 Bft)
04.05.2022 09:02 10,9 C 12,8 C 82 % 1018,9 hPa 0,0 l/m 0,3 km/h (0 Bft) N 5 2 min 1,6 UV-I 360 W/m 7,9 C 10,9 C 1,6 km/h (1 Bft)
04.05.2022 09:04 10,9 C 12,8 C 81 % 1018,9 hPa 0,0 l/m 1,4 km/h (1 Bft) N 5 2 min 1,6 UV-I 364 W/m 7,8 C 10,9 C 4,8 km/h (1 Bft)
04.05.2022 09:06 11,2 C 13,3 C 81 % 1018,8 hPa 0,0 l/m 3,4 km/h (1 Bft) N 5 2 min 1,7 UV-I 372 W/m 8,1 C 11,2 C 4,8 km/h (1 Bft)
04.05.2022 09:08 11,4 C 13,9 C 81 % 1019,0 hPa 0,0 l/m 2,1 km/h (1 Bft) N 5 2 min 1,7 UV-I 385 W/m 8,3 C 11,4 C 4,8 km/h (1 Bft)
04.05.2022 09:10 11,6 C 13,9 C 80 % 1018,9 hPa 0,0 l/m 3,4 km/h (1 Bft) N 5 2 min 1,8 UV-I 405 W/m 8,3 C 11,6 C 4,8 km/h (1 Bft)
04.05.2022 09:12 11,7 C 14,4 C 79 % 1018,9 hPa 0,0 l/m 3,4 km/h (1 Bft) N 5 2 min 1,9 UV-I 429 W/m 8,2 C 11,7 C 4,8 km/h (1 Bft)
04.05.2022 09:14 12,0 C 15,0 C 81 % 1018,9 hPa 0,0 l/m 2,8 km/h (1 Bft) N 5 2 min 1,9 UV-I 463 W/m 8,8 C 12,0 C 4,8 km/h (1 Bft)
04.05.2022 09:16 12,2 C 15,6 C 77 % 1018,9 hPa 0,0 l/m 3,2 km/h (1 Bft) N 5 2 min 2,0 UV-I 504 W/m 8,3 C 12,2 C 4,8 km/h (1 Bft)
04.05.2022 09:18 12,2 C 16,1 C 77 % 1018,9 hPa 0,0 l/m 1,1 km/h (1 Bft) N 5 2 min 2,1 UV-I 526 W/m 8,3 C 12,2 C 3,2 km/h (1 Bft)
04.05.2022 09:20 12,3 C 16,1 C 77 % 1018,9 hPa 0,0 l/m 2,0 km/h (1 Bft) N 5 2 min 2,0 UV-I 519 W/m 8,4 C 12,3 C 4,8 km/h (1 Bft)
04.05.2022 09:22 12,4 C 16,1 C 77 % 1018,9 hPa 0,0 l/m 1,3 km/h (1 Bft) N 5 2 min 2,1 UV-I 518 W/m 8,5 C 12,4 C 3,2 km/h (1 Bft)
04.05.2022 09:24 12,8 C 16,1 C 78 % 1018,9 hPa 0,0 l/m 0,6 km/h (0 Bft) N 5 2 min 2,2 UV-I 538 W/m 9,1 C 12,8 C 1,6 km/h (1 Bft)
04.05.2022 09:26 13,2 C 16,7 C 77 % 1018,9 hPa 0,0 l/m 1,1 km/h (1 Bft) N 11 2 min 2,1 UV-I 498 W/m 9,3 C 13,2 C 4,8 km/h (1 Bft)
04.05.2022 09:28 13,1 C 16,7 C 75 % 1018,8 hPa 0,0 l/m 2,1 km/h (1 Bft) N 11 2 min 2,2 UV-I 534 W/m 8,8 C 13,1 C 3,2 km/h (1 Bft)
04.05.2022 09:30 13,1 C 16,7 C 75 % 1018,8 hPa 0,0 l/m 1,9 km/h (1 Bft) N 11 2 min 2,2 UV-I 553 W/m 8,8 C 13,1 C 4,8 km/h (1 Bft)
04.05.2022 09:32 13,4 C 17,2 C 72 % 1018,9 hPa 0,0 l/m 3,9 km/h (1 Bft) N-NO 31 2 min 2,0 UV-I 448 W/m 8,5 C 13,4 C 6,4 km/h (2 Bft)
04.05.2022 09:34 13,6 C 17,2 C 68 % 1018,8 hPa 0,0 l/m 5,2 km/h (1 Bft) N 10 2 min 2,0 UV-I 483 W/m 7,8 C 13,6 C 8,0 km/h (2 Bft)
04.05.2022 09:36 13,8 C 17,8 C 70 % 1018,9 hPa 0,0 l/m 3,5 km/h (1 Bft) N-NO 12 2 min 2,0 UV-I 489 W/m 8,4 C 13,8 C 4,8 km/h (1 Bft)
04.05.2022 09:38 13,8 C 17,8 C 67 % 1018,9 hPa 0,0 l/m 4,8 km/h (1 Bft) N-NW 348 2 min 2,0 UV-I 381 W/m 7,8 C 13,8 C 6,4 km/h (2 Bft)
04.05.2022 09:40 13,7 C 17,8 C 64 % 1018,8 hPa 0,0 l/m 4,1 km/h (1 Bft) N-NW 348 2 min 2,3 UV-I 372 W/m 7,0 C 13,7 C 6,4 km/h (2 Bft)
04.05.2022 09:42 13,6 C 17,2 C 65 % 1018,8 hPa 0,0 l/m 0,8 km/h (0 Bft) N-NW 348 0 min 2,1 UV-I 272 W/m 7,1 C 13,6 C 3,2 km/h (1 Bft)
04.05.2022 09:44 13,6 C 16,7 C 65 % 1018,7 hPa 0,0 l/m 1,8 km/h (1 Bft) N-NW 348 0 min 2,1 UV-I 262 W/m 7,1 C 13,6 C 3,2 km/h (1 Bft)
04.05.2022 09:46 13,4 C 16,7 C 65 % 1018,7 hPa 0,0 l/m 1,5 km/h (1 Bft) N-NW 348 0 min 2,3 UV-I 270 W/m 7,0 C 13,4 C 3,2 km/h (1 Bft)
04.05.2022 09:48 13,7 C 17,2 C 67 % 1018,8 hPa 0,0 l/m 3,1 km/h (1 Bft) N-NW 348 2 min 2,6 UV-I 471 W/m 7,7 C 13,7 C 6,4 km/h (2 Bft)
04.05.2022 09:50 13,9 C 17,2 C 70 % 1018,8 hPa 0,0 l/m 4,1 km/h (1 Bft) N 355 2 min 2,7 UV-I 511 W/m 8,5 C 13,9 C 6,4 km/h (2 Bft)
04.05.2022 09:52 14,1 C 17,2 C 67 % 1018,8 hPa 0,0 l/m 5,8 km/h (2 Bft) N 9 2 min 2,6 UV-I 498 W/m 8,1 C 14,1 C 8,0 km/h (2 Bft)
04.05.2022 09:54 14,0 C 17,2 C 67 % 1018,7 hPa 0,0 l/m 4,3 km/h (1 Bft) N-NW 329 0 min 2,3 UV-I 286 W/m 8,0 C 14,0 C 8,0 km/h (2 Bft)
04.05.2022 09:56 14,0 C 17,2 C 66 % 1018,8 hPa 0,0 l/m 4,1 km/h (1 Bft) NW 319 0 min 2,4 UV-I 297 W/m 7,7 C 14,0 C 6,4 km/h (2 Bft)
04.05.2022 09:58 13,8 C 16,7 C 66 % 1018,8 hPa 0,0 l/m 4,0 km/h (1 Bft) N-NO 20 0 min 2,6 UV-I 312 W/m 7,6 C 13,8 C 12,9 km/h (3 Bft)
04.05.2022 10:00 13,9 C 17,2 C 67 % 1018,8 hPa 0,0 l/m 6,9 km/h (2 Bft) N 355 2 min 2,8 UV-I 461 W/m 7,9 C 13,6 C 11,3 km/h (2 Bft)
04.05.2022 10:02 14,0 C 17,8 C 64 % 1018,9 hPa 0,0 l/m 6,1 km/h (2 Bft) N-NO 17 2 min 2,4 UV-I 476 W/m 7,3 C 14,0 C 8,0 km/h (2 Bft)
04.05.2022 10:04 14,1 C 17,8 C 66 % 1018,8 hPa 0,0 l/m 5,1 km/h (1 Bft) N-NW 337 2 min 2,2 UV-I 350 W/m 7,8 C 14,1 C 9,7 km/h (2 Bft)
04.05.2022 10:06 14,3 C 17,8 C 63 % 1018,9 hPa 0,0 l/m 7,5 km/h (2 Bft) N-NW 330 2 min 2,3 UV-I 380 W/m 7,4 C 13,7 C 14,5 km/h (3 Bft)
04.05.2022 10:08 14,1 C 17,2 C 62 % 1018,9 hPa 0,0 l/m 5,9 km/h (2 Bft) N-NW 344 2 min 2,5 UV-I 376 W/m 6,9 C 14,1 C 12,9 km/h (3 Bft)
04.05.2022 10:10 14,1 C 17,8 C 62 % 1018,8 hPa 0,0 l/m 6,4 km/h (2 Bft) N-NW 348 0 min 2,2 UV-I 339 W/m 6,9 C 14,1 C 8,0 km/h (2 Bft)
04.05.2022 10:12 14,1 C 17,8 C 65 % 1018,8 hPa 0,0 l/m 5,4 km/h (1 Bft) N 9 0 min 2,1 UV-I 325 W/m 7,6 C 14,1 C 8,0 km/h (2 Bft)
04.05.2022 10:14 14,1 C 17,8 C 62 % 1018,9 hPa 0,0 l/m 6,7 km/h (2 Bft) N 360 0 min 2,1 UV-I 328 W/m 6,9 C 13,9 C 9,7 km/h (2 Bft)
04.05.2022 10:16 13,9 C 17,2 C 62 % 1018,9 hPa 0,0 l/m 3,6 km/h (1 Bft) N-NW 344 0 min 2,1 UV-I 323 W/m 6,7 C 13,9 C 4,8 km/h (1 Bft)
04.05.2022 10:18 13,8 C 17,2 C 61 % 1018,9 hPa 0,0 l/m 7,1 km/h (2 Bft) N 350 0 min 2,1 UV-I 320 W/m 6,4 C 13,4 C 11,3 km/h (2 Bft)
04.05.2022 10:20 13,9 C 17,2 C 62 % 1019,0 hPa 0,0 l/m 5,9 km/h (2 Bft) N-NW 330 0 min 2,1 UV-I 311 W/m 6,7 C 13,9 C 11,3 km/h (2 Bft)
04.05.2022 10:22 13,9 C 17,2 C 64 % 1018,9 hPa 0,0 l/m 4,9 km/h (1 Bft) N-NW 346 0 min 2,1 UV-I 304 W/m 7,2 C 13,9 C 8,0 km/h (2 Bft)
04.05.2022 10:24 13,8 C 17,2 C 63 % 1018,9 hPa 0,0 l/m 5,6 km/h (1 Bft) N-NW 337 0 min 2,3 UV-I 315 W/m 6,9 C 13,8 C 9,7 km/h (2 Bft)
04.05.2022 10:26 13,8 C 17,2 C 63 % 1018,8 hPa 0,0 l/m 7,6 km/h (2 Bft) N 355 0 min 2,3 UV-I 309 W/m 6,9 C 13,1 C 14,5 km/h (3 Bft)
04.05.2022 10:28 13,8 C 17,2 C 63 % 1018,8 hPa 0,0 l/m 5,3 km/h (1 Bft) N-NW 346 0 min 2,5 UV-I 304 W/m 6,9 C 13,8 C 8,0 km/h (2 Bft)
04.05.2022 10:30 13,9 C 17,8 C 64 % 1018,8 hPa 0,0 l/m 7,3 km/h (2 Bft) N-NW 346 2 min 3,0 UV-I 378 W/m 7,2 C 13,4 C 16,1 km/h (3 Bft)
04.05.2022 10:32 14,2 C 18,3 C 63 % 1018,8 hPa 0,0 l/m 6,8 km/h (2 Bft) N 10 2 min 3,2 UV-I 520 W/m 7,3 C 14,0 C 12,9 km/h (3 Bft)
04.05.2022 10:34 14,2 C 18,9 C 62 % 1018,6 hPa 0,0 l/m 9,5 km/h (2 Bft) NW 321 2 min 3,3 UV-I 510 W/m 7,0 C 12,5 C 14,5 km/h (3 Bft)
04.05.2022 10:36 14,2 C 18,9 C 60 % 1018,7 hPa 0,0 l/m 7,8 km/h (2 Bft) NW 311 2 min 3,3 UV-I 552 W/m 6,5 C 13,4 C 12,9 km/h (3 Bft)
04.05.2022 10:38 14,3 C 19,4 C 59 % 1018,6 hPa 0,0 l/m 6,9 km/h (2 Bft) N-NW 348 2 min 3,4 UV-I 662 W/m 6,4 C 14,0 C 9,7 km/h (2 Bft)
04.05.2022 10:40 14,4 C 19,4 C 62 % 1018,7 hPa 0,0 l/m 4,6 km/h (1 Bft) N-NW 327 2 min 3,3 UV-I 677 W/m 7,2 C 14,4 C 8,0 km/h (2 Bft)
04.05.2022 10:42 14,6 C 19,4 C 60 % 1018,7 hPa 0,0 l/m 6,2 km/h (2 Bft) W-NW 296 2 min 3,3 UV-I 677 W/m 6,9 C 14,6 C 12,9 km/h (3 Bft)
04.05.2022 10:44 14,6 C 19,4 C 61 % 1018,7 hPa 0,0 l/m 5,6 km/h (1 Bft) N-NO 14 2 min 3,4 UV-I 546 W/m 7,2 C 14,6 C 11,3 km/h (2 Bft)
04.05.2022 10:46 14,7 C 19,4 C 60 % 1018,7 hPa 0,0 l/m 7,6 km/h (2 Bft) W-NW 293 2 min 3,0 UV-I 476 W/m 7,0 C 14,0 C 14,5 km/h (3 Bft)
04.05.2022 10:48 14,4 C 18,3 C 59 % 1018,6 hPa 0,0 l/m 4,2 km/h (1 Bft) NW 310 2 min 2,8 UV-I 511 W/m 6,5 C 14,4 C 6,4 km/h (2 Bft)
04.05.2022 10:50 14,4 C 18,9 C 62 % 1018,6 hPa 0,0 l/m 6,2 km/h (2 Bft) N 355 2 min 2,7 UV-I 416 W/m 7,2 C 14,4 C 12,9 km/h (3 Bft)
04.05.2022 10:52 14,6 C 19,4 C 63 % 1018,6 hPa 0,0 l/m 9,1 km/h (2 Bft) N 360 2 min 2,7 UV-I 406 W/m 7,6 C 13,1 C 12,9 km/h (3 Bft)
04.05.2022 10:54 14,7 C 19,4 C 61 % 1018,8 hPa 0,0 l/m 7,9 km/h (2 Bft) NO 34 2 min 2,6 UV-I 413 W/m 7,3 C 13,8 C 14,5 km/h (3 Bft)
04.05.2022 10:56 14,5 C 20,0 C 62 % 1018,7 hPa 0,0 l/m 7,4 km/h (2 Bft) N-NW 327 2 min 2,6 UV-I 425 W/m 7,3 C 13,9 C 9,7 km/h (2 Bft)
04.05.2022 10:58 14,5 C 19,4 C 61 % 1018,8 hPa 0,0 l/m 4,3 km/h (1 Bft) N-NW 328 2 min 2,6 UV-I 418 W/m 7,1 C 14,5 C 6,4 km/h (2 Bft)
04.05.2022 11:00 14,6 C 19,4 C 61 % 1018,7 hPa 0,0 l/m 7,0 km/h (2 Bft) N 5 2 min 2,5 UV-I 398 W/m 7,2 C 14,3 C 14,5 km/h (3 Bft)
04.05.2022 11:02 14,4 C 19,4 C 59 % 1018,8 hPa 0,0 l/m 8,6 km/h (2 Bft) N-NO 20 2 min 2,8 UV-I 424 W/m 6,5 C 13,1 C 16,1 km/h (3 Bft)
04.05.2022 11:04 14,6 C 20,0 C 62 % 1018,8 hPa 0,0 l/m 3,5 km/h (1 Bft) N 355 2 min 3,0 UV-I 410 W/m 7,4 C 14,6 C 6,4 km/h (2 Bft)
04.05.2022 11:06 14,4 C 20,0 C 61 % 1018,7 hPa 0,0 l/m 2,8 km/h (1 Bft) N-NW 327 2 min 2,8 UV-I 460 W/m 7,0 C 14,4 C 6,4 km/h (2 Bft)
04.05.2022 11:08 14,6 C 20,0 C 61 % 1018,7 hPa 0,0 l/m 3,9 km/h (1 Bft) NW 310 2 min 3,5 UV-I 587 W/m 7,2 C 14,6 C 8,0 km/h (2 Bft)
04.05.2022 11:10 14,6 C 20,6 C 59 % 1018,7 hPa 0,0 l/m 7,5 km/h (2 Bft) N 350 2 min 3,4 UV-I 438 W/m 6,7 C 14,0 C 16,1 km/h (3 Bft)
04.05.2022 11:12 14,6 C 20,6 C 62 % 1018,7 hPa 0,0 l/m 5,2 km/h (1 Bft) NO 35 2 min 3,0 UV-I 438 W/m 7,4 C 14,6 C 9,7 km/h (2 Bft)
04.05.2022 11:14 14,7 C 20,6 C 61 % 1018,7 hPa 0,0 l/m 13,4 km/h (3 Bft) N 5 2 min 3,2 UV-I 456 W/m 7,3 C 11,4 C 17,7 km/h (3 Bft)
04.05.2022 11:16 14,7 C 21,1 C 62 % 1018,6 hPa 0,0 l/m 8,8 km/h (2 Bft) N 349 2 min 3,0 UV-I 443 W/m 7,5 C 13,4 C 14,5 km/h (3 Bft)
04.05.2022 11:18 14,7 C 21,1 C 62 % 1018,6 hPa 0,0 l/m 9,6 km/h (2 Bft) N-NO 22 2 min 3,1 UV-I 436 W/m 7,5 C 13,0 C 14,5 km/h (3 Bft)
04.05.2022 11:20 14,7 C 21,7 C 62 % 1018,6 hPa 0,0 l/m 12,6 km/h (3 Bft) N-NO 24 2 min 3,5 UV-I 436 W/m 7,5 C 11,7 C 16,1 km/h (3 Bft)
04.05.2022 11:22 14,6 C 21,7 C 61 % 1018,6 hPa 0,0 l/m 9,9 km/h (2 Bft) N 360 2 min 3,1 UV-I 440 W/m 7,2 C 12,7 C 16,1 km/h (3 Bft)
04.05.2022 11:24 14,6 C 21,1 C 60 % 1018,7 hPa 0,0 l/m 10,0 km/h (2 Bft) N 355 2 min 3,0 UV-I 434 W/m 6,9 C 12,7 C 17,7 km/h (3 Bft)
04.05.2022 11:26 14,4 C 20,6 C 61 % 1018,6 hPa 0,0 l/m 8,3 km/h (2 Bft) N 355 2 min 2,9 UV-I 430 W/m 7,0 C 13,3 C 12,9 km/h (3 Bft)
04.05.2022 11:28 14,4 C 20,6 C 62 % 1018,7 hPa 0,0 l/m 8,6 km/h (2 Bft) NW 310 2 min 2,7 UV-I 392 W/m 7,2 C 13,1 C 14,5 km/h (3 Bft)
04.05.2022 11:30 14,4 C 20,0 C 62 % 1018,7 hPa 0,0 l/m 6,2 km/h (2 Bft) N-NW 340 0 min 2,4 UV-I 338 W/m 7,2 C 14,4 C 9,7 km/h (2 Bft)
04.05.2022 11:32 14,4 C 19,4 C 64 % 1018,6 hPa 0,0 l/m 6,7 km/h (2 Bft) N 355 0 min 2,4 UV-I 319 W/m 7,7 C 14,2 C 9,7 km/h (2 Bft)
04.05.2022 11:34 14,3 C 18,9 C 60 % 1018,7 hPa 0,0 l/m 8,6 km/h (2 Bft) N-NW 343 0 min 2,4 UV-I 313 W/m 6,6 C 13,0 C 12,9 km/h (3 Bft)
04.05.2022 11:36 14,2 C 18,9 C 62 % 1018,7 hPa 0,0 l/m 7,3 km/h (2 Bft) N 9 0 min 2,4 UV-I 314 W/m 7,0 C 13,7 C 12,9 km/h (3 Bft)
04.05.2022 11:38 14,2 C 18,9 C 62 % 1018,8 hPa 0,0 l/m 5,8 km/h (2 Bft) N 9 0 min 2,4 UV-I 332 W/m 7,0 C 14,2 C 8,0 km/h (2 Bft)
04.05.2022 11:40 14,2 C 18,9 C 64 % 1018,8 hPa 0,0 l/m 4,4 km/h (1 Bft) N 5 0 min 2,4 UV-I 335 W/m 7,5 C 14,2 C 8,0 km/h (2 Bft)
04.05.2022 11:42 14,2 C 18,3 C 64 % 1018,7 hPa 0,0 l/m 5,0 km/h (1 Bft) N-NW 340 0 min 2,3 UV-I 324 W/m 7,5 C 14,2 C 8,0 km/h (2 Bft)
04.05.2022 11:44 14,2 C 18,3 C 63 % 1018,7 hPa 0,0 l/m 7,5 km/h (2 Bft) N-NO 23 0 min 2,2 UV-I 313 W/m 7,3 C 13,5 C 12,9 km/h (3 Bft)
04.05.2022 11:46 14,1 C 18,3 C 62 % 1018,8 hPa 0,0 l/m 7,4 km/h (2 Bft) NO 40 0 min 2,2 UV-I 309 W/m 6,9 C 13,5 C 12,9 km/h (3 Bft)
04.05.2022 11:48 14,1 C 18,3 C 63 % 1018,9 hPa 0,0 l/m 5,5 km/h (1 Bft) N-NO 22 0 min 2,2 UV-I 315 W/m 7,2 C 14,1 C 8,0 km/h (2 Bft)
04.05.2022 11:50 14,1 C 18,3 C 62 % 1018,9 hPa 0,0 l/m 5,8 km/h (2 Bft) N 11 0 min 2,4 UV-I 340 W/m 6,9 C 14,1 C 8,0 km/h (2 Bft)
04.05.2022 11:52 14,1 C 18,3 C 61 % 1018,7 hPa 0,0 l/m 5,5 km/h (1 Bft) N-NO 15 0 min 2,2 UV-I 314 W/m 6,7 C 14,1 C 8,0 km/h (2 Bft)
04.05.2022 11:54 14,0 C 18,3 C 61 % 1018,8 hPa 0,0 l/m 5,5 km/h (1 Bft) N 360 0 min 2,3 UV-I 336 W/m 6,6 C 14,0 C 9,7 km/h (2 Bft)
04.05.2022 11:56 13,9 C 18,9 C 63 % 1018,7 hPa 0,0 l/m 5,3 km/h (1 Bft) N 360 2 min 2,6 UV-I 382 W/m 7,0 C 13,9 C 8,0 km/h (2 Bft)
04.05.2022 11:58 14,1 C 18,9 C 62 % 1018,8 hPa 0,0 l/m 8,1 km/h (2 Bft) N 350 2 min 2,8 UV-I 413 W/m 6,9 C 13,1 C 12,9 km/h (3 Bft)
04.05.2022 12:00 14,2 C 18,9 C 62 % 1018,7 hPa 0,0 l/m 7,0 km/h (2 Bft) N 5 2 min 2,8 UV-I 391 W/m 7,0 C 13,8 C 9,7 km/h (2 Bft)
04.05.2022 12:02 14,3 C 19,4 C 63 % 1018,8 hPa 0,0 l/m 4,7 km/h (1 Bft) N 5 2 min 2,5 UV-I 347 W/m 7,4 C 14,3 C 6,4 km/h (2 Bft)
04.05.2022 12:04 14,1 C 18,9 C 63 % 1018,8 hPa 0,0 l/m 4,4 km/h (1 Bft) N-NO 17 0 min 2,4 UV-I 326 W/m 7,2 C 14,1 C 6,4 km/h (2 Bft)
04.05.2022 12:06 14,1 C 18,9 C 62 % 1018,9 hPa 0,0 l/m 6,0 km/h (2 Bft) N 9 0 min 2,4 UV-I 325 W/m 6,9 C 14,1 C 8,0 km/h (2 Bft)
04.05.2022 12:08 14,1 C 18,9 C 62 % 1018,8 hPa 0,0 l/m 5,7 km/h (1 Bft) N-NO 21 2 min 2,6 UV-I 344 W/m 6,9 C 14,1 C 8,0 km/h (2 Bft)
04.05.2022 12:10 14,2 C 18,9 C 65 % 1018,8 hPa 0,0 l/m 6,1 km/h (2 Bft) N 360 2 min 2,7 UV-I 392 W/m 7,7 C 14,2 C 11,3 km/h (2 Bft)
04.05.2022 12:12 14,4 C 19,4 C 66 % 1018,8 hPa 0,0 l/m 6,6 km/h (2 Bft) N-NO 20 2 min 2,6 UV-I 390 W/m 8,1 C 14,3 C 14,5 km/h (3 Bft)
04.05.2022 12:14 14,4 C 18,9 C 62 % 1018,9 hPa 0,0 l/m 7,0 km/h (2 Bft) N 349 2 min 2,6 UV-I 369 W/m 7,2 C 14,1 C 9,7 km/h (2 Bft)
04.05.2022 12:16 14,3 C 18,9 C 63 % 1018,9 hPa 0,0 l/m 5,7 km/h (1 Bft) N 5 2 min 2,9 UV-I 406 W/m 7,4 C 14,3 C 8,0 km/h (2 Bft)
04.05.2022 12:18 14,5 C 20,6 C 65 % 1018,7 hPa 0,0 l/m 6,7 km/h (2 Bft) N 5 2 min 3,4 UV-I 443 W/m 8,0 C 14,3 C 9,7 km/h (2 Bft)
04.05.2022 12:20 14,6 C 20,6 C 65 % 1018,9 hPa 0,0 l/m 7,5 km/h (2 Bft) NW 323 2 min 3,3 UV-I 460 W/m 8,1 C 14,0 C 12,9 km/h (3 Bft)
04.05.2022 12:22 14,5 C 20,0 C 63 % 1018,8 hPa 0,0 l/m 3,0 km/h (1 Bft) NW 325 2 min 3,0 UV-I 516 W/m 7,5 C 14,5 C 4,8 km/h (1 Bft)
04.05.2022 12:24 14,6 C 20,6 C 65 % 1018,8 hPa 0,0 l/m 5,4 km/h (1 Bft) N 10 2 min 3,1 UV-I 485 W/m 8,1 C 14,6 C 8,0 km/h (2 Bft)
04.05.2022 12:26 14,4 C 20,6 C 62 % 1018,8 hPa 0,0 l/m 5,4 km/h (1 Bft) N 355 2 min 2,7 UV-I 421 W/m 7,2 C 14,4 C 8,0 km/h (2 Bft)
04.05.2022 12:28 14,5 C 20,0 C 64 % 1018,8 hPa 0,0 l/m 5,4 km/h (1 Bft) N-NW 331 2 min 2,9 UV-I 397 W/m 7,8 C 14,5 C 8,0 km/h (2 Bft)
04.05.2022 12:30 14,5 C 20,6 C 61 % 1018,7 hPa 0,0 l/m 5,2 km/h (1 Bft) N-NW 340 2 min 3,2 UV-I 427 W/m 7,1 C 14,5 C 6,4 km/h (2 Bft)
04.05.2022 12:32 14,4 C 20,6 C 62 % 1018,7 hPa 0,0 l/m 5,1 km/h (1 Bft) N 360 2 min 3,4 UV-I 447 W/m 7,2 C 14,4 C 6,4 km/h (2 Bft)
04.05.2022 12:34 14,3 C 20,0 C 63 % 1018,8 hPa 0,0 l/m 2,7 km/h (1 Bft) N-NW 342 2 min 3,4 UV-I 431 W/m 7,4 C 14,3 C 6,4 km/h (2 Bft)
04.05.2022 12:36 14,4 C 19,4 C 64 % 1018,8 hPa 0,0 l/m 3,9 km/h (1 Bft) N 360 2 min 3,2 UV-I 399 W/m 7,7 C 14,4 C 6,4 km/h (2 Bft)
04.05.2022 12:38 14,7 C 19,4 C 64 % 1018,7 hPa 0,0 l/m 8,5 km/h (2 Bft) N-NW 336 2 min 3,1 UV-I 391 W/m 8,0 C 13,5 C 16,1 km/h (3 Bft)
04.05.2022 12:40 14,6 C 18,9 C 65 % 1018,8 hPa 0,0 l/m 13,0 km/h (3 Bft) NW 318 2 min 2,9 UV-I 364 W/m 8,1 C 11,4 C 20,9 km/h (4 Bft)
04.05.2022 12:42 14,3 C 18,9 C 64 % 1018,8 hPa 0,0 l/m 13,6 km/h (3 Bft) N 355 0 min 2,7 UV-I 330 W/m 7,6 C 10,8 C 16,1 km/h (3 Bft)
04.05.2022 12:44 14,1 C 18,3 C 65 % 1018,7 hPa 0,0 l/m 12,5 km/h (3 Bft) N-NO 21 0 min 2,5 UV-I 313 W/m 7,6 C 11,0 C 16,1 km/h (3 Bft)
04.05.2022 12:46 13,9 C 18,3 C 66 % 1018,8 hPa 0,0 l/m 8,8 km/h (2 Bft) N-NW 346 0 min 2,5 UV-I 328 W/m 7,7 C 12,5 C 12,9 km/h (3 Bft)
04.05.2022 12:48 14,1 C 18,3 C 68 % 1018,7 hPa 0,0 l/m 9,2 km/h (2 Bft) N 355 2 min 2,8 UV-I 370 W/m 8,3 C 12,5 C 14,5 km/h (3 Bft)
04.05.2022 12:50 14,1 C 18,3 C 65 % 1018,8 hPa 0,0 l/m 5,5 km/h (1 Bft) N 355 2 min 2,9 UV-I 389 W/m 7,6 C 14,1 C 9,7 km/h (2 Bft)
04.05.2022 12:52 14,1 C 18,3 C 66 % 1018,8 hPa 0,0 l/m 3,9 km/h (1 Bft) W-NW 296 0 min 2,6 UV-I 335 W/m 7,8 C 14,1 C 8,0 km/h (2 Bft)
04.05.2022 12:54 14,2 C 18,3 C 68 % 1018,8 hPa 0,0 l/m 6,7 km/h (2 Bft) N-NW 342 0 min 2,3 UV-I 310 W/m 8,4 C 14,0 C 11,3 km/h (2 Bft)
04.05.2022 12:56 14,1 C 18,3 C 66 % 1018,8 hPa 0,0 l/m 4,2 km/h (1 Bft) N-NW 331 0 min 2,5 UV-I 331 W/m 7,8 C 14,1 C 9,7 km/h (2 Bft)
04.05.2022 12:58 14,3 C 19,4 C 66 % 1018,8 hPa 0,0 l/m 5,3 km/h (1 Bft) NO 42 0 min 3,3 UV-I 338 W/m 8,0 C 14,3 C 8,0 km/h (2 Bft)
04.05.2022 13:00 14,4 C 19,4 C 66 % 1018,8 hPa 0,0 l/m 7,9 km/h (2 Bft) N-NO 13 0 min 2,4 UV-I 318 W/m 8,1 C 13,5 C 14,5 km/h (3 Bft)
04.05.2022 13:02 14,1 C 19,4 C 65 % 1018,7 hPa 0,0 l/m 5,0 km/h (1 Bft) N-NO 27 0 min 2,1 UV-I 283 W/m 7,6 C 14,1 C 8,0 km/h (2 Bft)
04.05.2022 13:04 14,1 C 18,3 C 68 % 1018,7 hPa 0,0 l/m 6,4 km/h (2 Bft) N 5 0 min 1,9 UV-I 254 W/m 8,3 C 14,1 C 11,3 km/h (2 Bft)
04.05.2022 13:06 14,1 C 17,8 C 68 % 1018,8 hPa 0,0 l/m 8,0 km/h (2 Bft) N 360 0 min 1,7 UV-I 230 W/m 8,3 C 13,2 C 14,5 km/h (3 Bft)
04.05.2022 13:08 14,0 C 17,2 C 68 % 1018,8 hPa 0,0 l/m 6,7 km/h (2 Bft) N 10 0 min 1,4 UV-I 199 W/m 8,2 C 13,8 C 9,7 km/h (2 Bft)
04.05.2022 13:10 13,9 C 16,7 C 67 % 1018,7 hPa 0,0 l/m 7,1 km/h (2 Bft) N-NW 348 0 min 1,2 UV-I 170 W/m 7,9 C 13,5 C 9,7 km/h (2 Bft)
04.05.2022 13:12 13,7 C 16,7 C 68 % 1018,7 hPa 0,0 l/m 5,9 km/h (2 Bft) N 355 0 min 1,1 UV-I 158 W/m 7,9 C 13,7 C 8,0 km/h (2 Bft)
04.05.2022 13:14 13,6 C 16,1 C 68 % 1018,7 hPa 0,0 l/m 5,3 km/h (1 Bft) N 355 0 min 1,0 UV-I 150 W/m 7,8 C 13,6 C 6,4 km/h (2 Bft)
04.05.2022 13:16 13,5 C 16,1 C 68 % 1018,8 hPa 0,0 l/m 4,2 km/h (1 Bft) N 355 0 min 1,0 UV-I 151 W/m 7,7 C 13,5 C 8,0 km/h (2 Bft)
04.05.2022 13:18 13,5 C 16,1 C 68 % 1018,8 hPa 0,0 l/m 5,5 km/h (1 Bft) N 360 0 min 1,1 UV-I 170 W/m 7,7 C 13,5 C 8,0 km/h (2 Bft)
04.05.2022 13:20 13,6 C 16,1 C 68 % 1018,8 hPa 0,0 l/m 3,0 km/h (1 Bft) N 355 0 min 1,3 UV-I 200 W/m 7,8 C 13,6 C 4,8 km/h (1 Bft)
04.05.2022 13:22 13,7 C 16,7 C 68 % 1018,8 hPa 0,0 l/m 5,3 km/h (1 Bft) N 349 0 min 1,6 UV-I 237 W/m 7,9 C 13,7 C 8,0 km/h (2 Bft)
04.05.2022 13:24 13,8 C 17,2 C 70 % 1018,8 hPa 0,0 l/m 9,4 km/h (2 Bft) N-NW 342 0 min 2,1 UV-I 288 W/m 8,4 C 12,1 C 14,5 km/h (3 Bft)
04.05.2022 13:26 13,9 C 18,9 C 69 % 1018,8 hPa 0,0 l/m 14,7 km/h (3 Bft) N 355 2 min 3,3 UV-I 422 W/m 8,3 C 10,0 C 17,7 km/h (3 Bft)
04.05.2022 13:28 14,1 C 20,0 C 70 % 1018,8 hPa 0,0 l/m 8,4 km/h (2 Bft) N-NW 336 2 min 3,2 UV-I 622 W/m 8,7 C 12,9 C 16,1 km/h (3 Bft)
04.05.2022 13:30 14,1 C 20,0 C 69 % 1018,8 hPa 0,0 l/m 7,9 km/h (2 Bft) N-NW 345 2 min 2,7 UV-I 365 W/m 8,5 C 13,2 C 14,5 km/h (3 Bft)
04.05.2022 13:32 14,1 C 18,9 C 69 % 1018,9 hPa 0,0 l/m 10,1 km/h (2 Bft) N-NW 336 0 min 2,6 UV-I 333 W/m 8,5 C 12,1 C 16,1 km/h (3 Bft)
04.05.2022 13:34 13,9 C 18,3 C 69 % 1018,8 hPa 0,0 l/m 8,8 km/h (2 Bft) N-NW 336 0 min 2,6 UV-I 307 W/m 8,3 C 12,5 C 14,5 km/h (3 Bft)
04.05.2022 13:36 13,9 C 17,8 C 69 % 1018,8 hPa 0,0 l/m 6,6 km/h (2 Bft) N 360 0 min 2,4 UV-I 267 W/m 8,3 C 13,8 C 14,5 km/h (3 Bft)
04.05.2022 13:38 13,9 C 17,2 C 68 % 1018,8 hPa 0,0 l/m 6,8 km/h (2 Bft) N 350 0 min 2,4 UV-I 271 W/m 8,1 C 13,7 C 12,9 km/h (3 Bft)
04.05.2022 13:40 13,7 C 16,7 C 68 % 1018,8 hPa 0,0 l/m 9,7 km/h (2 Bft) NW 323 0 min 2,5 UV-I 264 W/m 7,9 C 11,8 C 17,7 km/h (3 Bft)
04.05.2022 13:42 13,7 C 16,7 C 69 % 1018,8 hPa 0,0 l/m 4,9 km/h (1 Bft) NW 321 0 min 2,4 UV-I 256 W/m 8,1 C 13,7 C 9,7 km/h (2 Bft)
04.05.2022 13:44 13,7 C 16,7 C 69 % 1018,7 hPa 0,0 l/m 5,2 km/h (1 Bft) N-NW 332 0 min 2,5 UV-I 257 W/m 8,1 C 13,7 C 8,0 km/h (2 Bft)
04.05.2022 13:46 13,7 C 16,7 C 69 % 1018,8 hPa 0,0 l/m 5,5 km/h (1 Bft) N-NW 341 0 min 2,7 UV-I 281 W/m 8,1 C 13,7 C 8,0 km/h (2 Bft)
04.05.2022 13:48 13,8 C 17,2 C 69 % 1018,7 hPa 0,0 l/m 5,5 km/h (1 Bft) N 360 0 min 3,7 UV-I 325 W/m 8,2 C 13,8 C 8,0 km/h (2 Bft)
04.05.2022 13:50 14,2 C 20,6 C 71 % 1018,7 hPa 0,0 l/m 7,7 km/h (2 Bft) N-NO 19 2 min 5,1 UV-I 796 W/m 9,0 C 13,4 C 12,9 km/h (3 Bft)
04.05.2022 13:52 14,4 C 23,3 C 70 % 1018,6 hPa 0,0 l/m 9,2 km/h (2 Bft) N-NO 28 2 min 4,8 UV-I 909 W/m 9,0 C 12,8 C 16,1 km/h (3 Bft)
04.05.2022 13:54 14,8 C 24,4 C 71 % 1018,6 hPa 0,0 l/m 9,3 km/h (2 Bft) N 360 2 min 5,2 UV-I 923 W/m 9,6 C 13,2 C 14,5 km/h (3 Bft)
04.05.2022 13:56 15,2 C 26,1 C 69 % 1018,7 hPa 0,0 l/m 9,4 km/h (2 Bft) N-NO 28 2 min 4,9 UV-I 981 W/m 9,6 C 13,6 C 14,5 km/h (3 Bft)
04.05.2022 13:58 15,2 C 26,1 C 67 % 1018,6 hPa 0,0 l/m 8,5 km/h (2 Bft) N 355 2 min 4,6 UV-I 934 W/m 9,1 C 14,1 C 12,9 km/h (3 Bft)
04.05.2022 14:00 15,1 C 25,0 C 67 % 1018,6 hPa 0,0 l/m 8,4 km/h (2 Bft) NO 37 2 min 3,0 UV-I 793 W/m 9,0 C 14,0 C 12,9 km/h (3 Bft)
04.05.2022 14:02 14,6 C 20,6 C 67 % 1018,6 hPa 0,0 l/m 6,8 km/h (2 Bft) O-NO 61 0 min 2,3 UV-I 251 W/m 8,5 C 14,4 C 11,3 km/h (2 Bft)
04.05.2022 14:04 14,2 C 19,4 C 68 % 1018,5 hPa 0,0 l/m 8,3 km/h (2 Bft) N-NO 19 0 min 2,1 UV-I 235 W/m 8,4 C 13,1 C 14,5 km/h (3 Bft)
04.05.2022 14:06 13,9 C 18,9 C 67 % 1018,5 hPa 0,0 l/m 5,4 km/h (1 Bft) N-NO 22 0 min 1,8 UV-I 225 W/m 7,9 C 13,9 C 11,3 km/h (2 Bft)
04.05.2022 14:08 13,8 C 18,3 C 69 % 1018,5 hPa 0,0 l/m 2,9 km/h (1 Bft) N-NO 22 0 min 1,6 UV-I 214 W/m 8,2 C 13,8 C 6,4 km/h (2 Bft)
04.05.2022 14:10 13,7 C 17,2 C 68 % 1018,6 hPa 0,0 l/m 1,6 km/h (1 Bft) N-NO 22 0 min 1,4 UV-I 198 W/m 7,9 C 13,7 C 3,2 km/h (1 Bft)
04.05.2022 14:12 13,7 C 16,7 C 69 % 1018,6 hPa 0,0 l/m 2,0 km/h (1 Bft) N-NO 22 0 min 1,2 UV-I 169 W/m 8,1 C 13,7 C 4,8 km/h (1 Bft)
04.05.2022 14:14 13,6 C 16,1 C 69 % 1018,5 hPa 0,0 l/m 3,2 km/h (1 Bft) W-NW 298 0 min 1,0 UV-I 139 W/m 8,0 C 13,6 C 6,4 km/h (2 Bft)
04.05.2022 14:16 13,6 C 15,6 C 69 % 1018,6 hPa 0,0 l/m 4,0 km/h (1 Bft) NW 309 0 min 0,8 UV-I 120 W/m 8,0 C 13,6 C 6,4 km/h (2 Bft)
04.05.2022 14:18 13,6 C 15,0 C 68 % 1018,6 hPa 0,0 l/m 2,5 km/h (1 Bft) NW 310 0 min 0,7 UV-I 113 W/m 7,8 C 13,6 C 4,8 km/h (1 Bft)
04.05.2022 14:20 13,6 C 15,0 C 69 % 1018,5 hPa 0,0 l/m 1,3 km/h (1 Bft) NW 309 0 min 0,8 UV-I 119 W/m 8,0 C 13,6 C 3,2 km/h (1 Bft)
04.05.2022 14:22 13,7 C 15,6 C 69 % 1018,5 hPa 0,0 l/m 4,9 km/h (1 Bft) NW 316 0 min 0,9 UV-I 130 W/m 8,1 C 13,7 C 8,0 km/h (2 Bft)
04.05.2022 14:24 13,7 C 15,6 C 68 % 1018,6 hPa 0,0 l/m 6,2 km/h (2 Bft) N 10 0 min 1,0 UV-I 147 W/m 7,9 C 13,7 C 8,0 km/h (2 Bft)
04.05.2022 14:26 13,6 C 15,6 C 68 % 1018,6 hPa 0,0 l/m 3,4 km/h (1 Bft) N 9 0 min 1,3 UV-I 188 W/m 7,8 C 13,6 C 4,8 km/h (1 Bft)
04.05.2022 14:28 13,7 C 16,1 C 69 % 1018,5 hPa 0,0 l/m 3,9 km/h (1 Bft) N-NW 335 0 min 1,6 UV-I 234 W/m 8,1 C 13,7 C 6,4 km/h (2 Bft)
04.05.2022 14:30 13,9 C 16,1 C 69 % 1018,5 hPa 0,0 l/m 4,6 km/h (1 Bft) W-NW 293 0 min 1,8 UV-I 240 W/m 8,3 C 13,9 C 11,3 km/h (2 Bft)
04.05.2022 14:32 13,9 C 16,1 C 68 % 1018,5 hPa 0,0 l/m 4,9 km/h (1 Bft) NW 319 0 min 1,9 UV-I 260 W/m 8,1 C 13,9 C 8,0 km/h (2 Bft)
04.05.2022 14:34 13,9 C 17,2 C 68 % 1018,4 hPa 0,0 l/m 4,5 km/h (1 Bft) W-NW 285 0 min 2,2 UV-I 306 W/m 8,1 C 13,9 C 9,7 km/h (2 Bft)
04.05.2022 14:36 14,1 C 17,8 C 66 % 1018,5 hPa 0,0 l/m 7,8 km/h (2 Bft) NW 323 2 min 2,8 UV-I 372 W/m 7,8 C 13,3 C 12,9 km/h (3 Bft)
04.05.2022 14:38 14,4 C 20,0 C 67 % 1018,5 hPa 0,0 l/m 5,7 km/h (1 Bft) NW 308 2 min 4,3 UV-I 387 W/m 8,4 C 14,4 C 9,7 km/h (2 Bft)
04.05.2022 14:40 14,5 C 20,6 C 65 % 1018,6 hPa 0,0 l/m 2,3 km/h (1 Bft) NW 318 2 min 3,1 UV-I 374 W/m 8,0 C 14,5 C 4,8 km/h (1 Bft)
04.05.2022 14:42 14,1 C 18,9 C 66 % 1018,6 hPa 0,0 l/m 3,6 km/h (1 Bft) NW 323 0 min 2,1 UV-I 277 W/m 7,8 C 14,1 C 12,9 km/h (3 Bft)
04.05.2022 14:44 14,2 C 17,8 C 68 % 1018,5 hPa 0,0 l/m 8,3 km/h (2 Bft) NW 323 0 min 1,6 UV-I 205 W/m 8,4 C 13,1 C 12,9 km/h (3 Bft)
04.05.2022 14:46 14,1 C 16,7 C 66 % 1018,6 hPa 0,0 l/m 9,7 km/h (2 Bft) NW 304 0 min 1,3 UV-I 168 W/m 7,8 C 12,3 C 16,1 km/h (3 Bft)
04.05.2022 14:48 14,0 C 16,1 C 68 % 1018,6 hPa 0,0 l/m 10,9 km/h (2 Bft) W 279 0 min 1,0 UV-I 152 W/m 8,2 C 11,6 C 17,7 km/h (3 Bft)
04.05.2022 14:50 13,9 C 15,6 C 67 % 1018,6 hPa 0,0 l/m 8,7 km/h (2 Bft) NW 315 0 min 1,1 UV-I 162 W/m 7,9 C 12,6 C 16,1 km/h (3 Bft)
04.05.2022 14:52 13,8 C 15,6 C 68 % 1018,6 hPa 0,0 l/m 9,1 km/h (2 Bft) N-NW 333 0 min 1,2 UV-I 185 W/m 8,0 C 12,2 C 16,1 km/h (3 Bft)
04.05.2022 14:54 13,7 C 15,0 C 68 % 1018,6 hPa 0,0 l/m 9,6 km/h (2 Bft) NW 319 0 min 1,5 UV-I 193 W/m 7,9 C 11,9 C 16,1 km/h (3 Bft)
04.05.2022 14:56 13,7 C 15,6 C 68 % 1018,6 hPa 0,0 l/m 6,8 km/h (2 Bft) N-NW 333 0 min 1,5 UV-I 201 W/m 7,9 C 13,5 C 16,1 km/h (3 Bft)
04.05.2022 14:58 13,8 C 16,1 C 68 % 1018,5 hPa 0,0 l/m 6,3 km/h (2 Bft) NW 311 0 min 1,6 UV-I 208 W/m 8,0 C 13,8 C 14,5 km/h (3 Bft)
04.05.2022 15:00 13,8 C 16,1 C 68 % 1018,5 hPa 0,0 l/m 5,1 km/h (1 Bft) N 360 0 min 1,6 UV-I 236 W/m 8,0 C 13,8 C 6,4 km/h (2 Bft)
04.05.2022 15:02 13,9 C 16,7 C 69 % 1018,5 hPa 0,0 l/m 8,9 km/h (2 Bft) N-NW 348 0 min 1,9 UV-I 271 W/m 8,3 C 12,5 C 14,5 km/h (3 Bft)
04.05.2022 15:04 13,9 C 17,2 C 68 % 1018,4 hPa 0,0 l/m 5,5 km/h (1 Bft) N 5 0 min 2,2 UV-I 304 W/m 8,1 C 13,9 C 9,7 km/h (2 Bft)
04.05.2022 15:06 14,0 C 18,3 C 68 % 1018,5 hPa 0,0 l/m 7,5 km/h (2 Bft) N 355 0 min 2,7 UV-I 324 W/m 8,2 C 13,3 C 9,7 km/h (2 Bft)
04.05.2022 15:08 14,1 C 18,9 C 67 % 1018,5 hPa 0,0 l/m 6,8 km/h (2 Bft) N-NW 341 0 min 3,6 UV-I 329 W/m 8,1 C 13,9 C 9,7 km/h (2 Bft)
04.05.2022 15:10 14,4 C 20,6 C 68 % 1018,4 hPa 0,0 l/m 4,1 km/h (1 Bft) N-NW 347 0 min 3,5 UV-I 329 W/m 8,6 C 14,4 C 6,4 km/h (2 Bft)
04.05.2022 15:12 14,6 C 21,7 C 68 % 1018,4 hPa 0,0 l/m 5,9 km/h (2 Bft) N-NO 13 0 min 4,1 UV-I 329 W/m 8,8 C 14,6 C 11,3 km/h (2 Bft)
04.05.2022 15:14 14,7 C 22,8 C 66 % 1018,4 hPa 0,0 l/m 7,9 km/h (2 Bft) N 350 0 min 3,9 UV-I 329 W/m 8,4 C 13,8 C 12,9 km/h (3 Bft)
04.05.2022 15:16 14,4 C 21,1 C 65 % 1018,4 hPa 0,0 l/m 10,0 km/h (2 Bft) N 360 0 min 2,7 UV-I 295 W/m 7,9 C 12,5 C 17,7 km/h (3 Bft)
04.05.2022 15:18 14,2 C 20,0 C 68 % 1018,3 hPa 0,0 l/m 9,2 km/h (2 Bft) N-NO 14 0 min 2,7 UV-I 280 W/m 8,4 C 12,6 C 14,5 km/h (3 Bft)
04.05.2022 15:20 14,3 C 19,4 C 68 % 1018,3 hPa 0,0 l/m 10,1 km/h (2 Bft) NO 38 0 min 2,7 UV-I 304 W/m 8,5 C 12,3 C 14,5 km/h (3 Bft)
04.05.2022 15:22 14,2 C 19,4 C 68 % 1018,2 hPa 0,0 l/m 11,4 km/h (2 Bft) N-NO 12 0 min 2,6 UV-I 301 W/m 8,4 C 11,6 C 16,1 km/h (3 Bft)
04.05.2022 15:24 14,2 C 18,9 C 70 % 1018,3 hPa 0,0 l/m 6,4 km/h (2 Bft) NO 39 0 min 2,8 UV-I 326 W/m 8,8 C 14,2 C 12,9 km/h (3 Bft)
04.05.2022 15:26 14,4 C 20,6 C 69 % 1018,2 hPa 0,0 l/m 5,8 km/h (2 Bft) N-NO 18 2 min 3,7 UV-I 390 W/m 8,8 C 14,4 C 9,7 km/h (2 Bft)
04.05.2022 15:28 14,6 C 21,1 C 68 % 1018,2 hPa 0,0 l/m 5,7 km/h (1 Bft) N-NO 12 2 min 3,4 UV-I 392 W/m 8,8 C 14,6 C 9,7 km/h (2 Bft)
04.05.2022 15:30 14,4 C 20,6 C 67 % 1018,2 hPa 0,0 l/m 8,3 km/h (2 Bft) NO 34 0 min 2,7 UV-I 268 W/m 8,4 C 13,3 C 12,9 km/h (3 Bft)
04.05.2022 15:32 14,8 C 21,7 C 69 % 1018,3 hPa 0,0 l/m 11,5 km/h (2 Bft) N 355 2 min 4,1 UV-I 533 W/m 9,2 C 12,2 C 16,1 km/h (3 Bft)
04.05.2022 15:34 15,3 C 23,9 C 67 % 1018,2 hPa 0,0 l/m 11,2 km/h (2 Bft) NW 308 2 min 4,4 UV-I 792 W/m 9,2 C 12,9 C 19,3 km/h (3 Bft)
04.05.2022 15:36 15,6 C 25,0 C 64 % 1018,1 hPa 0,0 l/m 10,0 km/h (2 Bft) N-NW 337 2 min 4,3 UV-I 764 W/m 8,8 C 13,8 C 17,7 km/h (3 Bft)
04.05.2022 15:38 15,6 C 25,0 C 64 % 1018,3 hPa 0,0 l/m 14,6 km/h (3 Bft) NW 318 2 min 4,2 UV-I 768 W/m 8,8 C 12,0 C 19,3 km/h (3 Bft)
04.05.2022 15:40 15,1 C 21,7 C 63 % 1018,3 hPa 0,0 l/m 11,2 km/h (2 Bft) N 355 2 min 2,3 UV-I 361 W/m 8,1 C 12,7 C 17,7 km/h (3 Bft)
04.05.2022 15:42 14,6 C 19,4 C 64 % 1018,3 hPa 0,0 l/m 11,8 km/h (2 Bft) N 5 0 min 2,0 UV-I 180 W/m 7,9 C 11,9 C 19,3 km/h (3 Bft)
04.05.2022 15:44 14,3 C 18,3 C 65 % 1018,3 hPa 0,0 l/m 7,9 km/h (2 Bft) N-NW 338 0 min 1,9 UV-I 211 W/m 7,8 C 13,4 C 14,5 km/h (3 Bft)
04.05.2022 15:46 14,2 C 17,8 C 66 % 1018,2 hPa 0,0 l/m 10,3 km/h (2 Bft) N 350 0 min 1,9 UV-I 239 W/m 7,9 C 12,1 C 17,7 km/h (3 Bft)
04.05.2022 15:48 14,1 C 17,2 C 66 % 1018,3 hPa 0,0 l/m 13,0 km/h (3 Bft) N 350 0 min 2,0 UV-I 269 W/m 7,8 C 10,8 C 17,7 km/h (3 Bft)
04.05.2022 15:50 14,1 C 17,8 C 66 % 1018,2 hPa 0,0 l/m 13,7 km/h (3 Bft) NW 309 0 min 2,3 UV-I 297 W/m 7,8 C 10,6 C 19,3 km/h (3 Bft)
04.05.2022 15:52 14,1 C 17,8 C 66 % 1018,3 hPa 0,0 l/m 13,3 km/h (3 Bft) N-NW 346 0 min 2,0 UV-I 259 W/m 7,8 C 10,7 C 22,5 km/h (4 Bft)
04.05.2022 15:54 14,1 C 17,2 C 66 % 1018,3 hPa 0,0 l/m 12,4 km/h (3 Bft) N-NW 346 0 min 1,9 UV-I 259 W/m 7,8 C 11,1 C 20,9 km/h (4 Bft)
04.05.2022 15:56 14,1 C 17,2 C 67 % 1018,2 hPa 0,0 l/m 11,6 km/h (2 Bft) N 349 0 min 2,0 UV-I 276 W/m 8,1 C 11,4 C 17,7 km/h (3 Bft)
04.05.2022 15:58 14,1 C 17,2 C 67 % 1018,2 hPa 0,0 l/m 10,3 km/h (2 Bft) N 349 0 min 2,0 UV-I 259 W/m 8,1 C 12,0 C 16,1 km/h (3 Bft)
04.05.2022 16:00 14,1 C 17,2 C 66 % 1018,2 hPa 0,0 l/m 11,2 km/h (2 Bft) N 349 0 min 1,7 UV-I 206 W/m 7,8 C 11,6 C 17,7 km/h (3 Bft)
04.05.2022 16:02 14,0 C 16,7 C 67 % 1018,2 hPa 0,0 l/m 9,2 km/h (2 Bft) N-NW 332 0 min 1,6 UV-I 227 W/m 8,0 C 12,4 C 17,7 km/h (3 Bft)
04.05.2022 16:04 14,0 C 16,7 C 66 % 1018,2 hPa 0,0 l/m 9,0 km/h (2 Bft) N-NW 334 0 min 1,6 UV-I 237 W/m 7,7 C 12,5 C 14,5 km/h (3 Bft)
04.05.2022 16:06 14,1 C 16,7 C 67 % 1018,2 hPa 0,0 l/m 7,2 km/h (2 Bft) N-NW 343 0 min 1,7 UV-I 255 W/m 8,1 C 13,6 C 17,7 km/h (3 Bft)
04.05.2022 16:08 14,2 C 17,2 C 66 % 1018,2 hPa 0,0 l/m 7,6 km/h (2 Bft) N 355 0 min 2,1 UV-I 337 W/m 7,9 C 13,5 C 16,1 km/h (3 Bft)
04.05.2022 16:10 14,2 C 17,2 C 66 % 1018,1 hPa 0,0 l/m 10,2 km/h (2 Bft) N 355 0 min 1,7 UV-I 264 W/m 7,9 C 12,1 C 16,1 km/h (3 Bft)
04.05.2022 16:12 14,2 C 17,2 C 67 % 1018,2 hPa 0,0 l/m 8,6 km/h (2 Bft) N-NO 15 0 min 1,4 UV-I 204 W/m 8,2 C 12,9 C 12,9 km/h (3 Bft)
04.05.2022 16:14 14,3 C 16,7 C 67 % 1018,3 hPa 0,0 l/m 7,0 km/h (2 Bft) N-NW 345 0 min 1,3 UV-I 170 W/m 8,3 C 13,9 C 14,5 km/h (3 Bft)
04.05.2022 16:16 14,2 C 16,7 C 68 % 1018,2 hPa 0,0 l/m 7,6 km/h (2 Bft) N 5 0 min 1,1 UV-I 170 W/m 8,4 C 13,5 C 12,9 km/h (3 Bft)
04.05.2022 16:18 14,2 C 16,1 C 69 % 1018,2 hPa 0,0 l/m 7,2 km/h (2 Bft) NO 35 0 min 1,1 UV-I 161 W/m 8,6 C 13,7 C 12,9 km/h (3 Bft)
04.05.2022 16:20 14,1 C 16,1 C 69 % 1018,2 hPa 0,0 l/m 7,3 km/h (2 Bft) N 10 0 min 1,0 UV-I 161 W/m 8,5 C 13,6 C 11,3 km/h (2 Bft)
04.05.2022 16:22 13,9 C 16,1 C 68 % 1018,3 hPa 0,0 l/m 7,0 km/h (2 Bft) N-NO 15 0 min 0,9 UV-I 145 W/m 8,1 C 13,5 C 11,3 km/h (2 Bft)
04.05.2022 16:24 13,9 C 15,6 C 67 % 1018,3 hPa 0,0 l/m 6,6 km/h (2 Bft) N-NW 348 0 min 0,8 UV-I 126 W/m 7,9 C 13,8 C 11,3 km/h (2 Bft)
04.05.2022 16:26 13,8 C 15,6 C 68 % 1018,2 hPa 0,0 l/m 5,9 km/h (2 Bft) N-NO 22 0 min 0,6 UV-I 100 W/m 8,0 C 13,8 C 9,7 km/h (2 Bft)
04.05.2022 16:28 13,8 C 15,0 C 67 % 1018,3 hPa 0,0 l/m 6,9 km/h (2 Bft) NW 315 0 min 0,5 UV-I 88 W/m 7,8 C 13,5 C 12,9 km/h (3 Bft)
04.05.2022 16:30 13,8 C 14,4 C 66 % 1018,3 hPa 0,0 l/m 8,7 km/h (2 Bft) N-NW 347 0 min 0,5 UV-I 84 W/m 7,6 C 12,5 C 14,5 km/h (3 Bft)
04.05.2022 16:32 13,7 C 14,4 C 66 % 1018,3 hPa 0,0 l/m 7,8 km/h (2 Bft) N 355 0 min 0,5 UV-I 85 W/m 7,5 C 12,9 C 11,3 km/h (2 Bft)
04.05.2022 16:34 13,7 C 14,4 C 67 % 1018,3 hPa 0,0 l/m 7,8 km/h (2 Bft) N-NW 343 0 min 0,5 UV-I 92 W/m 7,7 C 12,9 C 14,5 km/h (3 Bft)
04.05.2022 16:36 13,6 C 14,4 C 68 % 1018,4 hPa 0,0 l/m 4,9 km/h (1 Bft) N-NO 28 0 min 0,5 UV-I 100 W/m 7,8 C 13,6 C 8,0 km/h (2 Bft)
04.05.2022 16:38 13,6 C 15,0 C 69 % 1018,3 hPa 0,0 l/m 5,5 km/h (1 Bft) N 11 0 min 0,7 UV-I 120 W/m 8,0 C 13,6 C 8,0 km/h (2 Bft)
04.05.2022 16:40 13,6 C 15,0 C 68 % 1018,4 hPa 0,0 l/m 5,8 km/h (2 Bft) N-NW 347 0 min 0,8 UV-I 141 W/m 7,8 C 13,6 C 8,0 km/h (2 Bft)
04.05.2022 16:42 13,6 C 15,0 C 68 % 1018,3 hPa 0,0 l/m 7,2 km/h (2 Bft) N-NW 342 0 min 0,9 UV-I 152 W/m 7,8 C 13,1 C 12,9 km/h (3 Bft)
04.05.2022 16:44 13,7 C 15,0 C 66 % 1018,3 hPa 0,0 l/m 6,5 km/h (2 Bft) N 10 0 min 0,9 UV-I 155 W/m 7,5 C 13,7 C 9,7 km/h (2 Bft)
04.05.2022 16:46 13,7 C 15,6 C 68 % 1018,3 hPa 0,0 l/m 7,8 km/h (2 Bft) N 355 0 min 0,9 UV-I 150 W/m 7,9 C 12,9 C 16,1 km/h (3 Bft)
04.05.2022 16:48 13,7 C 15,0 C 67 % 1018,3 hPa 0,0 l/m 9,5 km/h (2 Bft) N 355 0 min 0,9 UV-I 135 W/m 7,7 C 11,9 C 14,5 km/h (3 Bft)
04.05.2022 16:50 13,7 C 15,0 C 68 % 1018,2 hPa 0,0 l/m 7,8 km/h (2 Bft) N 5 0 min 0,7 UV-I 120 W/m 7,9 C 12,9 C 12,9 km/h (3 Bft)
04.05.2022 16:52 13,7 C 15,0 C 69 % 1018,2 hPa 0,0 l/m 5,9 km/h (2 Bft) N 10 0 min 0,7 UV-I 125 W/m 8,1 C 13,7 C 11,3 km/h (2 Bft)
04.05.2022 16:54 13,7 C 15,0 C 67 % 1018,2 hPa 0,0 l/m 11,3 km/h (2 Bft) N 355 0 min 0,8 UV-I 138 W/m 7,7 C 11,1 C 16,1 km/h (3 Bft)
04.05.2022 16:56 13,6 C 15,0 C 67 % 1018,3 hPa 0,0 l/m 9,8 km/h (2 Bft) N 9 0 min 0,7 UV-I 134 W/m 7,6 C 11,7 C 14,5 km/h (3 Bft)
04.05.2022 16:58 13,6 C 15,0 C 66 % 1018,2 hPa 0,0 l/m 10,7 km/h (2 Bft) N 355 0 min 0,7 UV-I 140 W/m 7,4 C 11,2 C 16,1 km/h (3 Bft)
04.05.2022 17:00 13,7 C 15,0 C 66 % 1018,3 hPa 0,0 l/m 10,0 km/h (2 Bft) N 5 0 min 1,0 UV-I 182 W/m 7,5 C 11,7 C 14,5 km/h (3 Bft)
04.05.2022 17:02 13,7 C 15,6 C 66 % 1018,2 hPa 0,0 l/m 8,3 km/h (2 Bft) N 360 0 min 1,2 UV-I 199 W/m 7,5 C 12,6 C 14,5 km/h (3 Bft)
04.05.2022 17:04 13,7 C 15,6 C 64 % 1018,3 hPa 0,0 l/m 11,7 km/h (2 Bft) N 5 0 min 1,2 UV-I 187 W/m 7,0 C 10,9 C 16,1 km/h (3 Bft)
04.05.2022 17:06 13,7 C 15,6 C 64 % 1018,3 hPa 0,0 l/m 11,8 km/h (2 Bft) N 360 0 min 1,2 UV-I 168 W/m 7,0 C 10,9 C 16,1 km/h (3 Bft)
04.05.2022 17:08 13,7 C 15,0 C 64 % 1018,2 hPa 0,0 l/m 9,3 km/h (2 Bft) N-NO 15 0 min 1,1 UV-I 156 W/m 7,0 C 12,0 C 16,1 km/h (3 Bft)
04.05.2022 17:10 13,7 C 15,0 C 65 % 1018,2 hPa 0,0 l/m 9,0 km/h (2 Bft) N 10 0 min 1,0 UV-I 158 W/m 7,2 C 12,2 C 17,7 km/h (3 Bft)
04.05.2022 17:12 13,7 C 15,0 C 63 % 1018,2 hPa 0,0 l/m 13,0 km/h (3 Bft) N 360 0 min 1,1 UV-I 193 W/m 6,8 C 10,4 C 17,7 km/h (3 Bft)
04.05.2022 17:14 13,7 C 15,0 C 66 % 1018,0 hPa 0,0 l/m 7,7 km/h (2 Bft) N-NO 15 0 min 1,1 UV-I 154 W/m 7,5 C 12,9 C 16,1 km/h (3 Bft)
04.05.2022 17:16 13,7 C 15,0 C 65 % 1018,2 hPa 0,0 l/m 12,8 km/h (3 Bft) N-NW 347 0 min 1,0 UV-I 124 W/m 7,2 C 10,4 C 20,9 km/h (4 Bft)
04.05.2022 17:18 13,6 C 14,4 C 64 % 1018,1 hPa 0,0 l/m 17,3 km/h (3 Bft) N 10 0 min 0,9 UV-I 132 W/m 6,9 C 8,7 C 22,5 km/h (4 Bft)
04.05.2022 17:20 13,4 C 14,4 C 65 % 1018,1 hPa 0,0 l/m 13,0 km/h (3 Bft) N 355 0 min 0,9 UV-I 138 W/m 7,0 C 10,0 C 19,3 km/h (3 Bft)
04.05.2022 17:22 13,4 C 14,4 C 64 % 1018,2 hPa 0,0 l/m 11,6 km/h (2 Bft) N 5 0 min 0,8 UV-I 132 W/m 6,7 C 10,6 C 16,1 km/h (3 Bft)
04.05.2022 17:24 13,4 C 14,4 C 65 % 1018,2 hPa 0,0 l/m 5,6 km/h (1 Bft) N-NO 17 0 min 0,7 UV-I 121 W/m 7,0 C 13,4 C 11,3 km/h (2 Bft)
04.05.2022 17:26 13,4 C 14,4 C 65 % 1018,2 hPa 0,0 l/m 8,7 km/h (2 Bft) N-NO 24 0 min 0,6 UV-I 114 W/m 7,0 C 12,0 C 12,9 km/h (3 Bft)
04.05.2022 17:28 13,3 C 14,4 C 65 % 1018,3 hPa 0,0 l/m 7,8 km/h (2 Bft) N-NO 17 0 min 0,6 UV-I 112 W/m 6,9 C 12,4 C 12,9 km/h (3 Bft)
04.05.2022 17:30 13,3 C 14,4 C 65 % 1018,2 hPa 0,0 l/m 6,1 km/h (2 Bft) N-NO 17 0 min 0,6 UV-I 116 W/m 6,9 C 13,3 C 8,0 km/h (2 Bft)
04.05.2022 17:32 13,4 C 14,4 C 64 % 1018,2 hPa 0,0 l/m 7,3 km/h (2 Bft) N 5 0 min 0,6 UV-I 116 W/m 6,7 C 12,8 C 9,7 km/h (2 Bft)
04.05.2022 17:34 13,4 C 14,4 C 64 % 1018,2 hPa 0,0 l/m 6,4 km/h (2 Bft) N 5 0 min 0,6 UV-I 115 W/m 6,7 C 13,4 C 8,0 km/h (2 Bft)
04.05.2022 17:36 13,4 C 14,4 C 63 % 1018,3 hPa 0,0 l/m 11,2 km/h (2 Bft) N 351 0 min 0,6 UV-I 104 W/m 6,5 C 10,8 C 19,3 km/h (3 Bft)
04.05.2022 17:38 13,4 C 13,9 C 64 % 1018,3 hPa 0,0 l/m 10,1 km/h (2 Bft) N-NO 17 0 min 0,5 UV-I 92 W/m 6,7 C 11,3 C 16,1 km/h (3 Bft)
04.05.2022 17:40 13,4 C 13,9 C 65 % 1018,3 hPa 0,0 l/m 7,4 km/h (2 Bft) N 360 0 min 0,3 UV-I 84 W/m 7,0 C 12,8 C 14,5 km/h (3 Bft)
04.05.2022 17:42 13,3 C 13,9 C 63 % 1018,3 hPa 0,0 l/m 9,1 km/h (2 Bft) N-NO 17 0 min 0,3 UV-I 89 W/m 6,4 C 11,7 C 14,5 km/h (3 Bft)
04.05.2022 17:44 13,3 C 13,9 C 64 % 1018,3 hPa 0,0 l/m 7,2 km/h (2 Bft) N 5 0 min 0,5 UV-I 91 W/m 6,6 C 12,8 C 11,3 km/h (2 Bft)
04.05.2022 17:46 13,3 C 13,9 C 64 % 1018,4 hPa 0,0 l/m 6,1 km/h (2 Bft) N 5 0 min 0,1 UV-I 81 W/m 6,6 C 13,3 C 9,7 km/h (2 Bft)
04.05.2022 17:48 13,3 C 13,9 C 64 % 1018,4 hPa 0,0 l/m 4,9 km/h (1 Bft) N 350 0 min 0,0 UV-I 70 W/m 6,6 C 13,3 C 6,4 km/h (2 Bft)
04.05.2022 17:50 13,3 C 13,3 C 64 % 1018,5 hPa 0,0 l/m 6,4 km/h (2 Bft) N-NO 14 0 min 0,0 UV-I 63 W/m 6,6 C 13,3 C 11,3 km/h (2 Bft)
04.05.2022 17:52 13,2 C 13,3 C 65 % 1018,5 hPa 0,0 l/m 5,5 km/h (1 Bft) N 5 0 min 0,0 UV-I 62 W/m 6,8 C 13,2 C 8,0 km/h (2 Bft)
04.05.2022 17:54 13,2 C 13,3 C 64 % 1018,4 hPa 0,0 l/m 7,5 km/h (2 Bft) N-NO 17 0 min 0,0 UV-I 64 W/m 6,5 C 12,5 C 16,1 km/h (3 Bft)
04.05.2022 17:56 13,2 C 13,3 C 63 % 1018,4 hPa 0,0 l/m 8,6 km/h (2 Bft) N 9 0 min 0,0 UV-I 68 W/m 6,3 C 11,9 C 12,9 km/h (3 Bft)
04.05.2022 17:58 13,2 C 13,3 C 63 % 1018,4 hPa 0,0 l/m 7,1 km/h (2 Bft) N 11 0 min 0,0 UV-I 78 W/m 6,3 C 12,8 C 11,3 km/h (2 Bft)
04.05.2022 18:00 13,1 C 13,3 C 63 % 1018,4 hPa 0,0 l/m 5,7 km/h (1 Bft) N-NO 15 0 min 0,0 UV-I 81 W/m 6,2 C 13,1 C 8,0 km/h (2 Bft)
04.05.2022 18:02 13,2 C 13,3 C 64 % 1018,5 hPa 0,0 l/m 3,9 km/h (1 Bft) N-NO 15 0 min 0,0 UV-I 83 W/m 6,5 C 13,2 C 8,0 km/h (2 Bft)
04.05.2022 18:04 13,2 C 13,9 C 64 % 1018,5 hPa 0,0 l/m 3,7 km/h (1 Bft) N-NO 13 0 min 0,4 UV-I 110 W/m 6,5 C 13,2 C 6,4 km/h (2 Bft)
04.05.2022 18:06 13,2 C 13,9 C 65 % 1018,4 hPa 0,0 l/m 5,6 km/h (1 Bft) N-NO 23 0 min 0,7 UV-I 144 W/m 6,8 C 13,2 C 11,3 km/h (2 Bft)
04.05.2022 18:08 13,3 C 14,4 C 64 % 1018,4 hPa 0,0 l/m 6,4 km/h (2 Bft) N 9 0 min 0,7 UV-I 155 W/m 6,6 C 13,3 C 11,3 km/h (2 Bft)
04.05.2022 18:10 13,4 C 14,4 C 64 % 1018,4 hPa 0,0 l/m 8,8 km/h (2 Bft) N 5 0 min 0,7 UV-I 145 W/m 6,7 C 12,0 C 12,9 km/h (3 Bft)
04.05.2022 18:12 13,4 C 14,4 C 63 % 1018,5 hPa 0,0 l/m 8,7 km/h (2 Bft) N 360 0 min 0,7 UV-I 139 W/m 6,5 C 12,0 C 12,9 km/h (3 Bft)
04.05.2022 18:14 13,4 C 15,0 C 64 % 1018,4 hPa 0,0 l/m 6,2 km/h (2 Bft) N-NO 16 0 min 0,8 UV-I 154 W/m 6,7 C 13,4 C 9,7 km/h (2 Bft)
04.05.2022 18:16 13,5 C 15,0 C 65 % 1018,4 hPa 0,0 l/m 7,6 km/h (2 Bft) N-NO 18 0 min 0,8 UV-I 146 W/m 7,1 C 12,8 C 12,9 km/h (3 Bft)
04.05.2022 18:18 13,5 C 15,0 C 65 % 1018,4 hPa 0,0 l/m 5,7 km/h (1 Bft) N-NO 17 0 min 0,9 UV-I 138 W/m 7,1 C 13,5 C 8,0 km/h (2 Bft)
04.05.2022 18:20 13,5 C 15,0 C 65 % 1018,4 hPa 0,0 l/m 6,1 km/h (2 Bft) N-NO 12 0 min 0,9 UV-I 131 W/m 7,1 C 13,5 C 12,9 km/h (3 Bft)
04.05.2022 18:22 13,4 C 15,0 C 65 % 1018,3 hPa 0,0 l/m 8,3 km/h (2 Bft) N-NO 29 0 min 0,8 UV-I 114 W/m 7,0 C 12,2 C 12,9 km/h (3 Bft)
04.05.2022 18:24 13,3 C 14,4 C 64 % 1018,4 hPa 0,0 l/m 9,6 km/h (2 Bft) N-NO 21 0 min 0,8 UV-I 111 W/m 6,6 C 11,4 C 14,5 km/h (3 Bft)
04.05.2022 18:26 13,3 C 14,4 C 65 % 1018,4 hPa 0,0 l/m 7,4 km/h (2 Bft) N 5 0 min 0,8 UV-I 101 W/m 6,9 C 12,7 C 14,5 km/h (3 Bft)
04.05.2022 18:28 13,2 C 13,9 C 64 % 1018,4 hPa 0,0 l/m 11,3 km/h (2 Bft) N-NO 19 0 min 0,8 UV-I 109 W/m 6,5 C 10,5 C 16,1 km/h (3 Bft)
04.05.2022 18:30 13,2 C 13,9 C 63 % 1018,3 hPa 0,0 l/m 8,9 km/h (2 Bft) N-NO 13 0 min 0,8 UV-I 126 W/m 6,3 C 11,7 C 14,5 km/h (3 Bft)
04.05.2022 18:32 13,2 C 13,9 C 64 % 1018,4 hPa 0,0 l/m 5,5 km/h (1 Bft) N-NO 13 0 min 0,8 UV-I 127 W/m 6,5 C 13,2 C 8,0 km/h (2 Bft)
04.05.2022 18:34 13,2 C 13,9 C 66 % 1018,5 hPa 0,0 l/m 6,7 km/h (2 Bft) N 5 0 min 0,7 UV-I 135 W/m 7,0 C 13,0 C 11,3 km/h (2 Bft)
04.05.2022 18:36 13,2 C 13,9 C 65 % 1018,4 hPa 0,0 l/m 9,2 km/h (2 Bft) N-NO 32 0 min 0,7 UV-I 140 W/m 6,8 C 11,5 C 12,9 km/h (3 Bft)
04.05.2022 18:38 13,2 C 14,4 C 65 % 1018,5 hPa 0,0 l/m 7,1 km/h (2 Bft) N 5 0 min 0,7 UV-I 142 W/m 6,8 C 12,8 C 9,7 km/h (2 Bft)
04.05.2022 18:40 13,2 C 14,4 C 65 % 1018,5 hPa 0,0 l/m 9,1 km/h (2 Bft) N-NO 20 0 min 0,7 UV-I 135 W/m 6,8 C 11,6 C 16,1 km/h (3 Bft)
04.05.2022 18:42 13,2 C 13,9 C 64 % 1018,4 hPa 0,0 l/m 12,6 km/h (3 Bft) N-NO 26 0 min 0,6 UV-I 126 W/m 6,5 C 9,9 C 17,7 km/h (3 Bft)
04.05.2022 18:44 13,2 C 13,9 C 63 % 1018,5 hPa 0,0 l/m 13,8 km/h (3 Bft) N-NO 27 0 min 0,5 UV-I 113 W/m 6,3 C 9,5 C 17,7 km/h (3 Bft)
04.05.2022 18:46 13,2 C 13,9 C 63 % 1018,6 hPa 0,0 l/m 8,6 km/h (2 Bft) N-NO 21 0 min 0,5 UV-I 95 W/m 6,3 C 11,9 C 17,7 km/h (3 Bft)
04.05.2022 18:48 13,2 C 13,9 C 65 % 1018,5 hPa 0,0 l/m 7,6 km/h (2 Bft) N-NO 24 0 min 0,0 UV-I 87 W/m 6,8 C 12,5 C 12,9 km/h (3 Bft)
04.05.2022 18:50 13,1 C 13,3 C 64 % 1018,6 hPa 0,0 l/m 6,3 km/h (2 Bft) N-NO 17 0 min 0,0 UV-I 84 W/m 6,4 C 13,1 C 9,7 km/h (2 Bft)
04.05.2022 18:52 13,0 C 13,3 C 64 % 1018,5 hPa 0,0 l/m 6,9 km/h (2 Bft) N-NO 13 0 min 0,0 UV-I 84 W/m 6,4 C 12,7 C 12,9 km/h (3 Bft)
04.05.2022 18:54 12,9 C 13,3 C 63 % 1018,6 hPa 0,0 l/m 9,2 km/h (2 Bft) N 5 0 min 0,0 UV-I 82 W/m 6,0 C 11,2 C 12,9 km/h (3 Bft)
04.05.2022 18:56 12,9 C 13,3 C 62 % 1018,6 hPa 0,0 l/m 9,6 km/h (2 Bft) N-NO 24 0 min 0,0 UV-I 80 W/m 5,8 C 11,0 C 16,1 km/h (3 Bft)
04.05.2022 18:58 12,9 C 13,3 C 61 % 1018,7 hPa 0,0 l/m 12,1 km/h (2 Bft) N-NO 12 0 min 0,0 UV-I 77 W/m 5,6 C 9,8 C 16,1 km/h (3 Bft)
04.05.2022 19:00 12,8 C 13,3 C 60 % 1018,6 hPa 0,0 l/m 11,6 km/h (2 Bft) N-NO 16 0 min 0,0 UV-I 77 W/m 5,2 C 9,9 C 17,7 km/h (3 Bft)
04.05.2022 19:02 12,8 C 12,8 C 59 % 1018,7 hPa 0,0 l/m 8,9 km/h (2 Bft) NO 34 0 min 0,0 UV-I 76 W/m 5,0 C 11,3 C 12,9 km/h (3 Bft)
04.05.2022 19:04 12,8 C 12,8 C 60 % 1018,6 hPa 0,0 l/m 4,9 km/h (1 Bft) N-NO 15 0 min 0,0 UV-I 79 W/m 5,2 C 12,8 C 8,0 km/h (2 Bft)
04.05.2022 19:06 12,8 C 13,3 C 60 % 1018,7 hPa 0,0 l/m 9,8 km/h (2 Bft) N-NO 31 0 min 0,0 UV-I 86 W/m 5,2 C 10,8 C 16,1 km/h (3 Bft)
04.05.2022 19:08 12,8 C 13,3 C 60 % 1018,6 hPa 0,0 l/m 8,8 km/h (2 Bft) N-NO 31 0 min 0,0 UV-I 90 W/m 5,2 C 11,3 C 14,5 km/h (3 Bft)
04.05.2022 19:10 12,8 C 13,3 C 59 % 1018,6 hPa 0,0 l/m 8,0 km/h (2 Bft) N-NO 19 0 min 0,0 UV-I 96 W/m 5,0 C 11,8 C 14,5 km/h (3 Bft)
04.05.2022 19:12 12,8 C 13,3 C 60 % 1018,6 hPa 0,0 l/m 7,7 km/h (2 Bft) N-NO 15 0 min 0,0 UV-I 98 W/m 5,2 C 12,0 C 12,9 km/h (3 Bft)
04.05.2022 19:14 12,8 C 13,3 C 60 % 1018,5 hPa 0,0 l/m 11,2 km/h (2 Bft) N-NO 22 0 min 0,0 UV-I 104 W/m 5,2 C 10,1 C 17,7 km/h (3 Bft)
04.05.2022 19:16 12,8 C 13,9 C 60 % 1018,6 hPa 0,0 l/m 12,7 km/h (3 Bft) N 11 0 min 0,3 UV-I 183 W/m 5,2 C 9,4 C 17,7 km/h (3 Bft)
04.05.2022 19:18 12,9 C 15,6 C 59 % 1018,5 hPa 0,0 l/m 9,5 km/h (2 Bft) N-NO 14 0 min 0,5 UV-I 229 W/m 5,1 C 11,1 C 16,1 km/h (3 Bft)
04.05.2022 19:20 13,1 C 16,7 C 59 % 1018,6 hPa 0,0 l/m 7,8 km/h (2 Bft) N-NO 25 0 min 0,5 UV-I 220 W/m 5,3 C 12,2 C 9,7 km/h (2 Bft)
04.05.2022 19:22 13,2 C 16,7 C 59 % 1018,6 hPa 0,0 l/m 10,4 km/h (2 Bft) N 9 0 min 0,5 UV-I 223 W/m 5,4 C 10,9 C 14,5 km/h (3 Bft)
04.05.2022 19:24 13,2 C 17,2 C 58 % 1018,5 hPa 0,0 l/m 8,9 km/h (2 Bft) N-NO 24 0 min 0,5 UV-I 227 W/m 5,1 C 11,7 C 12,9 km/h (3 Bft)
04.05.2022 19:26 13,3 C 17,8 C 58 % 1018,5 hPa 0,0 l/m 7,2 km/h (2 Bft) N-NO 23 0 min 0,5 UV-I 229 W/m 5,2 C 12,8 C 12,9 km/h (3 Bft)
04.05.2022 19:28 13,4 C 17,8 C 59 % 1018,5 hPa 0,0 l/m 6,8 km/h (2 Bft) NO 38 0 min 0,5 UV-I 228 W/m 5,6 C 13,2 C 11,3 km/h (2 Bft)
04.05.2022 19:30 13,4 C 17,8 C 55 % 1018,5 hPa 0,0 l/m 8,4 km/h (2 Bft) N-NO 22 0 min 0,5 UV-I 226 W/m 4,5 C 12,2 C 12,9 km/h (3 Bft)
04.05.2022 19:32 13,5 C 17,8 C 57 % 1018,6 hPa 0,0 l/m 4,9 km/h (1 Bft) N-NO 23 0 min 0,5 UV-I 227 W/m 5,2 C 13,5 C 6,4 km/h (2 Bft)
04.05.2022 19:34 13,5 C 17,2 C 56 % 1018,5 hPa 0,0 l/m 5,4 km/h (1 Bft) O-NO 76 0 min 0,5 UV-I 225 W/m 4,9 C 13,5 C 11,3 km/h (2 Bft)
04.05.2022 19:36 13,5 C 16,7 C 55 % 1018,6 hPa 0,0 l/m 5,3 km/h (1 Bft) NO 51 0 min 0,5 UV-I 225 W/m 4,6 C 13,5 C 8,0 km/h (2 Bft)
04.05.2022 19:38 13,5 C 16,7 C 54 % 1018,6 hPa 0,0 l/m 6,2 km/h (2 Bft) NO 51 0 min 0,5 UV-I 221 W/m 4,4 C 13,5 C 9,7 km/h (2 Bft)
04.05.2022 19:40 13,6 C 16,7 C 54 % 1018,6 hPa 0,0 l/m 5,7 km/h (1 Bft) NO 48 0 min 0,5 UV-I 213 W/m 4,5 C 13,6 C 8,0 km/h (2 Bft)
04.05.2022 19:42 13,5 C 16,1 C 55 % 1018,6 hPa 0,0 l/m 6,9 km/h (2 Bft) NO 40 0 min 0,1 UV-I 199 W/m 4,6 C 13,2 C 9,7 km/h (2 Bft)
04.05.2022 19:44 13,4 C 15,6 C 55 % 1018,7 hPa 0,0 l/m 5,3 km/h (1 Bft) N-NO 32 0 min 0,0 UV-I 186 W/m 4,5 C 13,4 C 6,4 km/h (2 Bft)
04.05.2022 19:46 13,4 C 15,0 C 56 % 1018,7 hPa 0,0 l/m 6,2 km/h (2 Bft) N 10 0 min 0,0 UV-I 176 W/m 4,8 C 13,4 C 8,0 km/h (2 Bft)
04.05.2022 19:48 13,3 C 14,4 C 56 % 1018,7 hPa 0,0 l/m 7,5 km/h (2 Bft) N-NO 29 0 min 0,0 UV-I 161 W/m 4,7 C 12,6 C 9,7 km/h (2 Bft)
04.05.2022 19:50 13,3 C 13,9 C 57 % 1018,7 hPa 0,0 l/m 6,0 km/h (2 Bft) N-NW 336 0 min 0,0 UV-I 145 W/m 5,0 C 13,3 C 9,7 km/h (2 Bft)
04.05.2022 19:52 13,3 C 13,3 C 54 % 1018,8 hPa 0,0 l/m 3,3 km/h (1 Bft) N 5 0 min 0,0 UV-I 132 W/m 4,2 C 13,3 C 8,0 km/h (2 Bft)
04.05.2022 19:54 13,3 C 12,8 C 52 % 1018,8 hPa 0,0 l/m 9,5 km/h (2 Bft) N-NO 20 0 min 0,0 UV-I 122 W/m 3,7 C 11,5 C 16,1 km/h (3 Bft)
04.05.2022 19:56 13,3 C 12,2 C 52 % 1018,8 hPa 0,0 l/m 10,1 km/h (2 Bft) N-NW 340 0 min 0,0 UV-I 109 W/m 3,7 C 11,2 C 16,1 km/h (3 Bft)
04.05.2022 19:58 13,2 C 11,7 C 53 % 1018,8 hPa 0,0 l/m 6,0 km/h (2 Bft) N 5 0 min 0,0 UV-I 100 W/m 3,8 C 13,2 C 9,7 km/h (2 Bft)
04.05.2022 20:00 13,1 C 11,7 C 53 % 1018,7 hPa 0,0 l/m 6,7 km/h (2 Bft) NW 317 0 min 0,0 UV-I 92 W/m 3,7 C 12,9 C 12,9 km/h (3 Bft)
04.05.2022 20:02 13,0 C 11,1 C 53 % 1018,8 hPa 0,0 l/m 6,7 km/h (2 Bft) N-NW 334 0 min 0,0 UV-I 83 W/m 3,6 C 12,8 C 12,9 km/h (3 Bft)
04.05.2022 20:04 12,9 C 11,1 C 53 % 1018,8 hPa 0,0 l/m 6,8 km/h (2 Bft) N-NW 342 0 min 0,0 UV-I 59 W/m 3,6 C 12,7 C 12,9 km/h (3 Bft)
04.05.2022 20:06 12,8 C 11,1 C 55 % 1018,7 hPa 0,0 l/m 7,0 km/h (2 Bft) N-NW 348 0 min 0,0 UV-I 43 W/m 4,0 C 12,4 C 9,7 km/h (2 Bft)
04.05.2022 20:08 12,5 C 10,6 C 56 % 1018,8 hPa 0,0 l/m 8,2 km/h (2 Bft) N 350 0 min 0,0 UV-I 37 W/m 4,0 C 11,4 C 12,9 km/h (3 Bft)
04.05.2022 20:10 12,3 C 10,6 C 56 % 1018,8 hPa 0,0 l/m 9,2 km/h (2 Bft) NW 321 0 min 0,0 UV-I 34 W/m 3,8 C 10,6 C 16,1 km/h (3 Bft)
04.05.2022 20:12 12,3 C 10,6 C 57 % 1018,8 hPa 0,0 l/m 8,3 km/h (2 Bft) N-NW 346 0 min 0,0 UV-I 33 W/m 4,0 C 11,1 C 17,7 km/h (3 Bft)
04.05.2022 20:14 12,3 C 10,0 C 56 % 1018,8 hPa 0,0 l/m 12,0 km/h (2 Bft) N-NW 346 0 min 0,0 UV-I 31 W/m 3,8 C 9,2 C 16,1 km/h (3 Bft)
04.05.2022 20:16 12,2 C 10,0 C 57 % 1018,8 hPa 0,0 l/m 5,8 km/h (2 Bft) N 355 0 min 0,0 UV-I 29 W/m 3,9 C 12,2 C 9,7 km/h (2 Bft)
04.05.2022 20:18 12,1 C 9,4 C 58 % 1018,8 hPa 0,0 l/m 5,5 km/h (1 Bft) N 355 0 min 0,0 UV-I 28 W/m 4,1 C 12,1 C 9,7 km/h (2 Bft)
04.05.2022 20:20 11,8 C 9,4 C 59 % 1018,8 hPa 0,0 l/m 7,3 km/h (2 Bft) N-NW 340 0 min 0,0 UV-I 26 W/m 4,1 C 11,2 C 12,9 km/h (3 Bft)
04.05.2022 20:22 11,8 C 9,4 C 57 % 1019,0 hPa 0,0 l/m 11,6 km/h (2 Bft) N-NW 348 0 min 0,0 UV-I 25 W/m 3,6 C 8,8 C 19,3 km/h (3 Bft)
04.05.2022 20:24 11,8 C 9,4 C 57 % 1019,0 hPa 0,0 l/m 6,6 km/h (2 Bft) N-NW 348 0 min 0,0 UV-I 24 W/m 3,6 C 11,7 C 9,7 km/h (2 Bft)
04.05.2022 20:26 11,7 C 9,4 C 58 % 1019,1 hPa 0,0 l/m 8,6 km/h (2 Bft) N-NW 344 0 min 0,0 UV-I 23 W/m 3,7 C 10,3 C 17,7 km/h (3 Bft)
04.05.2022 20:28 11,7 C 8,9 C 57 % 1019,1 hPa 0,0 l/m 8,9 km/h (2 Bft) N 355 0 min 0,0 UV-I 21 W/m 3,5 C 10,1 C 14,5 km/h (3 Bft)
04.05.2022 20:30 11,7 C 8,9 C 57 % 1019,2 hPa 0,0 l/m 7,2 km/h (2 Bft) N-NO 12 0 min 0,0 UV-I 19 W/m 3,5 C 11,2 C 11,3 km/h (2 Bft)
04.05.2022 20:32 11,5 C 8,9 C 58 % 1019,2 hPa 0,0 l/m 5,9 km/h (2 Bft) N 349 0 min 0,0 UV-I 18 W/m 3,5 C 11,5 C 9,7 km/h (2 Bft)
04.05.2022 20:34 11,4 C 8,3 C 58 % 1019,2 hPa 0,0 l/m 5,9 km/h (2 Bft) N-NW 337 0 min 0,0 UV-I 17 W/m 3,4 C 11,4 C 12,9 km/h (3 Bft)
04.05.2022 20:36 11,3 C 8,3 C 58 % 1019,2 hPa 0,0 l/m 6,4 km/h (2 Bft) N-NW 343 0 min 0,0 UV-I 16 W/m 3,3 C 11,3 C 11,3 km/h (2 Bft)
04.05.2022 20:38 11,3 C 8,3 C 58 % 1019,2 hPa 0,0 l/m 6,3 km/h (2 Bft) N-NW 343 0 min 0,0 UV-I 14 W/m 3,3 C 11,3 C 8,0 km/h (2 Bft)
04.05.2022 20:40 11,3 C 8,3 C 58 % 1019,2 hPa 0,0 l/m 5,7 km/h (1 Bft) N-NW 340 0 min 0,0 UV-I 12 W/m 3,3 C 11,3 C 9,7 km/h (2 Bft)
04.05.2022 20:42 11,3 C 7,8 C 58 % 1019,3 hPa 0,0 l/m 4,2 km/h (1 Bft) N 350 0 min 0,0 UV-I 10 W/m 3,3 C 11,3 C 6,4 km/h (2 Bft)
04.05.2022 20:44 11,2 C 7,8 C 58 % 1019,2 hPa 0,0 l/m 4,8 km/h (1 Bft) N-NW 337 0 min 0,0 UV-I 9 W/m 3,2 C 11,2 C 9,7 km/h (2 Bft)
04.05.2022 20:46 11,1 C 7,8 C 58 % 1019,3 hPa 0,0 l/m 5,4 km/h (1 Bft) N-NW 333 0 min 0,0 UV-I 7 W/m 3,2 C 11,1 C 9,7 km/h (2 Bft)
04.05.2022 20:48 11,1 C 7,8 C 58 % 1019,3 hPa 0,0 l/m 5,2 km/h (1 Bft) N 351 0 min 0,0 UV-I 6 W/m 3,2 C 11,1 C 8,0 km/h (2 Bft)
04.05.2022 20:50 11,0 C 7,8 C 58 % 1019,3 hPa 0,0 l/m 3,7 km/h (1 Bft) N 349 0 min 0,0 UV-I 5 W/m 3,1 C 11,0 C 6,4 km/h (2 Bft)
04.05.2022 20:52 10,8 C 7,8 C 59 % 1019,3 hPa 0,0 l/m 3,3 km/h (1 Bft) N-NW 348 0 min 0,0 UV-I 5 W/m 3,1 C 10,8 C 6,4 km/h (2 Bft)
04.05.2022 20:54 10,8 C 7,2 C 59 % 1019,3 hPa 0,0 l/m 3,7 km/h (1 Bft) N-NW 346 0 min 0,0 UV-I 2 W/m 3,1 C 10,8 C 6,4 km/h (2 Bft)
04.05.2022 20:56 10,6 C 7,2 C 60 % 1019,4 hPa 0,0 l/m 3,2 km/h (1 Bft) N-NW 346 0 min 0,0 UV-I 0 W/m 3,2 C 10,6 C 4,8 km/h (1 Bft)
04.05.2022 20:58 10,6 C 7,2 C 60 % 1019,5 hPa 0,0 l/m 1,8 km/h (1 Bft) N-NW 346 0 min 0,0 UV-I 0 W/m 3,2 C 10,6 C 3,2 km/h (1 Bft)
04.05.2022 21:00 10,6 C 6,7 C 60 % 1019,5 hPa 0,0 l/m 1,5 km/h (1 Bft) N-NW 346 0 min 0,0 UV-I 0 W/m 3,2 C 10,6 C 3,2 km/h (1 Bft)
04.05.2022 21:02 10,6 C 6,7 C 60 % 1019,5 hPa 0,0 l/m 2,8 km/h (1 Bft) N-NW 346 0 min 0,0 UV-I 0 W/m 3,2 C 10,6 C 4,8 km/h (1 Bft)
04.05.2022 21:04 10,5 C 6,7 C 60 % 1019,5 hPa 0,0 l/m 4,1 km/h (1 Bft) N-NW 346 0 min 0,0 UV-I 0 W/m 3,1 C 10,5 C 4,8 km/h (1 Bft)
04.05.2022 21:06 10,4 C 6,7 C 61 % 1019,5 hPa 0,0 l/m 4,0 km/h (1 Bft) N-NW 346 0 min 0,0 UV-I 0 W/m 3,2 C 10,4 C 4,8 km/h (1 Bft)
04.05.2022 21:08 10,3 C 6,7 C 61 % 1019,5 hPa 0,0 l/m 3,3 km/h (1 Bft) N-NW 346 0 min 0,0 UV-I 0 W/m 3,1 C 10,3 C 4,8 km/h (1 Bft)
04.05.2022 21:10 10,2 C 6,7 C 61 % 1019,5 hPa 0,0 l/m 2,8 km/h (1 Bft) N-NW 346 0 min 0,0 UV-I 0 W/m 3,0 C 10,2 C 3,2 km/h (1 Bft)
04.05.2022 21:12 10,1 C 6,7 C 62 % 1019,6 hPa 0,0 l/m 2,8 km/h (1 Bft) N-NW 346 0 min 0,0 UV-I 0 W/m 3,2 C 10,1 C 3,2 km/h (1 Bft)
04.05.2022 21:14 9,9 C 6,1 C 62 % 1019,6 hPa 0,0 l/m 1,2 km/h (1 Bft) N-NW 346 0 min 0,0 UV-I 0 W/m 3,0 C 9,9 C 3,2 km/h (1 Bft)
04.05.2022 21:16 9,7 C 5,6 C 63 % 1019,7 hPa 0,0 l/m 0,2 km/h (0 Bft) N-NW 346 0 min 0,0 UV-I 0 W/m 3,0 C 9,7 C 1,6 km/h (1 Bft)
04.05.2022 21:18 9,7 C 5,6 C 63 % 1019,6 hPa 0,0 l/m 0,0 km/h (0 Bft) N-NW 346 0 min 0,0 UV-I 0 W/m 3,0 C 9,7 C 0,0 km/h (0 Bft)
04.05.2022 21:20 9,7 C 5,6 C 63 % 1019,7 hPa 0,0 l/m 0,0 km/h (0 Bft) N-NW 346 0 min 0,0 UV-I 0 W/m 3,0 C 9,7 C 0,0 km/h (0 Bft)
04.05.2022 21:22 9,6 C 5,6 C 63 % 1019,7 hPa 0,0 l/m 0,0 km/h (0 Bft) N-NW 346 0 min 0,0 UV-I 0 W/m 2,9 C 9,6 C 0,0 km/h (0 Bft)
04.05.2022 21:24 9,6 C 5,6 C 63 % 1019,7 hPa 0,0 l/m 0,0 km/h (0 Bft) N-NW 346 0 min 0,0 UV-I 0 W/m 2,9 C 9,6 C 0,0 km/h (0 Bft)
04.05.2022 21:26 9,3 C 5,0 C 64 % 1019,7 hPa 0,0 l/m 0,0 km/h (0 Bft) N-NW 346 0 min 0,0 UV-I 0 W/m 2,8 C 9,3 C 1,6 km/h (1 Bft)
04.05.2022 21:28 8,9 C 5,0 C 65 % 1019,7 hPa 0,0 l/m 0,0 km/h (0 Bft) N-NW 346 0 min 0,0 UV-I 0 W/m 2,7 C 8,9 C 0,0 km/h (0 Bft)
04.05.2022 21:30 8,8 C 5,0 C 67 % 1019,8 hPa 0,0 l/m 0,1 km/h (0 Bft) N-NW 346 0 min 0,0 UV-I 0 W/m 3,0 C 8,8 C 1,6 km/h (1 Bft)
04.05.2022 21:32 8,7 C 5,0 C 68 % 1019,8 hPa 0,0 l/m 0,0 km/h (0 Bft) N-NW 346 0 min 0,0 UV-I 0 W/m 3,1 C 8,7 C 0,0 km/h (0 Bft)
04.05.2022 21:34 8,6 C 5,0 C 68 % 1019,9 hPa 0,0 l/m 0,0 km/h (0 Bft) N-NW 346 0 min 0,0 UV-I 0 W/m 3,0 C 8,6 C 0,0 km/h (0 Bft)
04.05.2022 21:36 8,4 C 5,0 C 68 % 1019,9 hPa 0,0 l/m 0,0 km/h (0 Bft) N-NW 346 0 min 0,0 UV-I 0 W/m 2,8 C 8,4 C 0,0 km/h (0 Bft)
04.05.2022 21:38 8,4 C 5,0 C 68 % 1019,9 hPa 0,0 l/m 0,0 km/h (0 Bft) N-NW 346 0 min 0,0 UV-I 0 W/m 2,8 C 8,4 C 1,6 km/h (1 Bft)
04.05.2022 21:40 8,3 C 5,0 C 69 % 1019,9 hPa 0,0 l/m 0,0 km/h (0 Bft) N-NW 346 0 min 0,0 UV-I 0 W/m 3,0 C 8,3 C 1,6 km/h (1 Bft)
04.05.2022 21:42 8,2 C 5,0 C 69 % 1019,9 hPa 0,0 l/m 0,0 km/h (0 Bft) N-NW 346 0 min 0,0 UV-I 0 W/m 2,9 C 8,2 C 0,0 km/h (0 Bft)
04.05.2022 21:44 7,9 C 4,4 C 70 % 1019,9 hPa 0,0 l/m 0,0 km/h (0 Bft) N-NW 346 0 min 0,0 UV-I 0 W/m 2,8 C 7,9 C 1,6 km/h (1 Bft)
04.05.2022 21:46 7,8 C 4,4 C 71 % 1019,9 hPa 0,0 l/m 1,6 km/h (1 Bft) N-NW 346 0 min 0,0 UV-I 0 W/m 2,9 C 7,8 C 3,2 km/h (1 Bft)
04.05.2022 21:48 7,6 C 4,4 C 71 % 1020,0 hPa 0,0 l/m 0,5 km/h (0 Bft) N-NW 346 0 min 0,0 UV-I 0 W/m 2,7 C 7,6 C 1,6 km/h (1 Bft)
04.05.2022 21:50 7,3 C 3,9 C 72 % 1020,1 hPa 0,0 l/m 0,0 km/h (0 Bft) N-NW 346 0 min 0,0 UV-I 0 W/m 2,6 C 7,3 C 0,0 km/h (0 Bft)
04.05.2022 21:52 7,2 C 3,9 C 72 % 1020,0 hPa 0,0 l/m 0,0 km/h (0 Bft) N-NW 346 0 min 0,0 UV-I 0 W/m 2,5 C 7,2 C 0,0 km/h (0 Bft)
04.05.2022 21:54 7,2 C 3,9 C 73 % 1020,1 hPa 0,0 l/m 0,0 km/h (0 Bft) N-NW 346 0 min 0,0 UV-I 0 W/m 2,7 C 7,2 C 0,0 km/h (0 Bft)
04.05.2022 21:56 7,1 C 3,9 C 73 % 1020,1 hPa 0,0 l/m 0,0 km/h (0 Bft) N-NW 346 0 min 0,0 UV-I 0 W/m 2,6 C 7,1 C 0,0 km/h (0 Bft)
04.05.2022 21:58 7,1 C 3,9 C 73 % 1020,1 hPa 0,0 l/m 0,0 km/h (0 Bft) N-NW 346 0 min 0,0 UV-I 0 W/m 2,6 C 7,1 C 0,0 km/h (0 Bft)
04.05.2022 22:00 7,2 C 3,9 C 73 % 1020,1 hPa 0,0 l/m 0,1 km/h (0 Bft) N-NW 346 0 min 0,0 UV-I 0 W/m 2,7 C 7,2 C 1,6 km/h (1 Bft)
04.05.2022 22:02 7,3 C 3,9 C 73 % 1020,3 hPa 0,0 l/m 0,1 km/h (0 Bft) N-NW 346 0 min 0,0 UV-I 0 W/m 2,8 C 7,3 C 1,6 km/h (1 Bft)
04.05.2022 22:04 7,3 C 3,3 C 72 % 1020,1 hPa 0,0 l/m 0,0 km/h (0 Bft) N-NW 346 0 min 0,0 UV-I 0 W/m 2,6 C 7,3 C 0,0 km/h (0 Bft)
04.05.2022 22:06 7,3 C 3,3 C 72 % 1020,2 hPa 0,0 l/m 0,0 km/h (0 Bft) N-NW 346 0 min 0,0 UV-I 0 W/m 2,6 C 7,3 C 0,0 km/h (0 Bft)
04.05.2022 22:08 7,3 C 3,3 C 73 % 1020,3 hPa 0,0 l/m 0,0 km/h (0 Bft) N-NW 346 0 min 0,0 UV-I 0 W/m 2,8 C 7,3 C 0,0 km/h (0 Bft)
04.05.2022 22:10 7,2 C 3,3 C 73 % 1020,2 hPa 0,0 l/m 0,0 km/h (0 Bft) N-NW 346 0 min 0,0 UV-I 0 W/m 2,7 C 7,2 C 0,0 km/h (0 Bft)
04.05.2022 22:12 7,1 C 3,3 C 73 % 1020,4 hPa 0,0 l/m 0,0 km/h (0 Bft) N-NW 346 0 min 0,0 UV-I 0 W/m 2,6 C 7,1 C 0,0 km/h (0 Bft)
04.05.2022 22:14 6,9 C 3,3 C 74 % 1020,3 hPa 0,0 l/m 0,0 km/h (0 Bft) N-NW 346 0 min 0,0 UV-I 0 W/m 2,6 C 6,9 C 0,0 km/h (0 Bft)
04.05.2022 22:16 6,8 C 3,3 C 74 % 1020,4 hPa 0,0 l/m 0,0 km/h (0 Bft) N-NW 346 0 min 0,0 UV-I 0 W/m 2,5 C 6,8 C 0,0 km/h (0 Bft)
04.05.2022 22:18 6,8 C 3,3 C 74 % 1020,3 hPa 0,0 l/m 0,0 km/h (0 Bft) N-NW 346 0 min 0,0 UV-I 0 W/m 2,5 C 6,8 C 0,0 km/h (0 Bft)
04.05.2022 22:20 6,8 C 3,3 C 74 % 1020,4 hPa 0,0 l/m 0,0 km/h (0 Bft) N-NW 346 0 min 0,0 UV-I 0 W/m 2,5 C 6,8 C 0,0 km/h (0 Bft)
04.05.2022 22:22 6,8 C 2,8 C 74 % 1020,4 hPa 0,0 l/m 0,0 km/h (0 Bft) N-NW 346 0 min 0,0 UV-I 0 W/m 2,5 C 6,8 C 0,0 km/h (0 Bft)
04.05.2022 22:24 6,8 C 2,8 C 74 % 1020,4 hPa 0,0 l/m 0,0 km/h (0 Bft) N-NW 346 0 min 0,0 UV-I 0 W/m 2,5 C 6,8 C 0,0 km/h (0 Bft)
04.05.2022 22:26 6,5 C 2,8 C 75 % 1020,4 hPa 0,0 l/m 0,0 km/h (0 Bft) N-NW 346 0 min 0,0 UV-I 0 W/m 2,4 C 6,5 C 0,0 km/h (0 Bft)
04.05.2022 22:28 6,2 C 2,8 C 75 % 1020,5 hPa 0,0 l/m 0,0 km/h (0 Bft) N-NW 346 0 min 0,0 UV-I 0 W/m 2,1 C 6,2 C 0,0 km/h (0 Bft)
04.05.2022 22:30 5,9 C 2,8 C 76 % 1020,4 hPa 0,0 l/m 0,0 km/h (0 Bft) N-NW 346 0 min 0,0 UV-I 0 W/m 2,0 C 5,9 C 0,0 km/h (0 Bft)
04.05.2022 22:32 5,7 C 2,8 C 77 % 1020,5 hPa 0,0 l/m 0,0 km/h (0 Bft) N-NW 346 0 min 0,0 UV-I 0 W/m 2,0 C 5,7 C 0,0 km/h (0 Bft)
04.05.2022 22:34 5,6 C 2,8 C 78 % 1020,5 hPa 0,0 l/m 0,0 km/h (0 Bft) N-NW 346 0 min 0,0 UV-I 0 W/m 2,1 C 5,6 C 0,0 km/h (0 Bft)
04.05.2022 22:36 5,6 C 2,8 C 78 % 1020,5 hPa 0,0 l/m 0,0 km/h (0 Bft) N-NW 346 0 min 0,0 UV-I 0 W/m 2,1 C 5,6 C 0,0 km/h (0 Bft)
04.05.2022 22:38 5,5 C 2,8 C 78 % 1020,5 hPa 0,0 l/m 0,0 km/h (0 Bft) N-NW 346 0 min 0,0 UV-I 0 W/m 2,0 C 5,5 C 0,0 km/h (0 Bft)
04.05.2022 22:40 5,4 C 2,2 C 78 % 1020,6 hPa 0,0 l/m 0,0 km/h (0 Bft) N-NW 346 0 min 0,0 UV-I 0 W/m 1,9 C 5,4 C 0,0 km/h (0 Bft)
04.05.2022 22:42 5,3 C 2,2 C 78 % 1020,7 hPa 0,0 l/m 0,0 km/h (0 Bft) N-NW 346 0 min 0,0 UV-I 0 W/m 1,8 C 5,3 C 0,0 km/h (0 Bft)
04.05.2022 22:44 5,1 C 2,2 C 79 % 1020,6 hPa 0,0 l/m 0,0 km/h (0 Bft) N-NW 346 0 min 0,0 UV-I 0 W/m 1,8 C 5,1 C 0,0 km/h (0 Bft)
04.05.2022 22:46 4,9 C 1,7 C 79 % 1020,7 hPa 0,0 l/m 0,0 km/h (0 Bft) N-NW 346 0 min 0,0 UV-I 0 W/m 1,6 C 4,9 C 0,0 km/h (0 Bft)
04.05.2022 22:48 4,9 C 2,2 C 80 % 1020,6 hPa 0,0 l/m 0,0 km/h (0 Bft) N-NW 346 0 min 0,0 UV-I 0 W/m 1,7 C 4,9 C 0,0 km/h (0 Bft)
04.05.2022 22:50 5,1 C 2,2 C 80 % 1020,7 hPa 0,0 l/m 0,0 km/h (0 Bft) N-NW 346 0 min 0,0 UV-I 0 W/m 1,9 C 5,1 C 0,0 km/h (0 Bft)
04.05.2022 22:52 5,4 C 2,2 C 80 % 1020,7 hPa 0,0 l/m 0,0 km/h (0 Bft) N-NW 346 0 min 0,0 UV-I 0 W/m 2,2 C 5,4 C 0,0 km/h (0 Bft)
04.05.2022 22:54 5,6 C 2,2 C 79 % 1020,8 hPa 0,0 l/m 0,0 km/h (0 Bft) N-NW 346 0 min 0,0 UV-I 0 W/m 2,3 C 5,6 C 0,0 km/h (0 Bft)
04.05.2022 22:56 5,7 C 2,2 C 78 % 1020,7 hPa 0,0 l/m 0,0 km/h (0 Bft) N-NW 346 0 min 0,0 UV-I 0 W/m 2,2 C 5,7 C 0,0 km/h (0 Bft)
04.05.2022 22:58 5,6 C 2,2 C 78 % 1020,7 hPa 0,0 l/m 0,1 km/h (0 Bft) N-NW 346 0 min 0,0 UV-I 0 W/m 2,1 C 5,6 C 1,6 km/h (1 Bft)
04.05.2022 23:00 5,4 C 2,2 C 78 % 1020,7 hPa 0,0 l/m 0,5 km/h (0 Bft) N-NW 346 0 min 0,0 UV-I 0 W/m 1,9 C 5,4 C 1,6 km/h (1 Bft)
04.05.2022 23:02 5,2 C 1,7 C 78 % 1020,7 hPa 0,0 l/m 0,9 km/h (0 Bft) N-NW 346 0 min 0,0 UV-I 0 W/m 1,7 C 5,2 C 1,6 km/h (1 Bft)
04.05.2022 23:04 5,1 C 1,7 C 79 % 1020,8 hPa 0,0 l/m 0,1 km/h (0 Bft) N-NW 346 0 min 0,0 UV-I 0 W/m 1,8 C 5,1 C 1,6 km/h (1 Bft)
04.05.2022 23:06 4,9 C 1,7 C 80 % 1020,7 hPa 0,0 l/m 0,0 km/h (0 Bft) N-NW 346 0 min 0,0 UV-I 0 W/m 1,7 C 4,9 C 0,0 km/h (0 Bft)
04.05.2022 23:08 4,8 C 1,7 C 80 % 1020,7 hPa 0,0 l/m 0,0 km/h (0 Bft) N-NW 346 0 min 0,0 UV-I 0 W/m 1,6 C 4,8 C 0,0 km/h (0 Bft)
04.05.2022 23:10 4,7 C 1,7 C 81 % 1020,8 hPa 0,0 l/m 0,0 km/h (0 Bft) N-NW 346 0 min 0,0 UV-I 0 W/m 1,7 C 4,7 C 0,0 km/h (0 Bft)
04.05.2022 23:12 4,4 C 1,7 C 80 % 1020,8 hPa 0,0 l/m 0,0 km/h (0 Bft) N-NW 346 0 min 0,0 UV-I 0 W/m 1,3 C 4,4 C 1,6 km/h (1 Bft)
04.05.2022 23:14 4,2 C 1,7 C 80 % 1020,8 hPa 0,0 l/m 0,0 km/h (0 Bft) N-NW 346 0 min 0,0 UV-I 0 W/m 1,1 C 4,2 C 0,0 km/h (0 Bft)
04.05.2022 23:16 4,1 C 1,7 C 82 % 1020,9 hPa 0,0 l/m 0,0 km/h (0 Bft) N-NW 346 0 min 0,0 UV-I 0 W/m 1,3 C 4,1 C 0,0 km/h (0 Bft)
04.05.2022 23:18 4,1 C 1,7 C 82 % 1020,8 hPa 0,0 l/m 0,0 km/h (0 Bft) N-NW 346 0 min 0,0 UV-I 0 W/m 1,3 C 4,1 C 0,0 km/h (0 Bft)
04.05.2022 23:20 4,0 C 1,7 C 82 % 1020,8 hPa 0,0 l/m 0,0 km/h (0 Bft) N-NW 346 0 min 0,0 UV-I 0 W/m 1,2 C 4,0 C 0,0 km/h (0 Bft)
04.05.2022 23:22 4,1 C 1,7 C 82 % 1020,8 hPa 0,0 l/m 0,0 km/h (0 Bft) N-NW 346 0 min 0,0 UV-I 0 W/m 1,3 C 4,1 C 0,0 km/h (0 Bft)
04.05.2022 23:24 4,1 C 1,7 C 83 % 1020,8 hPa 0,0 l/m 0,0 km/h (0 Bft) N-NW 346 0 min 0,0 UV-I 0 W/m 1,5 C 4,1 C 0,0 km/h (0 Bft)
04.05.2022 23:26 4,2 C 2,2 C 83 % 1020,8 hPa 0,0 l/m 0,0 km/h (0 Bft) N-NW 346 0 min 0,0 UV-I 0 W/m 1,6 C 4,2 C 0,0 km/h (0 Bft)
04.05.2022 23:28 4,3 C 1,7 C 83 % 1020,8 hPa 0,0 l/m 0,0 km/h (0 Bft) N-NW 346 0 min 0,0 UV-I 0 W/m 1,7 C 4,3 C 0,0 km/h (0 Bft)
04.05.2022 23:30 4,3 C 1,7 C 82 % 1020,8 hPa 0,0 l/m 0,0 km/h (0 Bft) N-NW 346 0 min 0,0 UV-I 0 W/m 1,5 C 4,3 C 0,0 km/h (0 Bft)
04.05.2022 23:32 4,2 C 1,7 C 82 % 1020,9 hPa 0,0 l/m 0,0 km/h (0 Bft) N-NW 346 0 min 0,0 UV-I 0 W/m 1,4 C 4,2 C 0,0 km/h (0 Bft)
04.05.2022 23:34 4,1 C 1,7 C 82 % 1020,9 hPa 0,0 l/m 0,0 km/h (0 Bft) N-NW 346 0 min 0,0 UV-I 0 W/m 1,3 C 4,1 C 0,0 km/h (0 Bft)
04.05.2022 23:36 4,0 C 1,7 C 82 % 1021,0 hPa 0,0 l/m 0,0 km/h (0 Bft) N-NW 346 0 min 0,0 UV-I 0 W/m 1,2 C 4,0 C 0,0 km/h (0 Bft)
04.05.2022 23:38 3,8 C 1,1 C 82 % 1020,9 hPa 0,0 l/m 0,0 km/h (0 Bft) N-NW 346 0 min 0,0 UV-I 0 W/m 1,0 C 3,8 C 0,0 km/h (0 Bft)
04.05.2022 23:40 3,7 C 1,1 C 82 % 1021,0 hPa 0,0 l/m 0,0 km/h (0 Bft) N-NW 346 0 min 0,0 UV-I 0 W/m 0,9 C 3,7 C 0,0 km/h (0 Bft)
04.05.2022 23:42 3,6 C 1,1 C 83 % 1021,0 hPa 0,0 l/m 0,0 km/h (0 Bft) N-NW 346 0 min 0,0 UV-I 0 W/m 1,0 C 3,6 C 0,0 km/h (0 Bft)
04.05.2022 23:44 3,6 C 0,6 C 83 % 1021,0 hPa 0,0 l/m 0,0 km/h (0 Bft) N-NW 346 0 min 0,0 UV-I 0 W/m 1,0 C 3,6 C 0,0 km/h (0 Bft)
04.05.2022 23:46 3,6 C 1,1 C 84 % 1021,0 hPa 0,0 l/m 0,0 km/h (0 Bft) N-NW 346 0 min 0,0 UV-I 0 W/m 1,2 C 3,6 C 0,0 km/h (0 Bft)
04.05.2022 23:48 3,6 C 1,1 C 84 % 1021,1 hPa 0,0 l/m 0,0 km/h (0 Bft) N-NW 346 0 min 0,0 UV-I 0 W/m 1,2 C 3,6 C 0,0 km/h (0 Bft)
04.05.2022 23:50 3,7 C 1,1 C 84 % 1021,1 hPa 0,0 l/m 0,0 km/h (0 Bft) N-NW 346 0 min 0,0 UV-I 0 W/m 1,3 C 3,7 C 0,0 km/h (0 Bft)
04.05.2022 23:52 3,7 C 1,1 C 84 % 1021,0 hPa 0,0 l/m 0,0 km/h (0 Bft) N-NW 346 0 min 0,0 UV-I 0 W/m 1,3 C 3,7 C 0,0 km/h (0 Bft)
04.05.2022 23:54 3,8 C 1,7 C 84 % 1021,1 hPa 0,0 l/m 0,3 km/h (0 Bft) N-NW 346 0 min 0,0 UV-I 0 W/m 1,4 C 3,8 C 1,6 km/h (1 Bft)
04.05.2022 23:56 3,9 C 1,7 C 84 % 1021,0 hPa 0,0 l/m 0,3 km/h (0 Bft) N-NW 346 0 min 0,0 UV-I 0 W/m 1,4 C 3,9 C 1,6 km/h (1 Bft)
04.05.2022 23:58 4,1 C 1,1 C 84 % 1021,1 hPa 0,0 l/m 0,1 km/h (0 Bft) N-NW 346 0 min 0,0 UV-I 0 W/m 1,6 C 4,1 C 1,6 km/h (1 Bft)
04.05.2022 23:59 4,1 C 1,1 C 83 % 1021,2 hPa 0,0 l/m 0,0 km/h (0 Bft) N 0 0 min 0,0 UV-I 0 W/m 1,5 C 4,1 C 0,0 km/h (0 Bft)
_ Min-Zeit 03:48 23:44 19:54 17:14 - 00:00 - - - - - 23:40 03:48 00:00
Minimum _ 2,8 C 0,6 C 52 % 1018,0 hPa - 0,0 km/h (0 Bft) - - - - - 0,9 C 2,8 C 0,0 km/h (0 Bft)
_ Max-Zeit 15:36 13:56 03:54 23:59 00:00 17:18 - - 08:58 13:54 13:56 13:54 10:42 15:52
Maximum _ 15,6 C 26,1 C 91 % 1021,2 hPa 0,0 l/m 17,3 km/h
N (3 Bft)
- - 2 min 5,2 UV-I 981 W/m 9,6 C 14,6 C 22,5 km/h
N-NW (4 Bft)
Durchschnitt _ 9,6 C 10,2 C 75 % 1019,0 hPa #0,0 l/m 3,7 km/h (1 Bft) N - #3:24 h 1,8 UV-I 239 W/m 5,1 C 9,2 C 6,2 km/h (2 Bft)